[[{"header":{"parameterUnit":"m.s-1","parameterCategory":1,"la1":30.6,"la2":29.2853,"lo1":-89.7004,"lo2":-87.6739,"dy":0.0162,"dx":0.0183,"nx":112,"ny":82,"refTime":"2023-04-10T12:00:00:Z","depth":0,"parameterNumber":2,"parameterNumberName":"U-component_of_WINDS"},"data":[0.0,0.0,0.0,0.0,0.0,0.0,0.0,0.0,0.0,0.0,0.0,0.0,0.0,0.0,0.0,0.0,0.0,0.0,0.0,0.0,0.0,0.0,0.0,0.0,0.0,0.0,0.0,0.0,0.0,0.0,0.0,0.0,0.0,0.0,0.0,0.0,0.0,0.0,0.0,0.0,0.0,0.0,0.0,0.0,0.0,0.0,0.0,0.0,0.0,0.0,0.0,0.0,0.0,0.0,0.0,0.0,0.0,0.0,0.0,0.0,0.0,0.0,0.0,0.0,0.0,0.0,0.0,0.0,0.0,0.0,0.0,0.0,0.0,0.0,0.0,0.0,0.0,0.0,0.0,0.0,0.0,0.0,0.0,0.0,0.0,0.0,0.0,0.0,0.0,0.0,-5.0983,-5.5129,-5.9364,-6.1843,-6.1732,-6.0948,-5.8131,-5.2582,0.0,0.0,0.0,0.0,0.0,0.0,0.0,0.0,0.0,0.0,0.0,0.0,0.0,0.0,0.0,0.0,0.0,0.0,0.0,0.0,0.0,0.0,0.0,0.0,0.0,0.0,0.0,0.0,0.0,0.0,0.0,0.0,0.0,0.0,0.0,0.0,0.0,0.0,0.0,0.0,0.0,0.0,0.0,0.0,0.0,0.0,0.0,0.0,0.0,0.0,0.0,0.0,0.0,0.0,0.0,0.0,0.0,0.0,0.0,0.0,0.0,0.0,0.0,0.0,0.0,0.0,0.0,0.0,0.0,0.0,0.0,0.0,0.0,0.0,0.0,0.0,0.0,0.0,0.0,0.0,0.0,0.0,0.0,0.0,0.0,0.0,0.0,0.0,0.0,0.0,0.0,0.0,0.0,0.0,0.0,0.0,0.0,0.0,0.0,0.0,0.0,0.0,0.0,0.0,-5.3401,-5.9023,-6.2047,-6.3362,-6.2625,-6.1894,-5.92,-5.3991,0.0,0.0,0.0,0.0,0.0,0.0,0.0,0.0,0.0,0.0,0.0,0.0,0.0,0.0,0.0,0.0,0.0,0.0,0.0,0.0,0.0,0.0,0.0,0.0,0.0,0.0,0.0,0.0,0.0,0.0,0.0,0.0,0.0,0.0,0.0,0.0,0.0,0.0,0.0,0.0,0.0,0.0,0.0,0.0,0.0,0.0,0.0,0.0,0.0,0.0,0.0,0.0,0.0,0.0,0.0,0.0,0.0,0.0,0.0,0.0,0.0,0.0,0.0,0.0,0.0,0.0,0.0,0.0,0.0,0.0,0.0,0.0,0.0,0.0,0.0,0.0,0.0,0.0,0.0,0.0,0.0,0.0,0.0,0.0,0.0,0.0,0.0,0.0,0.0,0.0,0.0,0.0,0.0,0.0,0.0,0.0,0.0,0.0,0.0,0.0,0.0,0.0,0.0,-5.3001,-5.718,-6.069,-6.2053,-6.2522,-6.2168,-6.1006,-5.8307,-5.3653,-5.2562,0.0,0.0,0.0,0.0,0.0,0.0,0.0,0.0,0.0,0.0,0.0,0.0,0.0,0.0,0.0,0.0,0.0,0.0,0.0,0.0,0.0,0.0,0.0,0.0,0.0,0.0,0.0,0.0,0.0,0.0,0.0,0.0,0.0,0.0,0.0,0.0,0.0,0.0,0.0,0.0,0.0,0.0,0.0,0.0,0.0,0.0,0.0,0.0,0.0,0.0,0.0,0.0,0.0,0.0,0.0,0.0,0.0,0.0,0.0,0.0,0.0,0.0,0.0,0.0,0.0,0.0,0.0,0.0,0.0,0.0,0.0,0.0,0.0,0.0,0.0,0.0,0.0,0.0,0.0,0.0,0.0,0.0,0.0,0.0,0.0,0.0,0.0,0.0,0.0,0.0,0.0,0.0,0.0,0.0,0.0,0.0,0.0,0.0,0.0,0.0,0.0,0.0,-5.5801,-5.951,-6.0885,-6.1374,-6.1447,-6.108,-5.9905,-5.7391,-5.3149,-5.2333,0.0,0.0,0.0,0.0,0.0,0.0,0.0,0.0,0.0,0.0,0.0,0.0,0.0,0.0,0.0,0.0,0.0,0.0,0.0,0.0,0.0,0.0,0.0,0.0,0.0,0.0,0.0,0.0,0.0,0.0,0.0,0.0,0.0,0.0,0.0,0.0,0.0,0.0,0.0,0.0,0.0,0.0,0.0,0.0,0.0,0.0,0.0,0.0,0.0,0.0,0.0,0.0,0.0,0.0,0.0,0.0,0.0,0.0,0.0,0.0,0.0,0.0,0.0,0.0,0.0,0.0,0.0,0.0,0.0,0.0,0.0,0.0,0.0,0.0,0.0,0.0,0.0,0.0,0.0,0.0,0.0,0.0,0.0,0.0,0.0,0.0,0.0,0.0,0.0,0.0,0.0,0.0,0.0,0.0,0.0,0.0,0.0,0.0,0.0,0.0,0.0,0.0,-5.5566,-5.8427,-5.9281,-6.0713,-6.1006,-5.9501,-5.9281,-5.7519,-5.3402,-5.2454,0.0,0.0,0.0,0.0,0.0,0.0,0.0,0.0,0.0,0.0,0.0,0.0,0.0,0.0,0.0,0.0,0.0,0.0,0.0,0.0,0.0,0.0,0.0,0.0,0.0,0.0,0.0,0.0,0.0,0.0,0.0,0.0,0.0,0.0,0.0,0.0,0.0,0.0,0.0,0.0,0.0,0.0,0.0,0.0,0.0,0.0,0.0,0.0,0.0,0.0,0.0,0.0,0.0,0.0,0.0,0.0,0.0,0.0,0.0,0.0,0.0,0.0,0.0,0.0,0.0,0.0,0.0,0.0,0.0,0.0,0.0,0.0,0.0,0.0,0.0,0.0,0.0,0.0,0.0,0.0,0.0,0.0,0.0,0.0,0.0,0.0,0.0,0.0,0.0,0.0,0.0,0.0,0.0,0.0,0.0,0.0,0.0,0.0,0.0,0.0,0.0,0.0,-5.5647,-5.898,-5.956,-5.9955,-5.9973,-5.9671,-5.8923,-5.7022,-5.3658,0.0,0.0,0.0,0.0,0.0,0.0,0.0,0.0,0.0,0.0,0.0,0.0,0.0,0.0,0.0,0.0,0.0,0.0,0.0,0.0,0.0,0.0,0.0,0.0,0.0,0.0,0.0,0.0,0.0,0.0,0.0,0.0,0.0,0.0,0.0,0.0,0.0,0.0,0.0,0.0,0.0,0.0,0.0,0.0,0.0,0.0,0.0,0.0,0.0,0.0,0.0,0.0,0.0,0.0,0.0,0.0,0.0,0.0,0.0,0.0,0.0,0.0,0.0,0.0,0.0,0.0,0.0,0.0,0.0,0.0,0.0,0.0,0.0,0.0,0.0,0.0,0.0,0.0,0.0,0.0,0.0,0.0,0.0,0.0,0.0,0.0,0.0,0.0,0.0,0.0,0.0,0.0,0.0,0.0,0.0,0.0,0.0,0.0,0.0,0.0,0.0,0.0,-5.16,-5.5918,-5.9227,-5.9694,-5.945,-5.9404,-5.9696,-5.8967,-5.713,-5.4018,0.0,0.0,0.0,0.0,0.0,0.0,0.0,0.0,0.0,0.0,0.0,0.0,0.0,0.0,0.0,0.0,0.0,0.0,0.0,0.0,0.0,0.0,0.0,0.0,0.0,0.0,0.0,0.0,0.0,0.0,0.0,0.0,0.0,0.0,0.0,0.0,0.0,0.0,0.0,0.0,0.0,0.0,0.0,0.0,0.0,0.0,0.0,0.0,0.0,0.0,0.0,0.0,0.0,0.0,0.0,0.0,0.0,0.0,0.0,0.0,0.0,0.0,0.0,0.0,0.0,0.0,0.0,0.0,0.0,0.0,0.0,0.0,0.0,0.0,0.0,0.0,0.0,0.0,0.0,0.0,0.0,0.0,0.0,0.0,0.0,0.0,0.0,0.0,0.0,0.0,0.0,0.0,0.0,0.0,0.0,0.0,0.0,0.0,0.0,0.0,0.0,0.0,-5.3132,-5.6407,-5.8874,-5.9354,-5.9389,-5.9389,-5.9389,-5.9389,-5.7925,0.0,0.0,0.0,0.0,0.0,0.0,0.0,0.0,0.0,0.0,0.0,0.0,0.0,0.0,0.0,0.0,0.0,0.0,0.0,0.0,0.0,0.0,0.0,0.0,0.0,0.0,0.0,0.0,0.0,0.0,0.0,0.0,0.0,0.0,0.0,0.0,0.0,0.0,0.0,0.0,0.0,0.0,0.0,0.0,0.0,0.0,0.0,0.0,0.0,0.0,0.0,0.0,0.0,0.0,0.0,0.0,0.0,0.0,0.0,0.0,0.0,0.0,0.0,0.0,0.0,0.0,0.0,0.0,0.0,0.0,0.0,0.0,0.0,0.0,0.0,0.0,0.0,0.0,0.0,0.0,0.0,0.0,0.0,0.0,0.0,0.0,0.0,0.0,0.0,0.0,0.0,0.0,0.0,0.0,0.0,0.0,0.0,0.0,0.0,0.0,0.0,0.0,0.0,-5.3176,-5.6688,-5.9354,-5.9855,-5.9592,-5.9526,-5.9855,-5.9592,-5.78,-5.4035,0.0,0.0,0.0,0.0,0.0,0.0,0.0,0.0,0.0,0.0,0.0,0.0,0.0,0.0,0.0,0.0,0.0,0.0,0.0,0.0,0.0,0.0,0.0,0.0,0.0,0.0,0.0,0.0,0.0,0.0,0.0,0.0,0.0,0.0,0.0,0.0,0.0,0.0,0.0,0.0,0.0,0.0,0.0,0.0,0.0,0.0,0.0,0.0,0.0,0.0,0.0,0.0,0.0,0.0,0.0,0.0,0.0,0.0,0.0,0.0,0.0,0.0,0.0,0.0,0.0,0.0,0.0,0.0,0.0,0.0,0.0,0.0,0.0,0.0,0.0,0.0,0.0,0.0,0.0,0.0,0.0,0.0,0.0,0.0,0.0,0.0,0.0,0.0,0.0,0.0,0.0,0.0,0.0,0.0,0.0,0.0,0.0,0.0,0.0,0.0,0.0,0.0,-5.404,-5.737,-5.9855,-6.0338,-6.0132,-6.0074,-6.0338,-6.0132,-5.8644,-5.5576,0.0,0.0,0.0,0.0,0.0,0.0,0.0,0.0,0.0,0.0,0.0,0.0,0.0,0.0,0.0,0.0,0.0,0.0,0.0,0.0,0.0,0.0,0.0,0.0,0.0,0.0,0.0,0.0,0.0,0.0,0.0,0.0,0.0,0.0,0.0,0.0,0.0,0.0,0.0,0.0,0.0,0.0,0.0,0.0,0.0,0.0,0.0,0.0,0.0,0.0,0.0,0.0,0.0,0.0,0.0,0.0,0.0,0.0,0.0,0.0,0.0,0.0,0.0,0.0,0.0,0.0,0.0,0.0,0.0,0.0,0.0,0.0,0.0,0.0,0.0,0.0,0.0,0.0,0.0,0.0,0.0,0.0,0.0,0.0,0.0,0.0,0.0,0.0,0.0,0.0,0.0,0.0,0.0,0.0,0.0,0.0,0.0,0.0,0.0,0.0,0.0,0.0,-5.537,-5.8245,-6.0338,-6.0757,-6.0781,-6.0781,-6.0781,-6.0781,-6.0003,-5.8141,0.0,0.0,0.0,0.0,0.0,0.0,0.0,0.0,0.0,0.0,0.0,0.0,0.0,0.0,0.0,0.0,0.0,0.0,0.0,0.0,0.0,0.0,0.0,0.0,0.0,0.0,0.0,0.0,0.0,0.0,0.0,0.0,0.0,0.0,0.0,0.0,0.0,0.0,0.0,0.0,0.0,0.0,0.0,0.0,0.0,0.0,0.0,0.0,0.0,0.0,0.0,0.0,0.0,0.0,0.0,0.0,0.0,0.0,0.0,0.0,-5.8,-5.6963,0.0,0.0,0.0,0.0,0.0,0.0,0.0,0.0,0.0,0.0,0.0,0.0,0.0,0.0,0.0,0.0,0.0,0.0,0.0,0.0,0.0,0.0,0.0,0.0,0.0,0.0,0.0,0.0,0.0,0.0,0.0,0.0,0.0,0.0,0.0,0.0,0.0,0.0,0.0,0.0,-5.5621,-5.8596,-6.0671,-6.0781,-6.0781,-6.0781,-6.0781,-6.0781,-5.9781,-5.7412,-5.6566,0.0,0.0,0.0,0.0,0.0,0.0,0.0,0.0,0.0,0.0,0.0,0.0,0.0,0.0,0.0,0.0,0.0,0.0,0.0,0.0,0.0,0.0,0.0,0.0,0.0,0.0,0.0,0.0,0.0,0.0,0.0,0.0,0.0,0.0,0.0,0.0,0.0,0.0,0.0,0.0,0.0,0.0,0.0,0.0,0.0,0.0,0.0,0.0,0.0,0.0,0.0,0.0,0.0,0.0,0.0,0.0,0.0,0.0,0.0,-6.0441,-5.9615,0.0,0.0,0.0,0.0,0.0,0.0,0.0,0.0,0.0,0.0,0.0,0.0,0.0,0.0,0.0,0.0,0.0,0.0,0.0,0.0,0.0,0.0,0.0,0.0,0.0,0.0,0.0,0.0,0.0,0.0,0.0,0.0,0.0,0.0,0.0,0.0,0.0,0.0,0.0,0.0,-5.5049,-5.8434,-6.0781,-6.0781,-6.0781,-6.0781,-6.0781,-6.0781,-6.0242,-5.8896,-5.7665,0.0,0.0,0.0,0.0,0.0,0.0,0.0,0.0,0.0,0.0,0.0,0.0,0.0,0.0,0.0,0.0,0.0,0.0,0.0,0.0,0.0,0.0,0.0,0.0,0.0,0.0,0.0,0.0,0.0,0.0,0.0,0.0,0.0,0.0,0.0,0.0,0.0,0.0,0.0,0.0,0.0,0.0,0.0,0.0,0.0,0.0,0.0,0.0,0.0,0.0,0.0,0.0,0.0,-6.3003,-6.3528,-6.3238,-6.4067,-6.4693,-6.5029,-6.3624,-6.3416,-6.3885,-6.241,0.0,0.0,0.0,0.0,0.0,0.0,0.0,0.0,0.0,0.0,0.0,0.0,0.0,0.0,0.0,0.0,0.0,0.0,0.0,0.0,0.0,0.0,-6.3191,-6.5264,-6.5534,-6.4932,-6.3638,0.0,0.0,0.0,0.0,0.0,0.0,0.0,0.0,0.0,0.0,0.0,-5.4416,-5.8187,-6.0781,-6.0781,-6.0781,-6.0781,-6.0781,-6.0781,-6.0781,-6.0781,-5.8819,-5.7434,0.0,0.0,0.0,0.0,0.0,0.0,0.0,0.0,0.0,0.0,0.0,0.0,0.0,0.0,0.0,0.0,0.0,0.0,0.0,0.0,0.0,0.0,0.0,0.0,0.0,0.0,0.0,0.0,0.0,0.0,0.0,0.0,6.1811,6.0705,0.0,0.0,0.0,0.0,0.0,0.0,0.0,0.0,0.0,0.0,0.0,0.0,0.0,-6.0691,-6.1728,-6.3499,-6.4507,-6.472,-6.7225,-6.8114,-6.768,-6.8278,-6.856,-6.8563,-6.7241,0.0,-6.6785,-6.5793,0.0,0.0,0.0,0.0,0.0,0.0,0.0,0.0,0.0,0.0,0.0,0.0,0.0,0.0,0.0,0.0,0.0,0.0,0.0,0.0,0.0,0.0,-6.9733,-7.0225,-6.9206,-6.8336,-6.8972,-6.4152,-5.9777,-6.0227,-5.8007,-5.5413,0.0,0.0,0.0,0.0,0.0,0.0,-5.4555,-5.8209,-6.0781,-6.0781,-6.0781,-6.0781,-6.0781,-6.0781,-6.0781,-6.0781,-6.0473,-5.9319,-5.7088,-5.828,0.0,0.0,0.0,0.0,0.0,0.0,0.0,0.0,0.0,0.0,0.0,0.0,0.0,0.0,0.0,0.0,0.0,0.0,0.0,0.0,0.0,0.0,0.0,0.0,0.0,0.0,0.0,0.0,0.0,5.9336,6.1431,5.9297,3.6989,1.7289,0.0,0.0,0.0,0.0,0.0,0.0,0.0,0.0,0.0,-6.1385,-6.2535,-6.3826,-6.5235,-6.6357,-6.7142,-6.7567,-6.8744,-6.9353,-6.9433,-6.9664,-6.9883,-7.0195,-6.9604,-6.936,-6.9207,-6.7317,-6.6097,-6.5171,0.0,0.0,0.0,0.0,-6.1058,-6.3514,-6.3514,-6.5087,-6.7083,-6.6754,0.0,0.0,0.0,0.0,0.0,0.0,0.0,-6.41,-6.5513,-6.7515,-6.9416,-7.0399,-7.0066,-6.9516,-6.9473,-6.5931,-6.2905,-6.3175,-6.0148,-5.6705,-5.3934,-5.4062,0.0,0.0,0.0,-5.6223,-5.6223,-5.9049,-6.107,-6.107,-6.107,-6.1018,-6.0925,-6.0905,-6.0882,-6.0804,-6.0781,-6.0281,-5.9165,-5.9858,-5.8934,0.0,0.0,0.0,0.0,0.0,0.0,0.0,0.0,0.0,0.0,0.0,0.0,0.0,0.0,0.0,0.0,0.0,0.0,0.0,0.0,0.0,0.0,0.0,0.0,0.0,0.0,0.0,0.0,5.8585,6.0832,5.806,3.3658,1.3153,0.0,0.0,0.0,0.0,0.0,0.0,-6.0104,-6.126,-6.2682,-6.4476,-6.5716,-6.7029,-6.8527,-6.8767,-6.9106,-6.9511,-6.9626,-6.9847,-7.0095,-7.0266,-7.0524,-7.0898,-7.0898,-7.0898,-7.0744,-6.8751,-6.7361,-6.6351,-6.5575,-6.4923,-6.4411,-6.3834,-6.5128,-6.7167,-6.6936,-6.8257,-7.0028,-6.9604,-6.8289,-6.6819,-6.6221,0.0,0.0,0.0,0.0,-6.5406,-6.7264,-6.8082,-6.8717,-6.9991,-7.0096,-6.9796,-6.9167,-6.6867,-6.5121,-6.5645,-6.2512,-5.8792,-5.5765,-5.6199,0.0,-5.1476,-5.4654,-5.7517,-5.7517,-5.9716,-6.1289,-6.1289,-6.1289,-6.124,-6.1097,-6.1081,-6.1018,-6.0839,-6.0856,-6.0834,-6.0781,-6.0781,-6.0204,-5.8973,0.0,0.0,0.0,0.0,0.0,0.0,0.0,0.0,0.0,0.0,0.0,0.0,0.0,0.0,0.0,0.0,0.0,0.0,0.0,0.0,0.0,0.0,0.0,0.0,0.0,0.0,0.0,0.0,0.0,5.865,4.3034,0.0,0.0,0.0,0.0,-5.6096,-5.9673,-6.1615,-6.3019,-6.5064,-6.6425,-6.7022,-6.8369,-6.9398,-6.9985,-7.0023,-7.0061,-7.0061,-7.0593,-7.0593,-7.0129,-7.0622,-7.0871,-7.0898,-7.0898,-7.0898,-7.0898,-7.0744,-7.064,-7.0371,-6.7936,-6.7436,-6.7833,-6.5436,-6.7128,-7.0552,-6.9783,-7.1762,-7.4392,-7.2827,-6.9678,-6.6088,-6.3803,-6.3045,0.0,0.0,-6.5199,-6.7657,-6.7774,-6.8927,-7.0161,-7.0411,-6.9848,-6.9282,-6.9371,-6.6718,-6.4984,-6.7058,-6.4895,-6.2071,-6.0114,0.0,-5.775,-5.4206,-5.5918,-5.7602,-5.7602,-5.9766,-6.1289,-6.1289,-6.1289,-6.1277,-6.1277,-6.1277,-6.12,-6.0997,-6.0979,-6.0906,-6.0804,-6.0781,-6.0742,-6.0666,-5.8204,0.0,0.0,0.0,0.0,0.0,0.0,0.0,0.0,0.0,0.0,0.0,0.0,0.0,0.0,0.0,0.0,0.0,0.0,0.0,0.0,0.0,0.0,0.0,0.0,0.0,0.0,0.0,0.0,5.9687,3.2435,0.0,0.2268,-3.0659,-5.4029,-6.0107,-6.1929,-6.3286,-6.4357,-6.6062,-6.7309,-6.8025,-6.8853,-6.955,-7.0095,-7.0095,-7.0298,-7.0622,-7.0805,-7.0805,-7.0622,-7.0805,-7.0898,-7.0898,-7.0898,-7.0898,-7.0925,-7.1053,-7.1029,-7.0821,-6.9898,-7.009,-7.0733,-6.9957,-7.0954,-7.2677,-7.2501,-7.2926,-7.3346,-7.2219,-7.0898,-6.9538,-6.8717,-6.8475,-6.8567,-6.8567,-6.9494,-7.0487,-7.0487,-7.0518,-7.0401,-6.995,-6.9171,-6.8431,-6.789,-6.6836,-6.6209,-6.7004,-6.487,-6.2418,-6.061,-6.1477,-6.1091,-5.7064,-5.8621,-6.0256,-6.0256,-6.0991,-6.1573,-6.1573,-6.1573,-6.1515,-6.1456,-6.1417,-6.1364,-6.1214,-6.12,-6.1172,-6.1136,-6.0497,-6.0403,-6.0906,-5.8351,-5.6049,0.0,0.0,0.0,0.0,0.0,0.0,0.0,0.0,0.0,0.0,0.0,0.0,0.0,0.0,0.0,0.0,0.0,0.0,0.0,0.0,0.0,0.0,0.0,0.0,0.0,5.4898,5.8223,5.713,2.5897,0.2647,-0.1875,-3.8061,-6.175,-6.2835,-6.4302,-6.5332,-6.5689,-6.7258,-6.8444,-6.9021,-6.955,-7.0026,-7.0362,-7.0362,-7.0524,-7.0898,-7.0898,-7.0898,-7.0898,-7.0898,-7.0606,-7.0169,-7.0747,-7.086,-7.0744,-7.1436,-7.1843,-7.1904,-7.1324,-7.1827,-7.2778,-7.2638,-7.3277,-7.4246,-7.4145,-7.3547,-7.278,-7.2599,-7.2344,-7.2101,-7.2101,-7.1963,-7.1807,-7.1807,-7.1906,-7.1992,-7.1992,-7.1133,-7.0156,-6.9609,-6.8594,-6.7617,-6.7031,-6.5976,-6.5508,-6.668,-6.5508,-6.3476,-6.0859,-6.1836,-6.1523,-5.7226,-5.8008,-5.9101,-5.9101,-5.9883,-6.043,-6.043,-6.1172,-6.1677,-6.1577,-6.0796,-6.0573,-6.1325,-6.0536,-6.0282,-6.0861,-5.9342,-5.8767,-5.9254,-5.6656,-5.4587,-5.3203,0.0,0.0,0.0,0.0,0.0,0.0,0.0,0.0,0.0,0.0,0.0,0.0,0.0,0.0,0.0,0.0,0.0,0.0,0.0,0.0,0.0,0.0,0.0,4.8278,5.5762,5.8482,5.1004,2.5241,0.3691,-0.7489,-3.901,-6.0335,-6.4093,-6.6616,-6.7752,-6.7242,-6.897,-6.9976,-6.9976,-7.0537,-7.081,-7.081,-7.086,-7.0898,-7.0898,-7.0898,-7.0898,-7.0898,-7.0898,-7.0117,-6.8819,-7.0524,-7.089,-7.0459,-7.216,-7.3288,-7.3847,-7.2224,-7.2574,-7.3897,-7.308,-7.3819,-7.517,-7.4429,-7.3686,-7.3231,-7.4216,-7.3984,-7.3281,-7.3281,-7.2656,-7.1992,-7.1992,-7.1992,-7.1992,-7.1992,-7.0742,-6.9492,-6.9414,-6.8125,-6.6914,-6.6914,-6.4258,-6.2851,-6.6211,-6.6875,-6.5508,-6.1289,-6.0547,-5.9101,-5.4922,-5.4258,0.0,-5.4258,-5.6445,-5.8008,-5.8008,-6.0156,-6.1601,-6.168,-5.9375,-5.894,-6.1353,-5.9123,-5.8414,-5.9977,-5.7508,-5.6033,-5.5924,-5.3301,-5.2395,-5.3241,0.0,0.0,0.0,0.0,0.0,0.0,0.0,0.0,0.0,0.0,0.0,0.0,0.0,0.0,0.0,0.0,0.0,0.0,0.0,0.0,0.0,5.0434,5.417,5.4509,5.681,5.6594,5.141,2.3688,0.0483,-1.094,-4.1193,-6.1843,-6.6074,-6.6935,-6.7476,-6.7947,-6.7687,-6.7564,-6.7702,-6.864,-6.8875,-6.8304,-7.0042,-7.0898,-7.0898,-7.0898,-7.0898,-7.0898,-7.1038,-7.1214,-7.1474,-7.2086,-7.2609,-7.2977,-7.3641,-7.403,-7.4138,-7.3574,-7.36,-7.4003,-7.3875,-7.4272,-7.4392,-7.1671,-7.2259,-7.4097,-7.3789,-7.3515,-7.3164,-7.2539,-7.2187,-7.1992,-7.1992,-7.1992,-7.1992,-7.1992,-7.0742,-6.9492,-6.9414,-6.8125,-6.6914,-6.6914,-6.6133,-6.5586,-6.5898,-6.5976,-6.5586,-6.4375,-6.3633,-6.2617,-6.0781,-6.0,-5.957,-5.957,-6.0195,-6.0664,-6.0664,-5.9648,-5.9687,-6.1523,-5.9375,-5.8984,-6.1481,-6.0971,-6.0774,-6.1193,-5.9222,-5.7409,-5.5924,-5.4597,-5.4012,0.0,0.0,0.0,0.0,0.0,0.0,0.0,0.0,0.0,0.0,0.0,0.0,0.0,0.0,0.0,0.0,0.0,0.0,0.0,0.0,0.0,0.0,5.2059,5.6449,5.6471,5.729,5.6526,5.2572,2.419,-0.053,-1.475,-4.2083,-6.1228,-6.6697,-6.8044,-6.8641,-6.8628,-6.8506,-6.8186,-6.7658,-6.9034,-6.915,-6.7953,-7.0079,-7.1158,-7.1158,-7.1158,-7.1158,-7.1158,-7.1668,-7.1581,-7.1209,-7.2768,-7.3339,-7.3275,-7.4457,-7.5173,-7.5443,0.0,0.0,0.0,0.0,-7.4798,-7.4375,-7.2695,-7.3437,-7.5117,-7.4961,-7.4453,-7.375,-7.3242,-7.1562,-6.9802,-6.9802,-6.8783,-6.7961,-6.945,-6.8552,-6.7655,-6.9062,-6.8125,-6.6914,-6.6914,-6.5742,-6.5,-6.5976,-6.4687,0.0,-6.5351,-6.3672,-6.1484,-5.9531,-5.8789,-5.8476,-5.8476,-5.9414,-6.0117,-6.0117,-5.9726,-6.0078,-6.1562,-5.9375,0.0,0.0,0.0,-5.9921,-5.9487,-5.841,0.0,0.0,0.0,-5.4594,-5.5194,-5.4204,0.0,0.0,-5.3822,-5.2818,0.0,0.0,0.0,0.0,0.0,0.0,0.0,0.0,0.0,0.0,0.0,0.0,0.0,0.0,0.0,0.0,5.3403,5.6644,5.5891,5.7002,5.6474,5.2784,2.5071,-0.069,-1.8513,-4.1953,-5.915,-6.6358,-6.9075,-7.0106,-6.9395,-7.0099,0.0,0.0,0.0,-7.0302,-6.872,-7.0551,-7.1485,-7.1485,-7.1485,-7.1485,-7.1523,-7.2329,-7.1633,-6.9933,-7.299,-7.365,-7.2773,-7.5078,-7.6484,-7.7031,-7.5508,-7.5351,-7.6015,-7.5625,-7.5234,-7.4961,-7.5312,0.0,0.0,-7.668,-7.5781,-7.4413,-7.4296,-7.1007,-6.7317,-6.7317,-6.5111,-6.341,-6.6414,-6.595,-6.5489,-6.8471,-6.8005,-6.6833,-6.6833,-6.441,-6.3121,-6.6129,-6.3512,-6.1715,-6.4724,-6.2109,-5.8594,-5.5469,-5.4922,-5.4883,-5.4883,-5.6875,-5.832,-5.832,-6.0078,0.0,-6.168,-5.9375,-5.8984,-6.1523,-5.957,-5.7888,-5.6891,-5.6848,-5.5694,-5.3198,-5.3892,-5.5043,-5.6612,-5.6612,-5.7847,-6.0044,-5.5913,-5.4766,0.0,0.0,0.0,0.0,0.0,0.0,0.0,0.0,0.0,0.0,0.0,0.0,0.0,0.0,0.0,5.2303,5.5411,5.7665,5.7228,5.4284,5.0564,4.6113,2.0497,-0.3417,-2.033,-4.0588,-5.646,-6.5684,-6.7019,-6.8496,-7.089,-6.7969,-6.6836,-6.8275,-6.8449,-6.8385,-6.8078,-7.0341,-7.1485,-7.1485,-7.1485,0.0,-7.1523,-7.177,-7.2416,-7.3374,-7.4168,-7.5155,-7.6211,-7.6758,-7.7031,-7.7187,-7.6836,-7.6797,-7.6601,-7.3789,-7.4414,-7.6328,-7.3672,-7.414,-7.582,-7.5273,-7.4288,-7.3197,-7.2456,-7.1495,0.0,-7.0575,-7.0096,-6.9589,-6.9535,-6.8756,-6.8015,-6.8037,-6.7257,-6.6517,-6.6517,-6.5972,-6.5494,-6.5455,-6.4208,-6.3117,-6.3078,-6.2623,-6.2031,-6.1367,-6.0664,-6.0195,-6.0195,-6.0664,-6.0976,-6.0976,-5.957,-5.9453,-6.1523,-5.9375,-5.8984,-6.1523,-6.125,-6.0547,-5.9647,-5.9647,-5.9012,-5.7668,-5.7824,-5.8328,-5.9288,-5.9288,-5.9861,-6.1017,-5.9413,-5.8882,0.0,0.0,0.0,0.0,0.0,0.0,0.0,0.0,0.0,0.0,0.0,4.6191,4.6067,0.0,5.0909,5.2636,5.4111,5.4775,5.4176,4.9148,4.489,4.3419,2.0166,-0.5252,-2.9545,-4.3049,-5.3857,-6.2112,-6.5839,-6.8111,-6.8994,-6.8448,-6.8057,-6.8005,-6.9127,-6.9413,-6.8668,-7.0704,-7.1767,-7.1767,-7.1767,-7.1767,-7.1767,-7.2275,-7.2756,-7.3228,-7.4647,-7.5508,-7.5976,-7.6836,-7.7187,-7.7187,-7.71,-7.7103,-7.6992,-7.5234,-7.5622,-7.6817,-7.506,-7.5233,-7.6099,-7.5241,-7.4312,-7.3358,-7.2501,-7.0667,-6.8909,-6.8909,-6.7619,-6.6461,-6.7355,-6.6927,-6.6514,-6.7476,-6.701,-6.6387,-6.6387,-6.6387,-6.627,-6.5842,-6.5064,-6.4169,-6.33,-6.3302,-6.3137,-6.2284,-6.1777,-6.1515,-6.1584,-6.1587,-6.1633,-6.1679,-6.0547,-6.0312,-6.1601,-6.0547,-6.0351,-6.1601,-6.1719,-6.1484,-6.1055,-6.1055,-6.0819,-6.0301,-6.0301,-6.0483,-6.0846,-6.0846,-6.108,-6.1504,-6.1041,-6.0793,0.0,0.0,0.0,0.0,0.0,0.0,0.0,4.3965,4.4884,4.3949,4.5344,4.6712,4.7186,4.8338,5.0086,5.2483,5.255,5.179,5.0063,4.4015,4.0292,4.1756,1.9878,-0.7051,-3.6881,-4.4925,-5.1364,-5.8524,-6.4469,-6.7618,-6.7128,-6.9285,-6.9923,-6.8572,-7.045,-7.0961,-6.9859,-7.1286,-7.1992,-7.1992,-7.1992,-7.1992,-7.2031,-7.2734,-7.2773,-7.2383,-7.4844,-7.5586,-7.5153,-7.6559,-7.7105,-7.7055,-7.6926,-7.6939,-7.7097,-7.7097,-7.6995,-7.6808,-7.6661,-7.6348,-7.596,-7.5104,-7.4194,-7.3333,-7.2672,-7.0011,-6.7193,-6.7193,-6.5122,-6.3397,-6.5373,-6.5255,-6.5118,-6.7115,-6.6951,-6.6314,-6.6314,-6.6314,-6.6314,-6.6314,-6.5615,-6.4799,-6.41,-6.3813,-6.3143,-6.155,-6.1445,-6.1528,-6.1471,-6.1478,-6.1509,-6.1637,-6.1677,-6.1678,-6.1719,-6.1719,-6.1719,-6.1719,-6.1719,-6.1719,-6.1719,-6.1719,-6.1719,-6.1719,-6.1719,-6.1719,-6.1719,-6.1719,-6.1719,-6.1719,-6.1719,-6.158,3.7482,3.4384,3.3472,3.6376,3.9543,4.2082,0.0,4.6967,5.0599,4.7713,4.9549,5.1762,5.2311,5.3669,5.4823,5.4769,5.4207,5.2284,4.7996,4.176,3.7766,3.8467,1.5058,-0.9948,-3.244,-4.1329,-4.9174,-5.7493,-6.1875,-6.5582,-6.8756,-6.8462,-6.906,-7.1018,-7.0775,-7.087,-7.1423,-7.183,-7.1992,-7.1992,-7.1992,-7.1992,-7.1992,-7.2109,-7.25,-7.3242,-7.5117,-7.6163,-7.6659,-7.6855,-7.6839,-7.6638,-7.6624,-7.6663,-7.6677,-7.6677,-7.6638,-7.6533,-7.5768,-7.4976,-7.417,-7.3352,-7.2375,-7.1494,-7.1416,-7.0915,-7.0401,-7.0401,-7.0105,-6.972,-6.9284,-6.8552,-6.7744,-6.7268,-6.656,-6.5982,-6.5982,-6.5982,-6.5982,-6.5982,-6.5226,-6.4609,-6.4532,-6.3877,-6.2895,-6.1512,-6.19,-6.2106,-6.1429,-6.1312,-6.1364,-6.1509,-6.1515,-6.1577,-6.1679,-6.1719,-6.1719,-6.1719,-6.1719,-6.1719,-6.1719,-6.1719,-6.1719,-6.1719,-6.1719,-6.1719,-6.1719,-6.1719,-6.1719,-6.1719,-6.1719,-6.1679,3.7737,3.7621,3.8816,4.0789,4.4119,4.6769,4.6835,4.9702,5.1768,4.9558,5.1431,5.3551,5.3681,5.3158,5.3206,5.5221,5.1778,4.7979,4.568,3.8969,3.1649,2.4376,0.825,-1.0266,-3.0874,-3.8676,-4.588,-5.4301,-6.0143,-6.4391,-6.69,-6.8379,-6.959,-7.0541,-7.0814,-7.1134,-7.1583,-7.1741,-7.1792,-7.1706,-7.1797,-7.1792,-7.1706,-7.1706,-7.2448,-7.3766,-7.5014,-7.6001,-7.6738,-7.6727,-7.669,-7.6567,-7.6475,-7.6419,-7.6438,-7.6576,-7.6544,-7.6342,-7.5993,-7.5235,-7.427,-7.348,-7.2577,-7.1684,-7.1183,-7.0966,-7.0898,-7.0898,-7.0898,-7.0706,-6.9898,-6.9052,-6.8167,-6.7321,-6.6474,-6.5897,-6.5897,-6.5897,-6.5897,-6.5897,-6.559,-6.5205,-6.4705,-6.4705,-6.4277,-6.2704,-6.2743,-6.2876,-6.2665,-6.2215,-6.1744,-6.1442,-6.1373,-6.1424,-6.1577,-6.158,-6.1631,-6.1719,-6.1719,-6.1719,-6.1719,-6.1719,-6.1719,-6.1719,-6.1719,-6.1719,-6.1719,-6.1719,-6.1719,-6.1719,-6.1719,-6.1719,3.8476,3.9768,4.1594,4.4568,4.7061,4.9222,5.0305,5.1345,5.175,5.0524,5.1742,5.3159,5.3159,5.2002,5.1716,5.3747,4.9407,4.5013,4.243,3.5428,2.5848,1.326,0.2869,-1.0607,-2.9351,-3.6448,-4.3493,-5.1871,-5.8496,-6.3,-6.4864,-6.7615,-6.9305,-6.9625,-7.0402,-7.1048,-7.1397,-7.1583,-7.1604,-7.1485,-7.1604,-7.1594,-7.1523,-7.1718,-7.2613,-7.4053,-7.4895,-7.5759,-7.6527,-7.6544,-7.6493,-7.6419,-7.625,-7.6195,-7.6219,-7.6361,-7.6359,-7.6181,-7.5925,-7.535,-7.4553,-7.3476,-7.2706,-7.2052,-7.1168,-7.0898,-7.0898,-7.0898,-7.0898,-7.0783,-7.0167,-6.9398,-6.8552,-6.7667,-6.6821,-6.6167,-6.5936,-6.5897,-6.5897,-6.5897,-6.5897,-6.5705,-6.5051,-6.5474,-6.5474,-6.4205,-6.4012,-6.3892,-6.3572,-6.2994,-6.2289,-6.1317,-6.1447,-6.1567,-6.1456,-6.1424,-6.1498,-6.158,-6.1631,-6.1635,-6.1635,-6.1679,-6.1719,-6.1719,-6.1719,-6.1719,-6.1719,-6.1719,-6.1719,-6.1719,-6.1719,-6.1719,3.9599,3.8011,3.7092,4.4565,4.6043,4.6687,5.0419,5.1305,5.1129,5.0575,5.0499,5.0524,5.0524,5.1845,5.2129,4.9769,4.8577,4.5319,3.7611,3.0537,2.1733,0.9695,0.0279,-1.1365,-2.6867,-3.4979,-4.2748,-5.1133,-5.6846,-6.1043,-6.3539,-6.5726,-6.7505,-6.8902,-6.9577,-7.033,-7.1182,-7.1397,-7.1485,-7.1485,-7.1485,-7.1485,-7.1523,-7.2288,-7.3144,-7.4053,-7.4895,-7.5677,-7.6295,-7.6316,-7.6171,-7.6005,-7.6005,-7.6005,-7.6005,-7.6005,-7.6005,-7.589,-7.5014,-7.4707,-7.4437,-7.2783,-7.2206,-7.2052,-7.1168,-7.0898,-7.0898,-7.0898,-7.0898,-7.0898,-7.086,-7.0283,-6.9436,-6.859,-6.7705,-6.6859,-6.6051,-6.5897,-6.5897,-6.5897,-6.5897,-6.5897,-6.5859,-6.5859,-6.5859,-6.582,-6.582,-6.5205,-6.3512,-6.3454,-6.2933,-6.1208,-6.1886,-6.2133,-6.1367,-6.1289,-6.1301,-6.1301,-6.1417,-6.1509,-6.1509,-6.1633,-6.1719,-6.1719,-6.1719,-6.1719,-6.1719,-6.1719,-6.1719,-6.1719,-6.1719,-6.1719,3.7355,3.8611,4.1046,4.5126,4.6746,4.8064,5.073,5.0996,5.0544,4.9992,4.7855,4.5945,4.5503,4.4087,4.3262,4.4147,4.0363,3.7015,3.6312,2.5974,1.584,0.8479,-0.1676,-1.2848,-2.4899,-3.3141,-4.0978,-4.8596,-5.4615,-5.9564,-6.3329,-6.4783,-6.6523,-6.8836,-6.9115,-6.9805,-7.1004,-7.1221,-7.1223,-7.1108,-7.1108,-7.1379,-7.1997,-7.2847,-7.3698,-7.4509,-7.5398,-7.589,-7.6095,-7.6095,-7.6052,-7.6015,-7.6015,-7.6015,-7.6015,-7.6015,-7.563,-7.5091,-7.4822,-7.4361,-7.3707,-7.2552,-7.1822,-7.1283,-7.0975,-7.0898,-7.0898,-7.0898,-7.0898,-7.0898,-7.0898,-7.0283,-6.9475,-6.8629,-6.7744,-6.6859,-6.6051,-6.5897,-6.5897,-6.5897,-6.5897,-6.5897,-6.5897,-6.5897,-6.5897,-6.5897,-6.5897,-6.5474,-6.432,-6.4224,-6.3808,-6.2651,-6.2372,-6.2181,-6.1973,-6.1423,-6.1158,-6.1277,-6.1334,-6.1364,-6.1364,-6.1498,-6.1577,-6.1577,-6.1637,-6.1719,-6.1719,-6.1719,-6.1719,-6.1719,-6.1719,-6.1719,3.7494,4.0144,4.3578,4.6598,4.8522,5.0011,5.153,5.1423,5.0795,5.0042,4.7606,4.5012,4.3044,4.0644,3.9167,4.0204,3.6547,3.3569,3.3552,2.5702,1.6962,0.8647,-0.2092,-1.298,-2.3278,-3.1663,-3.921,-4.6339,-5.1989,-5.6814,-6.1058,-6.2437,-6.4568,-6.7808,-6.8244,-6.9152,-7.0584,-7.094,-7.1029,-7.0898,-7.0898,-7.1206,-7.1783,-7.2976,-7.3101,-7.2506,-7.4947,-7.5293,-7.4158,-7.5447,-7.6015,-7.6015,-7.6015,-7.6015,-7.6015,-7.6015,-7.5438,-7.4707,-7.4707,-7.4168,-7.336,-7.2476,-7.1822,-7.1321,-7.0975,-7.0898,-7.0898,-7.0898,-7.0898,-7.0898,-7.0898,-7.0514,-6.986,-6.8667,-6.7975,-6.7244,-6.6128,-6.5897,-6.5897,-6.5897,-6.5897,-6.5897,-6.5897,-6.5897,-6.5897,-6.5897,-6.5897,-6.559,-6.4705,-6.4859,-6.4628,-6.3435,-6.3128,-6.2891,-6.2702,-6.1872,-6.1446,-6.1585,-6.1352,-6.12,-6.12,-6.1354,-6.1417,-6.1417,-6.1509,-6.158,-6.1633,-6.1633,-6.1637,-6.1719,-6.1637,-6.1637,3.9606,4.2324,4.4565,4.8989,5.0937,5.1979,5.2616,5.2291,5.1649,5.0106,4.8857,4.6737,4.2341,4.0493,3.9058,3.7377,3.637,3.4127,2.9431,2.8694,2.3549,0.9635,-0.1114,-1.1652,-2.227,-3.023,-3.7489,-4.4248,-4.8961,-5.3264,-5.7095,-5.9075,-6.1929,-6.594,-6.7014,-6.8345,-7.0057,-7.0622,-7.0871,-7.0871,-7.0871,-7.0871,-7.1014,-7.2668,-7.1622,-6.8723,-7.3735,-7.4004,-7.1129,-7.4542,-7.5947,-7.5947,-7.5917,-7.5917,-7.5917,-7.5879,-7.5302,-7.4601,-7.4495,-7.3995,-7.3255,-7.2399,-7.2101,-7.1881,-7.1102,-7.0871,-7.0805,-7.0805,-7.0805,-7.0805,-7.0805,-7.0805,-7.0343,-6.8756,-6.8333,-6.7871,-6.6244,-6.5897,-6.5897,-6.5897,-6.5897,-6.5897,-6.5897,-6.5897,-6.5897,-6.5897,-6.5897,-6.559,-6.4782,-6.5397,-6.5282,-6.3628,-6.4128,-6.4282,-6.3435,-6.2589,-6.2089,-6.2089,-6.1388,-6.0979,-6.0979,-6.1186,-6.1277,-6.1277,-6.1277,-6.1354,-6.1498,-6.1498,-6.1568,-6.1679,-6.1568,-6.1573,3.8658,4.1001,4.443,4.9221,4.9412,4.8681,4.9883,5.053,4.9264,4.3907,4.041,3.7067,3.3016,2.8628,2.702,3.1321,2.7038,2.4112,2.7018,2.0382,1.3274,0.8024,-0.0428,-1.036,-2.1739,-2.8001,-3.4274,-4.144,-4.8345,-5.3777,-5.7221,-5.9276,-6.1823,-6.5004,-6.5993,-6.7654,-7.0095,-7.0266,-7.0298,-7.0298,-7.0298,-7.0869,-7.186,-7.2322,-7.2717,-7.3111,-7.4447,-7.487,-7.4657,-7.5135,-7.5306,-7.5271,-7.4866,-7.471,-7.4634,-7.4028,-7.3533,-7.2983,-7.1977,-7.1743,-7.1854,-7.1391,-7.0707,-7.0079,-7.0238,-7.0026,-6.9701,-6.9701,-6.9701,-6.9701,-6.9701,-6.9283,-6.8633,-6.7948,-6.7355,-6.6719,-6.6038,-6.5897,-6.5897,-6.5897,-6.5897,-6.5897,-6.5897,-6.5897,-6.5897,-6.5897,-6.5897,-6.582,-6.559,-6.5743,-6.5743,-6.5282,-6.4859,-6.4512,-6.4282,-6.2935,-6.2089,-6.2089,-6.1312,-6.0856,-6.0856,-6.1,-6.1081,-6.1081,-6.1227,-6.1301,-6.1344,-6.1344,-6.1364,-6.1392,-6.1354,-6.1364,3.9815,4.2104,4.5142,4.7715,4.788,4.7243,4.6242,4.6201,4.4579,3.8889,3.5758,3.2916,2.8785,2.5006,2.4136,2.8799,2.4828,2.2591,2.6959,1.8275,0.9534,0.4717,-0.432,-1.3932,-2.3338,-2.855,-3.4142,-4.1031,-4.6712,-5.1732,-5.5923,-5.7431,-5.9885,-6.3802,-6.4967,-6.6874,-6.97,-6.9738,-6.9738,-6.9738,-7.0118,-7.0492,-7.0959,-7.1723,-7.1693,-7.1169,-7.3105,-7.3563,-7.2998,-7.422,-7.4749,-7.4749,-7.4422,-7.4293,-7.4255,-7.3727,-7.3257,-7.2623,-7.1511,-7.0901,-7.0608,-7.0293,-6.9775,-6.9353,-6.9664,-6.955,-6.9313,-6.9313,-6.9313,-6.9313,-6.9313,-6.8671,-6.7959,-6.7388,-6.6625,-6.5965,-6.5609,-6.5542,-6.5635,-6.5833,-6.5897,-6.5897,-6.5897,-6.5897,-6.5897,-6.5897,-6.5897,-6.5897,-6.5897,-6.5897,-6.5897,-6.5897,-6.5474,-6.5166,-6.5166,-6.3974,-6.3012,-6.2666,-6.182,-6.1204,-6.0819,-6.086,-6.0905,-6.0905,-6.1018,-6.112,-6.1172,-6.1172,-6.1214,-6.1289,-6.1214,-6.1214,4.1425,4.3919,4.5699,4.5556,4.6699,4.6728,4.2793,4.1302,3.9432,3.467,3.3046,3.13,2.7359,2.5742,2.5713,2.8238,2.6065,2.4828,2.6983,1.891,0.9534,0.104,-0.9976,-1.9495,-2.5943,-3.0142,-3.5176,-4.1558,-4.4908,-4.8954,-5.4146,-5.5127,-5.7798,-6.281,-6.429,-6.6271,-6.9064,-6.9148,-6.919,-6.919,-6.9905,-6.9909,-6.935,-7.0822,-6.9863,-6.731,-7.1148,-7.1595,-6.9828,-7.2905,-7.4161,-7.4161,-7.4072,-7.4072,-7.4072,-7.3959,-7.3439,-7.2573,-7.1702,-7.0563,-6.95,-6.9332,-6.919,-6.9106,-6.919,-6.9148,-6.9106,-6.9106,-6.9106,-6.9106,-6.9106,-6.8504,-6.7717,-6.6892,-6.6103,-6.5389,-6.509,-6.5035,-6.513,-6.5635,-6.5755,-6.5808,-6.5808,-6.5833,-6.5897,-6.5897,-6.5897,-6.5897,-6.5897,-6.5897,-6.5897,-6.5897,-6.5897,-6.5897,-6.5897,-6.5089,-6.4243,-6.3358,-6.2551,-6.1704,-6.0819,-6.0781,-6.0781,-6.0781,-6.0781,-6.0877,-6.0961,-6.0961,-6.1048,-6.1214,-6.1048,-6.1065,4.0779,4.2281,4.4438,4.554,4.5616,4.4739,4.2635,4.0846,3.8021,3.1687,2.9066,2.742,2.5605,2.4053,2.3913,2.6911,2.4118,2.1382,2.0989,1.5999,0.8734,-0.115,-1.1928,-2.0603,-2.6002,-2.931,-3.3799,-4.0164,-4.4573,-4.923,-5.4274,-5.6179,-5.9147,-6.3639,-6.5131,-6.6522,-6.7945,-6.8416,-6.8614,-6.8614,-6.8763,-6.8997,-6.9313,-6.9614,-7.0139,-7.0889,-7.169,-7.2515,-7.337,-7.3522,-7.359,-7.3541,-7.2997,-7.2816,-7.2743,-7.2078,-7.1547,-7.1093,-6.985,-6.9137,-6.8754,-6.9143,-6.8705,-6.8047,-6.8511,-6.8357,-6.7982,-6.7982,-6.7982,-6.7982,-6.7982,-6.7391,-6.6692,-6.6238,-6.5515,-6.4865,-6.4596,-6.4518,-6.4518,-6.4664,-6.4971,-6.5261,-6.5261,-6.5597,-6.5897,-6.5897,-6.5897,-6.5897,-6.5897,-6.5897,-6.5897,-6.5897,-6.5897,-6.5897,-6.5897,-6.5089,-6.4243,-6.3358,-6.2551,-6.1704,-6.0819,-6.0781,-6.0781,-6.0781,-6.0781,-6.0804,-6.0834,-6.0834,-6.0856,-6.0899,-6.0856,-6.0856,4.0529,4.223,4.468,4.4722,4.43,4.2625,3.7648,3.5585,3.2751,2.6027,2.403,2.3054,2.1848,2.0832,2.1338,2.4808,2.1655,1.8939,1.9352,1.484,0.7619,-0.2484,-0.9837,-1.6865,-2.361,-2.7149,-3.2007,-3.9353,-4.3518,-4.7657,-5.2387,-5.5719,-5.9115,-6.2599,-6.3753,-6.5171,-6.7024,-6.7287,-6.7626,-6.8097,-6.849,-6.884,-6.9097,-6.9097,-6.999,-7.1516,-7.1107,-7.0933,-7.0958,-7.2347,-7.1944,-7.056,-7.1968,-7.2496,-7.2422,-7.1615,-7.125,-7.0914,-6.9412,-6.882,-6.8703,-6.8517,-6.8148,-6.7741,-6.8033,-6.7878,-6.7687,-6.7687,-6.7393,-6.7063,-6.7063,-6.6145,-6.522,-6.5041,-6.4596,-6.4122,-6.4009,-6.4178,-6.437,-6.437,-6.459,-6.4731,-6.4731,-6.4938,-6.5137,-6.5137,-6.5329,-6.5475,-6.5475,-6.5475,-6.5569,-6.5872,-6.5897,-6.5897,-6.5897,-6.5513,-6.4897,-6.4051,-6.3628,-6.282,-6.1512,-6.1473,-6.1243,-6.0819,-6.0781,-6.0781,-6.0781,-6.0781,-6.0781,-6.0781,-6.0781,-6.0781,4.101,4.3244,4.5469,4.4062,4.332,4.1113,3.3861,3.1084,2.8473,2.261,2.0847,2.0229,1.9494,1.9062,1.9789,2.2741,1.9507,1.7019,1.8036,1.3847,0.6853,-0.3439,-0.875,-1.4491,-2.1874,-2.6067,-3.1465,-3.8919,-4.2783,-4.6897,-5.1334,-5.5165,-5.8579,-6.1398,-6.2147,-6.3634,-6.6089,-6.6125,-6.6427,-6.7137,-6.7943,-6.8457,-6.864,-6.866,-6.9633,-7.1284,-7.044,-6.91,-6.7799,-7.1118,-7.0531,-6.7872,-7.1191,-7.2496,-7.2422,-7.1798,-7.1358,-7.0881,-6.9596,-6.8935,-6.8531,-6.7907,-6.7687,-6.7687,-6.7687,-6.7687,-6.7687,-6.7687,-6.71,-6.6512,-6.6512,-6.5411,-6.431,-6.4127,-6.3748,-6.3408,-6.3408,-6.3766,-6.4059,-6.4059,-6.4138,-6.4217,-6.4217,-6.4294,-6.437,-6.437,-6.4696,-6.4932,-6.4932,-6.4932,-6.5099,-6.5542,-6.5663,-6.5781,-6.5897,-6.5897,-6.5513,-6.4666,-6.4589,-6.3935,-6.2397,-6.2166,-6.1781,-6.1089,-6.0896,-6.0781,-6.0781,-6.0781,-6.0781,-6.0781,-6.0781,-6.0781,4.3721,4.541,4.584,4.4141,4.3086,4.1133,3.6042,3.2369,2.9046,2.5577,2.274,2.1026,2.1794,2.1623,2.1417,2.1452,1.8077,1.5173,1.4297,1.2391,0.6923,-0.4782,-1.3015,-1.9246,-2.3158,-2.8129,-3.3328,-3.8618,-4.383,-4.901,-5.402,-5.5585,-5.7909,-6.1398,-6.1571,-6.2748,-6.5131,-6.5131,-6.5196,-6.5261,-6.6197,-6.6993,-6.774,-6.778,-6.9082,-7.1284,-7.044,-6.8989,-6.7429,-7.1024,-7.0417,-6.7502,-7.1097,-7.2496,-7.2496,-7.2422,-7.1468,-7.0183,-7.0036,-6.9009,-6.7797,-6.7724,-6.7687,-6.7687,-6.7687,-6.7687,-6.7687,-6.7687,-6.71,-6.6512,-6.6512,-6.5852,-6.5007,-6.4273,-6.3479,-6.2904,-6.2904,-6.2917,-6.2917,-6.2917,-6.3317,-6.368,-6.368,-6.4096,-6.437,-6.437,-6.4407,-6.4444,-6.4444,-6.4444,-6.4481,-6.4518,-6.4938,-6.5388,-6.5872,-6.5897,-6.5513,-6.4666,-6.4589,-6.4166,-6.3243,-6.2474,-6.205,-6.1973,-6.1204,-6.0781,-6.0781,-6.0781,-6.0781,-6.0781,-6.0781,-6.0781,3.8861,4.2384,4.5508,4.3769,4.2871,4.0725,3.4599,3.1076,2.7813,2.346,2.0687,1.8966,1.9089,1.8499,1.7748,1.735,1.474,1.2946,1.3578,1.0298,0.5399,-0.1656,-1.1992,-1.9413,-2.1378,-2.5411,-3.1169,-3.8873,-4.3625,-4.8064,-5.2671,-5.4762,-5.7051,-5.9607,-6.0789,-6.232,-6.4218,-6.4218,-6.4495,-6.4999,-6.5361,-6.5982,-6.676,-6.6289,-6.7384,-6.9613,-6.8786,-6.6449,-6.3739,-6.9346,-6.8713,-6.4749,-7.0364,-7.2496,-7.2459,-7.1982,-7.1064,-7.0036,-6.9559,-6.8641,-6.7687,-6.7687,-6.7687,-6.7687,-6.7687,-6.7687,-6.7687,-6.7687,-6.71,-6.6402,-6.5888,-6.4787,-6.3723,-6.3392,-6.3062,-6.2805,-6.2805,-6.2805,-6.2805,-6.2805,-6.2965,-6.3121,-6.3121,-6.3271,-6.3453,-6.3453,-6.3723,-6.3934,-6.3934,-6.3934,-6.4019,-6.437,-6.4554,-6.4769,-6.4971,-6.5261,-6.5264,-6.492,-6.5217,-6.4974,-6.4128,-6.3782,-6.3358,-6.282,-6.2474,-6.205,-6.1589,-6.1589,-6.132,-6.0781,-6.0781,-6.0781,3.5943,4.0276,4.4746,4.3262,4.1814,3.9125,3.2726,2.9097,2.5708,2.0909,1.8686,1.74,1.6733,1.5595,1.4573,1.4431,1.1933,1.0509,1.1858,0.7561,0.2541,-0.2239,-1.1307,-1.799,-2.0329,-2.5309,-3.154,-3.9216,-4.3063,-4.6763,-5.0679,-5.3653,-5.624,-5.8708,-6.0031,-6.1612,-6.3314,-6.3314,-6.3647,-6.4218,-6.446,-6.4667,-6.4841,-6.5149,-6.6132,-6.7649,-6.7619,-6.5424,-6.2328,-6.8249,-6.7609,-6.3473,-6.9682,-7.2071,-7.2057,-7.1464,-7.0807,-6.9963,-6.9192,-6.8385,-6.7687,-6.7687,-6.7687,-6.7687,-6.7687,-6.7687,-6.7687,-6.7687,-6.71,-6.6219,-6.4897,-6.3906,-6.3135,-6.2879,-6.2805,-6.2805,-6.2805,-6.2805,-6.2805,-6.2805,-6.2805,-6.2805,-6.2805,-6.2805,-6.2805,-6.2805,-6.3121,-6.3363,-6.3363,-6.3363,-6.3543,-6.3892,-6.3934,-6.4059,-6.437,-6.4696,-6.4866,-6.4866,-6.5388,-6.5394,-6.478,-6.4654,-6.432,-6.3705,-6.3205,-6.2666,-6.2089,-6.182,-6.1396,-6.0781,-6.0781,-6.0781,3.6979,4.0627,4.3516,4.2656,3.9719,3.5859,3.0893,2.6902,2.2999,1.8832,1.7666,1.7059,1.5871,1.4213,1.3211,1.374,1.0357,0.7802,0.8242,0.3975,-0.1781,-0.8539,-1.1763,-1.5578,-2.09,-2.9527,-3.6213,-3.9432,-4.2399,-4.552,-4.8755,-5.202,-5.5565,-5.9383,-5.9498,-6.047,-6.2381,-6.2381,-6.2381,-6.2459,-6.3314,-6.2993,-6.1779,-6.4738,-6.5743,-6.5374,-6.7581,-6.6848,-6.4568,-6.8223,-6.7588,-6.4708,-6.9281,-7.1095,-7.1115,-7.1253,-7.0807,-6.9963,-6.9192,-6.8385,-6.7687,-6.7687,-6.7687,-6.7687,-6.7687,-6.7687,-6.7687,-6.7687,-6.71,-6.5925,-6.3466,-6.3466,-6.387,-6.3025,-6.2805,-6.2805,-6.2805,-6.2805,-6.2805,-6.2805,-6.2805,-6.2805,-6.2805,-6.2805,-6.2805,-6.2805,-6.2805,-6.2805,-6.2805,-6.2805,-6.2805,-6.2805,-6.2805,-6.3262,-6.4294,-6.4407,-6.4407,-6.4407,-6.4833,-6.5099,-6.5099,-6.4792,-6.4589,-6.4589,-6.2974,-6.2089,-6.2089,-6.1243,-6.0819,-6.0781,-6.0781,-6.0781,3.1011,3.4115,3.6482,3.4587,3.3291,3.1212,2.6215,2.3208,2.0758,1.7939,1.6189,1.5185,1.5141,1.3508,1.2112,1.2221,0.9792,0.7025,0.4714,0.0549,-0.3801,-0.8159,-1.3542,-1.9621,-2.6413,-2.9919,-3.3979,-3.9286,-4.1798,-4.4505,-4.7851,-5.0946,-5.3991,-5.701,-5.8382,-5.9728,-6.1119,-6.1152,-6.1595,-6.2381,-6.2659,-6.1797,-5.9921,-6.2987,-6.3686,-6.2729,-6.5405,-6.5336,-6.3555,-6.7203,-6.6942,-6.4673,-6.8643,-7.0127,-7.0089,-6.9639,-6.9336,-6.8947,-6.7528,-6.6956,-6.6794,-6.6794,-6.6794,-6.691,-6.7488,-6.7687,-6.7577,-6.7026,-6.5888,-6.4677,-6.3906,-6.3466,-6.3135,-6.2879,-6.2805,-6.2805,-6.2805,-6.2805,-6.2805,-6.2805,-6.2805,-6.2805,-6.2805,-6.2805,-6.2805,-6.2805,-6.2805,-6.2805,-6.2805,-6.2805,-6.2805,-6.2805,-6.2805,-6.2917,-6.3271,-6.3637,-6.385,-6.385,-6.4332,-6.4626,-6.4626,-6.4537,-6.4622,-6.4938,-6.4403,-6.374,-6.2935,-6.2627,-6.1935,-6.0781,-6.0781,-6.0781,2.6964,2.9708,3.1932,3.0056,2.8629,2.6668,2.3052,2.0345,1.8117,1.6237,1.5459,1.4748,1.3923,1.2654,1.1458,1.033,0.9016,0.685,0.3175,-0.1228,-0.5474,-0.9402,-1.5086,-2.1495,-2.8021,-2.9676,-3.2781,-3.8828,-4.0935,-4.3462,-4.6785,-4.9361,-5.1986,-5.4767,-5.6996,-5.8722,-5.987,-5.987,-6.0332,-6.1036,-6.1781,-6.0906,-5.8863,-6.2662,-6.3362,-6.1873,-6.4816,-6.5406,0.0,-6.6748,-6.672,-6.551,-6.8173,-6.9095,-6.9027,-6.8399,-6.8101,-6.7962,-6.6297,-6.5818,-6.5842,-6.5842,-6.5842,-6.5966,-6.6546,-6.7137,-6.7467,-6.6366,-6.5521,-6.4787,-6.3833,-6.3466,-6.3209,-6.2879,-6.2805,-6.2805,-6.2805,-6.2805,-6.2805,-6.2805,-6.2805,-6.2805,-6.2805,-6.2805,-6.2805,-6.2805,-6.2805,-6.2805,-6.2805,-6.2805,-6.2805,-6.2805,-6.2805,-6.2805,-6.2805,-6.311,-6.3308,-6.3308,-6.3808,-6.4099,-6.4099,-6.4294,-6.4518,-6.4833,-6.4529,-6.3829,-6.2768,-6.2295,-6.1659,-6.0781,-6.0781,-6.0973,0.0,2.6867,2.8845,2.791,2.498,2.2141,2.0739,1.7994,0.0,1.4261,1.5199,1.5307,1.2361,1.2081,1.1237,0.8258,0.8055,0.6924,0.3107,-0.1976,-0.7137,-1.2246,-1.6564,-2.133,-2.6728,-2.9151,-3.2663,-3.8179,-4.0148,-4.2511,-4.5665,-4.7574,-4.9816,-5.2701,-5.5391,-5.7433,-5.8632,-5.8632,-5.8627,-5.8524,-6.0576,-6.0271,-5.7953,-6.3165,-6.4295,-6.237,-6.5425,-6.6779,-6.6812,-6.6812,-6.6812,-6.6896,-6.7787,-6.8111,-6.7946,-6.7304,-6.7127,-6.688,-6.5329,-6.4866,-6.4933,-6.4933,-6.4933,-6.4999,-6.4999,-6.6139,-6.712,-6.56,-6.5689,-6.5705,-6.3429,-6.3392,-6.3796,-6.2989,-6.2805,-6.2805,-6.2805,-6.2805,-6.2805,-6.2805,-6.2805,-6.2805,-6.2805,-6.2805,-6.2805,-6.2805,-6.2805,-6.2805,-6.2805,-6.2805,-6.2805,-6.2805,-6.2805,-6.2805,-6.2805,-6.2805,-6.2805,-6.2805,-6.3262,-6.3543,-6.3543,-6.4019,-6.4294,-6.4332,-6.3502,-6.271,-6.1917,-6.0773,-6.0436,-6.0786,-6.0887,-6.1373,1.8731,0.0,2.1319,1.9626,1.8373,1.7219,0.0,1.4938,1.4545,1.6103,1.5205,1.4093,1.4192,1.2696,1.1009,1.0074,0.6553,0.3914,0.4015,-0.3293,-1.037,-1.5045,-1.7494,-2.1491,-2.79,-2.9609,-3.2663,-3.8179,-4.0148,-4.2234,-4.478,-4.7598,-4.9488,-5.0155,-5.3514,-5.5957,-5.7465,-5.7434,-5.6888,-5.575,-5.8815,-5.7775,-5.3341,-6.0238,-6.2179,-6.0373,-6.4285,-6.6271,-6.6812,-6.6812,-6.6812,-6.6812,-6.7029,-6.6821,-6.6174,-6.546,-6.5324,-6.5152,-6.3549,-6.3427,-6.4042,-6.4042,-6.4495,-6.4999,-6.4999,-6.4885,-6.4685,-6.4323,-6.3965,-6.3539,-6.2952,-6.2952,-6.3062,-6.2879,-6.2805,-6.2805,-6.2805,-6.2805,-6.2805,-6.2805,-6.2805,-6.2805,-6.2805,-6.2805,-6.2805,-6.2805,-6.2805,-6.2805,-6.2805,-6.2805,-6.2805,-6.2805,-6.2805,-6.2805,-6.2805,-6.2805,-6.2805,-6.2805,-6.2953,-6.2965,-6.2965,-6.3121,-6.3363,-6.3766,-6.3349,-6.271,-6.1917,-6.1536,-6.1149,-6.0676,-6.1713,-6.228,1.6031,1.6703,1.7702,1.7277,1.6102,1.5221,1.5513,1.4702,1.4213,1.5515,1.4799,1.3689,1.2656,1.1526,1.0175,0.8535,0.4514,0.0775,-0.1341,-0.7463,-1.2955,-1.6363,-1.8191,-2.1317,-2.7102,-2.9265,-3.1983,-3.5879,-3.8744,-4.1239,-4.3345,-4.5942,-4.816,-4.9653,-5.168,-5.349,-5.52,-5.6161,-5.562,-5.3632,-5.7336,-5.6951,-5.3313,-5.925,-6.1545,-6.1099,-6.1667,-6.3618,-6.6203,-6.457,-6.5091,-6.6779,-6.644,-6.6034,-6.5561,-6.4478,-6.4121,-6.4076,-6.2853,-6.2736,-6.3124,-6.3124,-6.3427,-6.3829,-6.3829,-6.3517,-6.3286,-6.3367,-6.3069,-6.271,-6.2348,-6.2271,-6.2324,-6.2705,-6.2805,-6.2805,-6.2805,-6.2805,-6.2805,-6.2805,-6.2805,-6.2805,-6.2805,-6.2805,-6.2805,-6.2805,-6.2805,-6.2805,-6.2805,-6.2805,-6.2805,-6.2805,-6.2805,-6.2805,-6.2805,-6.2805,-6.2805,-6.2805,-6.2805,-6.2805,-6.2805,-6.2805,-6.2917,-6.3215,-6.2724,-6.2272,-6.2066,-6.1691,-6.1394,-6.1164,-6.1902,-6.2454,1.4862,1.5282,1.6332,1.7657,1.6057,1.4669,1.6606,1.5454,1.3971,1.4211,1.4279,1.3441,1.0531,1.0349,0.9412,0.5965,0.1871,-0.2709,-0.8347,-1.1667,-1.4382,-1.658,-1.8411,-2.1294,-2.5766,-2.8739,-3.1192,-3.3103,-3.6992,-4.0137,-4.2122,-4.4254,-4.6802,-4.9923,-5.0364,-5.1107,-5.2579,-5.4785,-5.4708,-5.2247,-5.6189,-5.6954,-5.4946,-5.8938,-6.1359,-6.2068,-5.9372,-6.0981,-6.521,-6.2379,-6.3415,-6.6745,-6.5967,-6.5628,-6.5358,-6.4005,-6.3429,-6.326,-6.2618,-6.2381,-6.2381,-6.2381,-6.2381,-6.2381,-6.2381,-6.2385,-6.2366,-6.2498,-6.2576,-6.2533,-6.1659,-6.1508,-6.1748,-6.2464,-6.2618,-6.2618,-6.2755,-6.2805,-6.2805,-6.2805,-6.2805,-6.2805,-6.2805,-6.2805,-6.2805,-6.2805,-6.2805,-6.2805,-6.2805,-6.2805,-6.2805,-6.2805,-6.2805,-6.2805,-6.2805,-6.2805,-6.2805,-6.2805,-6.2805,-6.2805,-6.2805,-6.2805,-6.2805,-6.2805,-6.2144,-6.1908,-6.219,-6.1633,-6.1517,-6.1768,-6.1958,-6.2485,1.4024,1.4352,1.5155,1.6877,1.5581,1.4234,1.572,1.4395,1.3315,1.5115,1.3927,1.2531,1.2262,1.2233,1.0922,0.6198,-0.1584,-0.7774,-0.9671,-1.0822,-1.2748,-1.6705,-1.8336,-2.098,-2.607,-2.8866,-3.1294,-3.3498,-3.7171,-4.0415,-4.3085,-4.4976,-4.6876,-4.8989,-5.0747,-5.1387,-5.0693,-5.35,-5.4036,-5.2247,-5.6191,-5.6474,-5.3652,-5.806,-5.9929,-5.969,-6.0771,-6.236,-6.42,-6.4189,-6.5234,-6.6745,-6.5967,-6.5324,-6.4681,-6.3835,-6.3125,-6.255,-6.2415,-6.2381,-6.2381,-6.2381,-6.2381,-6.2381,-6.2381,-6.1951,-6.1461,-6.1476,-6.2057,-6.2344,-6.0909,-6.1077,-6.1579,-6.1748,-6.177,-6.1969,-6.2618,-6.2805,-6.2805,-6.2805,-6.2805,-6.2805,-6.2805,-6.2805,-6.2805,-6.2805,-6.2805,-6.2805,-6.2805,-6.2805,-6.2805,-6.2805,-6.2805,-6.2805,-6.2805,-6.2805,-6.2805,-6.2805,-6.2805,-6.2805,-6.2805,-6.2805,-6.2805,-6.2805,-6.2695,-6.2341,-6.1702,-6.2291,-6.2229,-6.1661,-6.2792,-6.3425,1.3152,1.3321,1.4107,1.597,1.4991,1.4144,1.6136,1.4098,1.2299,1.4305,1.2335,1.0475,1.1417,1.0034,0.7748,0.4445,-0.2471,-0.8144,-0.9871,-1.1428,-1.3665,-1.7262,-1.855,-2.0785,-2.4856,-2.8644,-3.1404,-3.244,-3.6246,-3.9938,-4.3219,-4.4435,-4.6224,-4.9085,-5.0181,-5.0628,-5.0601,-5.2425,-5.2883,-5.2017,-5.4961,-5.544,-5.3832,-5.696,-5.8644,-5.8944,-5.799,-5.9538,-6.2691,-6.1096,-6.2558,-6.5634,-6.4533,-6.4271,-6.4478,-6.3328,-6.2685,-6.2381,-6.2381,-6.2381,-6.2381,-6.2381,-6.2381,-6.2381,-6.2381,-6.2144,-6.1704,-6.0892,-6.0681,-6.0635,-6.0412,-6.0264,-6.0317,-6.0831,-6.0938,-6.1055,-6.1436,-6.1492,-6.1604,-6.2076,-6.2129,-6.2271,-6.2755,-6.2805,-6.2805,-6.2805,-6.2805,-6.2805,-6.2805,-6.2805,-6.2805,-6.2805,-6.2805,-6.2805,-6.2805,-6.2805,-6.2805,-6.2805,-6.2805,-6.2805,-6.2805,-6.2805,-6.2805,-6.2805,-6.2805,-6.2622,-6.2254,-6.2622,-6.2622,-6.2254,-6.2878,-6.3168,1.2526,1.249,1.2861,1.4304,1.3706,1.3565,1.6368,1.3654,1.1064,1.3148,1.0913,0.9105,1.0455,0.7224,0.3457,0.0851,-0.4039,-0.8323,-1.0588,-1.28,-1.5343,-1.8106,-1.9605,-2.1429,-2.4314,-2.878,-3.1416,-3.1515,-3.5502,-3.9333,-4.2875,-4.364,-4.5615,-4.8893,-4.9332,-5.0003,-5.0617,-5.1158,-5.1707,-5.2209,-5.4271,-5.5089,-5.4849,-5.678,-5.7945,-5.8561,-5.613,-5.7505,-6.1313,-5.8782,-6.0259,-6.4145,-6.3078,-6.3282,-6.3937,-6.2821,-6.2381,-6.2381,-6.2381,-6.2381,-6.2381,-6.2381,-6.2381,-6.2381,-6.2381,-6.2144,-6.1637,-6.0655,-5.9607,-5.8875,-5.9596,-5.9392,-5.9218,-5.9931,-6.0086,-6.0149,-6.0371,-6.0397,-6.058,-6.1171,-6.1286,-6.1548,-6.2166,-6.2219,-6.2219,-6.2219,-6.2412,-6.2464,-6.2271,-6.2567,-6.2755,-6.2515,-6.2705,-6.2805,-6.2805,-6.2805,-6.2805,-6.2805,-6.2805,-6.2805,-6.2805,-6.2805,-6.2805,-6.2805,-6.2805,-6.2805,-6.2805,-6.2805,-6.2805,-6.2805,-6.2805,-6.2805,1.2245,1.172,1.1143,1.1135,1.1063,1.1823,1.5291,1.2307,0.9627,1.225,1.0996,0.963,1.0785,0.5465,-0.0576,-0.531,-0.8243,-1.0708,-1.2801,-1.4967,-1.7214,-1.9483,-2.1375,-2.3441,-2.567,-2.9183,-3.1531,-3.1894,-3.5668,-3.8926,-4.1263,-4.3127,-4.505,-4.6955,-4.8763,-4.9565,-4.9643,-4.9694,-5.0877,-5.3315,-5.5538,-5.6534,-5.6615,-5.8178,-5.862,-5.8158,-5.8607,-5.9227,-6.026,-6.0563,-6.1298,-6.2231,-6.2615,-6.2682,-6.255,-6.2415,-6.2381,-6.2381,-6.2381,-6.2381,-6.2381,-6.2381,-6.2381,-6.2381,-6.2381,-6.14,-6.0385,-6.1028,-5.9641,-5.7949,-5.8022,-5.8496,-5.906,-5.9149,-5.9178,-5.9443,-6.0211,-6.0397,-6.0397,-6.0458,-6.0494,-6.0519,-6.0519,-6.058,-6.058,-6.058,-6.1171,-6.1436,-6.064,-6.186,-6.2515,-6.177,-6.2324,-6.2805,-6.2805,-6.2805,-6.2805,-6.2805,-6.2805,-6.2805,-6.2805,-6.2805,-6.2805,-6.2805,-6.2805,-6.2805,-6.2805,-6.2805,-6.2805,-6.2805,-6.2805,-6.2805,1.0422,1.0023,1.0119,1.0498,0.9293,0.9061,1.2733,1.1116,0.9733,1.282,1.1504,0.8193,0.2918,-0.35,-0.808,-0.8008,-1.028,-1.2465,-1.3264,-1.5216,-1.7465,-1.9582,-2.1767,-2.4256,-2.7735,-3.051,-3.2742,-3.4075,-3.6807,-3.9226,-4.1184,-4.3127,-4.4914,-4.6798,-4.8608,-4.959,-4.959,-4.959,-5.0079,-5.1054,-5.2931,-5.4831,-5.6736,-5.7328,-5.8018,-5.874,-5.9009,-5.9242,-5.953,-5.9773,-6.024,-6.0795,-6.0977,-6.0662,-6.0161,-6.0161,-6.0619,-6.1317,-6.1317,-6.1756,-6.2381,-6.2381,-6.2381,-6.2313,-6.1839,-6.1637,-6.1298,-6.0182,-5.9573,-5.9167,-5.8693,-5.8457,-5.8293,-5.8314,-5.8388,-5.8458,-5.8772,-5.8841,-5.9011,-5.9509,-5.9574,-5.9768,-6.0273,-6.0397,-6.0397,-6.0397,-6.064,-6.076,-6.0397,-6.0938,-6.1207,-6.0879,-6.1604,-6.2271,-6.2755,-6.2805,-6.2805,-6.2805,-6.2805,-6.2805,-6.2805,-6.2805,-6.2805,-6.2805,-6.2805,-6.2805,-6.2805,-6.2805,-6.2805,-6.2805,-6.2805,-6.2805,0.9161,0.8582,0.8673,0.9563,0.7953,0.7173,1.095,0.9781,0.916,1.3284,1.2641,0.8179,-0.2653,-0.8527,-1.1354,-0.9587,-1.1267,-1.284,-1.3258,-1.5859,-1.8281,-1.9745,-2.2338,-2.5212,-2.8218,-3.0977,-3.3095,-3.4451,-3.7051,-3.9136,-4.0371,-4.2731,-4.4641,-4.5862,-4.8347,-4.959,-4.959,-4.959,-4.959,-4.959,-5.0664,-5.27,-5.5299,-5.6251,-5.7328,-5.8386,-5.8882,-5.9099,-5.9099,-5.9099,-5.9379,-5.9663,-5.9223,-5.8956,-5.8812,-5.8812,-5.9346,-6.0075,-6.0501,-6.1119,-6.1837,-6.2302,-6.2245,-6.1941,-6.1467,-6.1298,-6.0994,-5.9438,-5.9201,-5.9302,-5.8795,-5.8287,-5.7881,-5.7881,-5.7881,-5.7881,-5.7881,-5.7881,-5.8065,-5.8633,-5.8737,-5.8943,-5.9543,-5.9609,-5.9609,-5.9609,-5.9832,-5.9896,-5.9639,-6.0086,-6.0397,-6.0397,-6.0879,-6.1436,-6.1969,-6.2023,-6.2166,-6.2412,-6.2427,-6.2515,-6.2805,-6.2805,-6.2805,-6.2805,-6.2805,-6.2805,-6.2805,-6.2805,-6.2805,-6.2805,-6.2805,-6.2805,0.8751,0.7618,0.6616,0.8016,0.6938,0.6634,1.0252,0.8207,0.7314,1.3109,1.4131,0.9884,-0.4197,-0.7672,-0.9041,-1.0644,-1.1016,-1.1609,-1.315,-1.7147,-1.9907,-1.9907,-2.3792,-2.6386,-2.6386,-3.0053,-3.2505,-3.2505,-3.6294,-3.8574,-3.8574,-4.2031,-4.4116,-4.4116,-4.7665,-4.959,-4.959,-4.959,-4.959,-4.959,-4.959,-5.0436,-5.2086,-5.5182,-5.6707,-5.682,-5.8386,-5.9099,-5.9099,-5.9099,-5.8971,-5.8752,-5.7518,-5.7714,-5.8722,-5.8722,-5.8812,-5.8992,-6.0161,-6.0586,-6.0787,-6.203,-6.1873,-6.1298,-6.1298,-6.0216,-5.9032,-5.8998,-5.8457,-5.7915,-5.7881,-5.7881,-5.7881,-5.7881,-5.7881,-5.7881,-5.7881,-5.7881,-5.7881,-5.7881,-5.7881,-5.7881,-5.7881,-5.7881,-5.7881,-5.7881,-5.8564,-5.8806,-5.8027,-5.9346,-6.0335,-6.0432,-6.0397,-6.0397,-6.0397,-6.0397,-6.076,-6.1548,-6.1604,-6.1969,-6.2755,-6.2805,-6.2805,-6.2805,-6.2805,-6.2805,-6.2805,-6.2805,-6.2805,-6.2805,-6.2805,-6.2805,0.8005,0.7165,0.6644,0.7888,0.8256,0.9028,1.2057,0.8031,0.5843,1.2774,0.6301,-0.1957,-0.6142,-1.0014,-1.2154,-1.1311,-1.2115,-1.3473,-1.5334,-1.8118,-2.0393,-2.2006,-2.4602,-2.7462,-3.0361,-3.1743,-3.3717,-3.659,-3.797,-3.8574,-3.8574,-4.0779,-4.2731,-4.4116,-4.6422,-4.8191,-4.959,-4.959,-4.959,-4.959,-4.959,-5.0436,-5.1962,-5.2917,-5.4373,-5.6131,-5.7013,-5.779,-5.8381,-5.7902,-5.7393,-5.693,-5.6083,-5.5918,-5.628,-5.628,-5.6831,-5.7621,-5.7993,-5.86,-5.9522,-6.0787,-6.0621,-6.0118,-6.0358,-6.0148,-5.9573,-5.8524,-5.8457,-5.8558,-5.8017,-5.7881,-5.7881,-5.7881,-5.7881,-5.7881,-5.7881,-5.7881,-5.7881,-5.7881,-5.7881,-5.7881,-5.7881,-5.7881,-5.7881,-5.7881,-5.8065,-5.8209,-5.7954,-5.8317,-5.8841,-5.9443,-5.9509,-5.9768,-6.0335,-6.0397,-6.0519,-6.076,-6.076,-6.1379,-6.2755,-6.2805,-6.2805,-6.2805,-6.2805,-6.2805,-6.2805,-6.2805,-6.2805,-6.2805,-6.2805,-6.2805,0.719,0.657,0.5966,0.6004,0.6881,0.8173,0.9844,0.5791,0.2013,0.2853,-0.3901,-0.9883,-0.9807,-1.2044,-1.3519,-1.2404,-1.3596,-1.5142,-1.65,-1.9248,-2.1684,-2.298,-2.5092,-2.7619,-3.0977,-3.2048,-3.3868,-3.7179,-3.8117,-3.8574,-3.8574,-4.0371,-4.2171,-4.4116,-4.5862,-4.7641,-4.959,-4.959,-4.959,-4.959,-4.959,-4.9952,-5.0805,-5.1399,-5.2634,-5.4302,-5.5709,-5.6968,-5.8052,-5.7124,-5.6496,-5.6107,-5.5448,-5.5179,-5.5179,-5.5179,-5.5651,-5.6347,-5.68,-5.7434,-5.8205,-5.9166,-5.9296,-5.8987,-5.9042,-5.9136,-5.9032,-5.8152,-5.822,-5.8457,-5.8017,-5.7881,-5.7881,-5.7881,-5.7881,-5.7881,-5.7881,-5.7881,-5.7881,-5.7881,-5.7881,-5.7881,-5.7881,-5.7881,-5.7881,-5.7881,-5.7881,-5.7881,-5.7881,-5.7881,-5.8065,-5.8564,-5.8633,-5.8806,-5.9346,-5.9412,-5.9509,-5.9832,-5.9896,-6.0458,-6.1806,-6.186,-6.1969,-6.2324,-6.2324,-6.2515,-6.2805,-6.2805,-6.2805,-6.2805,-6.2805,-6.2989,0.6368,0.5683,0.48,0.3378,0.4485,0.5973,0.5096,0.1655,-0.3784,-1.2529,-1.4202,-1.3945,-1.3988,-1.384,-1.368,-1.3675,-1.5324,-1.6664,-1.6811,-2.0544,-2.314,-2.33,-2.5251,-2.7305,-2.9449,-3.1437,-3.3398,-3.5664,-3.7492,-3.8574,-3.8574,-4.0085,-4.189,-4.3841,-4.5592,-4.7509,-4.9307,-4.9461,-4.9565,-4.9515,-4.9515,-4.9264,-4.8888,-5.0364,-5.1338,-5.2103,-5.4512,-5.6413,-5.763,-5.6645,-5.6137,-5.6017,-5.5418,-5.5179,-5.5179,-5.5179,-5.5179,-5.5381,-5.6445,-5.6769,-5.6869,-5.7412,-5.7732,-5.7822,-5.7394,-5.7486,-5.7735,-5.7735,-5.7808,-5.7881,-5.7881,-5.7881,-5.7881,-5.7881,-5.7881,-5.7881,-5.7881,-5.7881,-5.7881,-5.7881,-5.7881,-5.7881,-5.7881,-5.7881,-5.7881,-5.7881,-5.7881,-5.7881,-5.7881,-5.7881,-5.7881,-5.7881,-5.7881,-5.7881,-5.7881,-5.7881,-5.8174,-5.8943,-5.8976,-5.9311,-6.0149,-6.0273,-6.076,-6.1492,-6.1492,-6.186,-6.2567,-6.2618,-6.2705,-6.2705,-6.2755,-6.3282,0.7046,0.514,0.3325,0.4565,0.8274,0.9838,0.2724,-0.5215,-1.1836,-1.3907,-1.2815,-1.2113,-1.3846,-1.4156,-1.398,-1.3824,-1.5501,-1.7312,-1.8952,-2.1523,-2.378,-2.5409,-2.607,-2.7762,-3.1437,-3.2201,-3.4018,-3.7658,-3.8409,-3.8574,-3.8574,-3.8991,-3.9962,-4.189,-4.368,-4.5592,-4.7353,-4.8893,-4.9389,-4.8962,-4.8962,-4.8887,-4.8786,-4.9571,-5.043,-5.1467,-5.3388,-5.4504,-5.4934,-5.5812,-5.5867,-5.5388,-5.5239,-5.5179,-5.5179,-5.5179,-5.5179,-5.5179,-5.5451,-5.5219,-5.5031,-5.603,-5.5649,-5.497,-5.5794,-5.6319,-5.6547,-5.6547,-5.7222,-5.7881,-5.7881,-5.7881,-5.7881,-5.7881,-5.7881,-5.7881,-5.7881,-5.7881,-5.7881,-5.7881,-5.7881,-5.7881,-5.7881,-5.7881,-5.7881,-5.7881,-5.7881,-5.7881,-5.7881,-5.7881,-5.7881,-5.7881,-5.7881,-5.7881,-5.7881,-5.7881,-5.7954,-5.8137,-5.8137,-5.828,-5.8458,-5.9704,-6.0458,-6.064,-6.064,-6.076,-6.0879,-6.1548,-6.1824,-6.1879,-6.2515,-6.3282,0.6302,0.4969,0.3646,0.303,0.4898,0.4675,-0.4339,-1.0267,-1.3881,-1.4071,-1.3165,-1.2834,-1.4075,-1.4129,-1.3933,-1.3851,-1.6316,-1.873,-1.9765,-2.2659,-2.5092,-2.6228,-2.6386,-2.8076,-3.2048,-3.2505,-3.4169,-3.8263,-3.8574,-3.8574,-3.8574,-3.8574,-3.9405,-4.1184,-4.3127,-4.4914,-4.6798,-4.8608,-4.9314,-4.8761,-4.8761,-4.8636,-4.8385,-4.8937,-4.9691,-5.0486,-5.1331,-5.2489,-5.3934,-5.4475,-5.4835,-5.5179,-5.5179,-5.5179,-5.5179,-5.5179,-5.5179,-5.5179,-5.5179,-5.497,-5.465,-5.4613,-5.4575,-5.4386,-5.4323,-5.4877,-5.5538,-5.6047,-5.6624,-5.7222,-5.7808,-5.7881,-5.7881,-5.7881,-5.7881,-5.7881,-5.7881,-5.7881,-5.7881,-5.7881,-5.7881,-5.7881,-5.7881,-5.7881,-5.7881,-5.7881,-5.7881,-5.7881,-5.7881,-5.7881,-5.7881,-5.7881,-5.7881,-5.7881,-5.7881,-5.7881,-5.7881,-5.7881,-5.7881,-5.7881,-5.7881,-5.8703,-5.9412,-5.9768,-5.9768,-5.996,-6.0397,-6.082,-6.0997,-6.1055,-6.2259,-6.3238,0.5086,0.4625,0.3783,0.0755,-0.0795,-0.3742,-1.1578,-1.3301,-1.3283,-1.3675,-1.4,-1.4258,-1.4224,-1.3994,-1.3974,-1.4309,-1.7539,-2.0069,-2.0393,-2.3952,-2.6386,-2.6386,-2.6386,-2.8076,-3.2048,-3.2505,-3.4169,-3.8263,-3.8574,-3.8574,-3.8574,-3.8574,-3.9261,-4.0779,-4.301,-4.4778,-4.6264,-4.8379,-4.9163,-4.8611,-4.8535,-4.8184,-4.7657,-4.8234,-4.8676,-4.9049,-4.9153,-5.0553,-5.2977,-5.2951,-5.3727,-5.4845,-5.5078,-5.5179,-5.5179,-5.5179,-5.5179,-5.5179,-5.5179,-5.5029,-5.467,-5.3683,-5.3819,-5.4237,-5.3098,-5.3584,-5.4665,-5.541,-5.5777,-5.6126,-5.7072,-5.748,-5.7628,-5.7628,-5.7808,-5.7881,-5.7881,-5.7881,-5.7881,-5.7881,-5.7881,-5.7881,-5.7881,-5.7881,-5.7881,-5.7881,-5.7881,-5.7881,-5.7881,-5.7881,-5.7949,-5.8084,-5.8084,-5.8084,-5.8084,-5.8084,-5.8017,-5.7915,-5.8017,-5.8084,-5.8084,-5.8186,-5.8583,-5.9254,-5.9012,-5.9245,-5.996,-6.0086,-6.0219,-6.0458,-6.1891,-6.3149,0.4475,0.2781,0.0559,0.015,-0.4327,-0.9334,-1.2657,-1.2983,-1.2896,-1.3573,-1.3653,-1.3767,-1.3905,-1.377,-1.4323,-1.6141,-1.843,-2.0554,-2.2327,-2.4761,-2.6386,-2.6386,-2.6386,-2.8076,-3.2048,-3.2505,-3.4169,-3.8263,-3.8574,-3.8574,-3.8574,-3.8574,-3.872,-3.8991,-4.2312,-4.4253,-4.4505,-4.7491,-4.8586,-4.8008,-4.7556,-4.7054,-4.6552,-4.7104,-4.7378,-4.7445,-4.829,-4.8868,-4.9415,-5.2,-5.3069,-5.3413,-5.4743,-5.5179,-5.5179,-5.5179,-5.5179,-5.5179,-5.5179,-5.4431,-5.3503,-5.3952,-5.3361,-5.2562,-5.2382,-5.3101,-5.3912,-5.3496,-5.4084,-5.4838,-5.5002,-5.573,-5.6437,-5.6437,-5.7189,-5.7881,-5.7881,-5.7881,-5.7881,-5.7881,-5.7881,-5.7881,-5.7881,-5.7881,-5.7881,-5.7881,-5.7881,-5.7881,-5.7881,-5.7881,-5.8152,-5.8795,-5.8863,-5.8863,-5.8863,-5.8863,-5.8592,-5.7915,-5.849,-5.8863,-5.8863,-5.9471,-5.9885,-6.0001,-5.8744,-5.8137,-5.8209,-5.8943,-5.9592,-6.0354,-6.1242,-6.2867,0.2375,0.0126,-0.1748,-0.0309,-0.3625,-0.797,-1.154,-1.2411,-1.2496,-1.3403,-1.3573,-1.3661,-1.381,-1.3722,-1.4294,-1.6609,-1.8585,-2.0716,-2.282,-2.492,-2.6386,-2.6386,-2.6386,-2.8076,-3.2048,-3.2505,-3.4169,-3.8263,-3.8574,-3.8574,-3.8574,-3.8574,-3.8574,-3.8574,-4.2171,-4.4116,-4.4116,-4.7288,-4.8335,-4.7481,-4.6928,-4.6552,-4.6326,-4.6552,-4.6677,-4.6652,-4.7095,-4.7769,-4.8647,-4.9987,-5.0961,-5.1835,-5.3413,-5.3964,-5.4068,-5.4845,-5.5179,-5.5149,-5.476,-5.4251,-5.3743,-5.3653,-5.2995,-5.2187,-5.2187,-5.2296,-5.2429,-5.2815,-5.3253,-5.3828,-5.4421,-5.492,-5.5296,-5.5296,-5.5651,-5.6237,-5.6811,-5.748,-5.7881,-5.7881,-5.7881,-5.7881,-5.7881,-5.7881,-5.7881,-5.7881,-5.7881,-5.7881,-5.7881,-5.7881,-5.8017,-5.8355,-5.8389,-5.8558,-5.8964,-5.9032,-5.9066,-5.9133,-5.9438,-5.9641,-5.9641,-5.9945,-6.0114,-6.0114,-5.9471,-5.9133,-5.9133,-5.9507,-5.986,-6.0237,-6.1502,-6.2705,-0.0238,-0.2222,-0.3324,-0.1972,-0.3853,-0.6872,-1.0611,-1.1673,-1.232,-1.3051,-1.3295,-1.3631,-1.4351,-1.4469,-1.5219,-1.8018,-1.9682,-2.1523,-2.3632,-2.5409,-2.6386,-2.6386,-2.6386,-2.8076,-3.2048,-3.2505,-3.4169,-3.8263,-3.8574,-3.8574,-3.8574,-3.8574,-3.8574,-3.8574,-4.2064,-4.3914,-4.3914,-4.6819,-4.7883,-4.6928,-4.6502,-4.6301,-4.6301,-4.6301,-4.6301,-4.6301,-4.6301,-4.6874,-4.7977,-4.83,-4.9194,-5.038,-5.2295,-5.2963,-5.3174,-5.4641,-5.5089,-5.488,-5.4371,-5.4102,-5.3862,-5.3354,-5.2845,-5.2426,-5.2247,-5.1858,-5.1596,-5.2276,-5.2485,-5.2634,-5.3483,-5.3913,-5.4168,-5.4168,-5.4421,-5.492,-5.5968,-5.7114,-5.7881,-5.7881,-5.7881,-5.7881,-5.7881,-5.7881,-5.7881,-5.7881,-5.7881,-5.7881,-5.7881,-5.7881,-5.7949,-5.8152,-5.8186,-5.8389,-5.8964,-5.9032,-5.9235,-5.981,-6.0013,-6.0182,-6.0385,-6.0588,-6.0689,-6.0689,-6.0689,-6.0486,-6.0114,-6.0114,-6.0216,-6.0419,-6.1718,-6.2499,-0.2967,-0.3464,-0.4349,-0.5594,-0.7441,-0.9252,-1.0505,-1.1168,-1.1837,-1.2427,-1.3003,-1.4059,-1.6024,-1.6508,-1.7801,-2.2028,-2.282,-2.3632,-2.5898,-2.6386,-2.6386,-2.6386,-2.6386,-2.8076,-3.2048,-3.2505,-3.4169,-3.8263,-3.8574,-3.8574,-3.8574,-3.8574,-3.8574,-3.8574,-4.1743,-4.3286,-4.3286,-4.59,-4.6928,-4.6351,-4.6326,-4.6301,-4.6301,-4.6301,-4.6301,-4.6301,-4.6301,-4.6301,-4.6541,-4.786,-4.8532,-4.8877,-5.1863,-5.2963,-5.3174,-5.4641,-5.479,-5.4251,-5.4221,-5.3773,-5.3234,-5.3204,-5.3144,-5.3025,-5.2396,-5.2187,-5.2007,-5.1473,-5.1293,-5.1293,-5.1386,-5.2154,-5.2989,-5.2989,-5.3828,-5.492,-5.5968,-5.7114,-5.7881,-5.7881,-5.7881,-5.7881,-5.7881,-5.7881,-5.7881,-5.7881,-5.7881,-5.7881,-5.7881,-5.7881,-5.8152,-5.8896,-5.8964,-5.8964,-5.9032,-5.9032,-5.9032,-5.9066,-5.9708,-6.0452,-6.1231,-6.1907,-6.2279,-6.2279,-6.2279,-6.1569,-6.0114,-6.0114,-6.0486,-6.1231,-6.1341,-6.218,-0.4487,-0.4639,-0.5069,-0.6956,-0.777,-0.8533,-1.0172,-1.0953,-1.1558,-1.187,-1.3796,-1.6024,-1.7742,-1.728,-1.8109,-2.2327,-2.314,-2.3952,-2.6056,-2.6386,-2.6386,-2.6386,-2.6386,-2.8076,-3.2048,-3.2505,-3.4169,-3.8263,-3.7559,-3.7422,-3.8516,-3.7539,-3.7441,-3.8535,-4.0776,-4.2853,-4.4519,-4.6186,-4.6853,-4.6301,-4.6301,-4.6301,-4.6301,-4.6301,-4.6301,-4.6301,-4.6301,-4.6301,-4.6301,-4.6874,-4.7087,-4.7324,-4.9308,-5.074,-5.167,-5.274,-5.3904,-5.473,-5.3862,-5.3384,-5.3174,-5.3174,-5.2606,-5.1947,-5.2127,-5.1917,-5.1528,-5.1289,-5.1229,-5.1229,-5.1229,-5.1479,-5.1819,-5.1819,-5.2664,-5.3569,-5.3967,-5.5538,-5.7039,-5.7808,-5.7881,-5.7881,-5.7881,-5.7881,-5.7881,-5.7881,-5.7881,-5.7881,-5.7881,-5.7881,-5.7983,-5.8254,-5.8287,-5.849,-5.8964,-5.9032,-5.9201,-5.9674,-5.9945,-6.0452,-6.1264,-6.1535,-6.1907,-6.2381,-6.2381,-6.211,-6.1569,-6.1569,-6.1704,-6.2009,-6.2009,-6.2343,-0.512,-0.5642,-0.6139,-0.7496,-0.7897,-0.8406,-0.9755,-1.0657,-1.1355,-1.1511,-1.4114,-1.6986,-1.8942,-1.8957,-1.9806,-2.3608,-2.4271,-2.4761,-2.6228,-2.6386,-2.6386,-2.6386,-2.6386,-2.8076,-3.2048,-3.2505,-3.4169,-3.8263,-3.7519,-3.7305,-3.8301,-3.7422,-3.7527,-3.8946,-4.0599,-4.2549,-4.465,-4.6118,-4.6677,-4.6301,-4.6301,-4.6301,-4.6301,-4.6301,-4.6301,-4.6301,-4.6301,-4.6301,-4.6301,-4.6301,-4.6301,-4.6421,-4.786,-4.8946,-4.9967,-5.1648,-5.2982,-5.374,-5.3375,-5.3174,-5.3114,-5.2665,-5.2067,-5.1588,-5.1798,-5.1558,-5.1229,-5.1229,-5.1229,-5.1229,-5.1229,-5.1229,-5.1229,-5.1229,-5.1819,-5.2395,-5.2812,-5.4389,-5.5889,-5.6658,-5.6811,-5.6887,-5.7297,-5.7297,-5.7446,-5.7808,-5.7881,-5.7881,-5.7881,-5.7881,-5.7983,-5.8254,-5.8051,-5.8186,-5.8964,-5.8795,-5.8964,-5.9674,-5.9742,-6.008,-6.0858,-6.1163,-6.1535,-6.2009,-6.2245,-6.2381,-6.2381,-6.2381,-6.2381,-6.2381,-6.2381,-6.2381,0.0,0.0,0.0,-0.7475,-0.8266,-0.8967,-0.9117,-1.0175,-1.1172,-1.1468,-1.3971,-1.6801,-1.9453,-2.1464,-2.3648,-2.6017,-2.6386,-2.6386,-2.6386,-2.6386,-2.6386,-2.6386,-2.6386,-2.8076,-3.2048,-3.2489,-3.4301,-3.8243,-3.8496,-3.8301,-3.793,-3.8301,-3.8986,-3.9729,-4.1109,-4.2321,-4.363,-4.5403,-4.6301,-4.6301,-4.6301,-4.6301,-4.6301,-4.6301,-4.6301,-4.6301,-4.6301,-4.6301,-4.6301,-4.6301,-4.6301,-4.6421,-4.786,-4.8188,-4.808,-5.1609,-5.2128,-5.1266,-5.2655,-5.3174,-5.2935,-5.1648,-5.1678,-5.2067,-5.1409,-5.1229,-5.1229,-5.1229,-5.1229,-5.1229,-5.1229,-5.1229,-5.1229,-5.1229,-5.1229,-5.1479,-5.2664,-5.3742,-5.4505,-5.4589,-5.4589,-5.492,-5.5968,-5.6126,-5.6547,-5.7628,-5.7808,-5.7808,-5.7808,-5.7808,-5.8079,-5.8856,-5.8321,-5.8186,-5.8964,-5.8321,-5.8186,-5.893,-5.8998,-5.9302,-6.0047,-6.0825,-6.1264,-6.1298,-6.2009,-6.2381,-6.2381,-6.2381,-6.2381,-6.2381,-6.2381,-6.2381,-0.6282,0.0,0.0,0.0,0.0,0.0,-0.8967,-0.9707,-1.0913,-1.2483,-1.5411,-1.836,-2.077,-2.3396,-2.5414,-2.6188,-2.6386,-2.6386,-2.6386,-2.6386,-2.6386,-2.6386,-2.7605,-2.9604,-3.2201,-3.361,-3.5247,-3.7961,-3.666,-3.6269,-3.7402,-3.7578,-3.7822,-3.7967,-3.925,-4.065,-4.2343,-4.3671,-4.5013,-4.6301,-4.6301,-4.6301,-4.6301,-4.6301,-4.6301,-4.6301,-4.6301,-4.6301,-4.6301,-4.6301,-4.6301,-4.6301,-4.6755,-4.7431,-4.8382,-4.8857,-5.0182,-5.1696,-5.1643,-5.2034,-5.2426,-5.2037,-5.1738,-5.1439,-5.1289,-5.1229,-5.1229,-5.1229,-5.1229,-5.1229,-5.1229,-5.1229,-5.1229,-5.1229,-5.1229,-5.1293,-5.1635,-5.188,-5.2664,-5.4253,-5.4589,-5.4672,-5.5002,-5.5084,-5.5166,-5.549,-5.549,-5.549,-5.549,-5.6204,-5.7,-5.7797,-5.7842,-5.8186,-5.8964,-5.8321,-5.7983,-5.8186,-5.8186,-5.8524,-5.9268,-5.9539,-6.0182,-6.1298,-6.1501,-6.1873,-6.2381,-6.2381,-6.2381,-6.2381,-6.2381,-6.2381,-0.7095,-0.7599,-0.8025,-0.8562,0.0,0.0,-0.892,-0.9659,-1.1005,-1.3088,-1.6183,-1.9054,-2.0904,-2.326,-2.4957,-2.5251,-2.5304,-2.5558,-2.6293,-2.6386,-2.6346,-2.6226,-2.8032,-2.9946,-3.1909,-3.3622,-3.5428,-3.7514,-3.6484,-3.623,-3.7246,-3.6953,-3.6855,-3.7031,-3.8323,-3.9375,-4.0432,-4.1956,-4.3482,-4.5281,-4.5281,-4.555,-4.6301,-4.6301,-4.6301,-4.6301,-4.6301,-4.6301,-4.6301,-4.6301,-4.6301,-4.6301,-4.6301,-4.6722,-4.7237,-4.745,-4.8595,-4.9923,-5.048,-5.0959,-5.1423,-5.1667,-5.1528,-5.1229,-5.1229,-5.1229,-5.1229,-5.1229,-5.1229,-5.1229,-5.1229,-5.1229,-5.1229,-5.1229,-5.1229,-5.1229,-5.1229,-5.1229,-5.1542,-5.29,-5.3165,-5.3309,-5.3828,-5.3913,-5.4084,-5.4505,-5.4589,-5.4589,-5.4589,-5.5166,-5.5961,-5.7004,-5.7177,-5.7624,-5.8619,-5.8234,-5.7881,-5.7881,-5.7881,-5.8084,-5.8524,-5.8863,-5.9438,-6.0317,-6.096,-6.167,-6.2381,-6.2381,-6.2381,-6.2381,-6.2381,-6.2381,-0.7624,-0.8278,-0.896,-0.894,-0.8954,0.0,-0.9161,-0.9995,-1.1482,-1.3796,-1.6477,-1.8916,-2.0329,-2.1976,-2.322,-2.3487,-2.3581,-2.4209,-2.5905,-2.6226,-2.6159,-2.5798,-2.7798,-2.9683,-3.1269,-3.3261,-3.5309,-3.7086,-3.7187,-3.7168,-3.7168,-3.6426,-3.6191,-3.6582,-3.7779,-3.8353,-3.8597,-4.0148,-4.182,-4.3458,-4.3458,-4.4374,-4.6059,-4.6059,-4.618,-4.6301,-4.6301,-4.6276,-4.6225,-4.6276,-4.6301,-4.6301,-4.6301,-4.5974,-4.5708,-4.7028,-4.7205,-4.7154,-4.9089,-4.9839,-5.0025,-5.0714,-5.1011,-5.1011,-5.1105,-5.1229,-5.1229,-5.1229,-5.1229,-5.1229,-5.1229,-5.1229,-5.1229,-5.1229,-5.1229,-5.1229,-5.1229,-5.1229,-5.1229,-5.1229,-5.1229,-5.1572,-5.2575,-5.2723,-5.3077,-5.4084,-5.4253,-5.4253,-5.4253,-5.4337,-5.4932,-5.6272,-5.6189,-5.6606,-5.7904,-5.784,-5.7701,-5.7701,-5.7808,-5.7881,-5.7881,-5.8524,-5.8964,-5.9133,-6.0655,-6.1738,-6.2381,-6.2381,-6.2381,-6.2381,-6.2381,-6.2381,-0.8304,-0.8796,-0.9083,-0.8967,-0.9028,0.0,-1.0492,-1.0891,-1.2064,-1.585,-1.702,-1.8226,-2.0541,-2.1503,-2.1924,-2.1977,-2.2378,-2.314,-2.4449,-2.5237,-2.5398,-2.4636,-2.8369,-3.1023,-3.1399,-3.4339,-3.636,-3.6797,-3.6465,-3.6269,-3.6269,-3.6113,-3.6055,-3.6152,-3.6327,-3.7193,-3.8597,-3.8993,-4.0018,-4.1693,-4.1693,-4.258,-4.4251,-4.4251,-4.5013,-4.6301,-4.6301,-4.605,-4.5673,-4.6125,-4.6301,-4.6301,-4.6301,-4.5974,-4.5497,-4.5826,-4.632,-4.6684,-4.6785,-4.7401,-4.8546,-4.9363,-4.9582,-4.9776,-5.0917,-5.1229,-5.1229,-5.1229,-5.1229,-5.1229,-5.1229,-5.1229,-5.1229,-5.1229,-5.1229,-5.1229,-5.1229,-5.1229,-5.1229,-5.1229,-5.1229,-5.1293,-5.1479,-5.1542,-5.1635,-5.1819,-5.188,-5.188,-5.188,-5.2634,-5.3533,-5.4434,-5.473,-5.5242,-5.6111,-5.6381,-5.6547,-5.6547,-5.7372,-5.7881,-5.7881,-5.8017,-5.866,-5.9877,-6.14,-6.2245,-6.2381,-6.2381,-6.2381,-6.2381,-6.2381,-6.2381,-0.8836,-0.9042,-0.9157,-0.9157,-0.9439,0.0,0.0,-1.1646,-1.3152,-1.654,-1.7385,-1.8081,-1.9679,-2.0267,-2.0414,-2.0267,-2.0615,-2.1162,-2.1897,-2.3647,-2.481,-2.4663,-2.8496,-3.1052,-3.0871,-3.4147,-3.6348,-3.6348,-3.6152,-3.6016,-3.6016,-3.6016,-3.6016,-3.6016,-3.6016,-3.6403,-3.7307,-3.7307,-3.8221,-3.9888,-3.9888,-4.0795,-4.2454,-4.3074,-4.3863,-4.5013,-4.564,-4.5899,-4.5899,-4.5899,-4.5899,-4.5899,-4.5899,-4.5899,-4.5824,-4.5271,-4.5309,-4.5727,-4.5826,-4.6168,-4.6672,-4.7819,-4.8139,-4.8239,-4.8964,-4.9161,-4.9259,-4.9969,-5.0191,-5.0383,-5.1011,-5.1229,-5.1229,-5.1229,-5.1229,-5.1229,-5.1229,-5.1229,-5.1229,-5.1229,-5.1229,-5.1229,-5.1229,-5.1229,-5.1229,-5.1229,-5.1229,-5.1229,-5.1229,-5.1727,-5.2307,-5.307,-5.3481,-5.4025,-5.4718,-5.514,-5.5377,-5.5377,-5.5968,-5.6237,-5.6237,-5.6237,-5.7243,-5.9243,-6.0378,-6.1468,-6.2381,-6.2381,-6.2381,-6.2381,-6.2381,-6.2381,-0.911,-0.915,-0.9218,-0.9313,-0.9729,-1.0416,0.0,0.0,0.0,-1.6879,-1.7817,-1.8167,-1.863,-1.8958,-1.9038,-1.8798,-1.8998,-1.9345,-1.9746,-2.1804,-2.3474,-2.3995,-2.7281,-2.9395,-2.9224,-3.2874,-3.5393,-3.5879,-3.582,-3.5762,-3.5762,-3.5859,-3.5859,-3.5762,-3.5859,-3.5898,-3.5898,-3.5898,-3.6574,-3.8088,-3.8088,-3.8993,-4.0773,-4.1639,-4.2685,-4.3707,-4.4571,-4.541,-4.5949,-4.5623,-4.5422,-4.5321,-4.5447,-4.5698,-4.5874,-4.497,-4.4694,-4.4785,-4.5193,-4.5192,-4.5122,-4.6347,-4.6888,-4.7094,-4.7094,-4.7094,-4.7299,-4.8439,-4.8837,-4.9161,-5.0508,-5.0793,-5.0917,-5.1105,-5.1229,-5.1229,-5.1229,-5.1229,-5.1229,-5.1229,-5.1229,-5.1229,-5.1229,-5.1229,-5.1229,-5.1229,-5.1229,-5.1229,-5.1229,-5.1229,-5.1439,-5.1947,-5.2398,-5.279,-5.3345,-5.3883,-5.4253,-5.4253,-5.4505,-5.4653,-5.4781,-5.5037,-5.6163,-5.8331,-5.9251,-6.0439,-6.203,-6.2302,-6.2381,-6.2381,-6.2381,-6.2381,-0.896,-0.9157,-0.9327,-0.9211,-0.9497,-1.0355,-1.3032,0.0,-1.4728,-1.7677,0.0,-1.8,-1.8061,0.0,0.0,-1.8156,-1.8397,-1.8878,-1.9693,-1.9867,-2.004,-2.0361,-2.3047,-2.4921,-2.5375,-2.9421,-3.302,-3.5351,-3.5078,-3.4844,-3.4844,-3.5234,-3.5273,-3.4863,-3.5254,-3.5469,-3.5469,-3.5469,-3.5779,-3.6287,-3.6287,-3.7173,-3.8861,-3.9061,-4.0729,-4.3707,-4.3307,-4.3842,-4.4844,-4.5296,-4.5171,-4.4769,-4.5296,-4.5221,-4.4794,-4.4669,-4.4945,-4.5171,-4.3815,-4.3891,-4.47,-4.5066,-4.6083,-4.7094,-4.7094,-4.7094,-4.7094,-4.7299,-4.7299,-4.7605,-4.9063,-4.9455,-4.9776,-5.0917,-5.1229,-5.1229,-5.1229,-5.1229,-5.1229,-5.1229,-5.1229,-5.1229,-5.1229,-5.1229,-5.1229,-5.1229,-5.1229,-5.1229,-5.1229,-5.1229,-5.1259,-5.1319,-5.1353,-5.1416,-5.1476,-5.2426,-5.3077,-5.3077,-5.4084,-5.4877,-5.5485,-5.6733,-5.7469,-5.7804,-5.9553,-6.0604,-6.0787,-6.1837,-6.2381,-6.2381,-6.2381,-6.2381,-0.9598,-0.9808,-0.993,-1.0032,-1.0412,-1.1462,-1.3967,-1.4606,-1.5352,-1.7948,0.0,0.0,0.0,0.0,0.0,0.0,-1.8156,-1.8357,-1.8731,-1.8384,-1.8749,-2.0482,-2.2793,-2.5407,-2.8499,-2.9337,-3.0663,-3.3418,-3.334,-3.3223,-3.3223,-3.4355,-3.4902,-3.4707,-3.5156,-3.5273,-3.5,-3.5254,-3.5488,-3.5664,-3.5664,-3.6166,-3.7173,-3.7529,-3.8702,-4.0456,-4.1853,-4.3048,-4.3768,-4.5017,-4.5347,-4.5121,-4.502,-4.5045,-4.5121,-4.5121,-4.507,-4.4895,-4.4166,-4.4016,-4.413,-4.3857,-4.4209,-4.4725,-4.4725,-4.4725,-4.4833,-4.5661,-4.5872,-4.6188,-4.7605,-4.801,-4.8139,-4.8638,-4.8837,-4.9063,-4.9873,-5.0095,-5.0287,-5.1011,-5.1229,-5.1229,-5.1229,-5.1229,-5.1229,-5.1229,-5.1229,-5.1229,-5.1229,-5.1229,-5.1229,-5.1229,-5.1229,-5.1229,-5.1229,-5.1635,-5.188,-5.188,-5.2763,-5.3374,-5.3651,-5.4884,-5.5968,-5.6678,-5.7888,-5.9226,-6.0586,-6.1119,-6.1756,-6.2381,-6.2381,-6.2381,-1.0256,-1.0432,-1.0487,-1.0575,-1.1155,-1.2287,-1.4392,-1.5052,-1.5941,-1.8307,-1.8664,0.0,0.0,0.0,-1.8571,-1.8437,0.0,-1.817,-1.817,-1.7515,-1.7901,-2.0178,-2.2478,-2.5528,-2.9527,-2.867,-2.8719,-3.0856,-3.1362,-3.1556,-3.1556,-3.3408,-3.4473,-3.4355,-3.4785,-3.4863,-3.4531,-3.4863,-3.5098,-3.5195,-3.5195,-3.5371,-3.5644,-3.6274,-3.697,-3.8013,-4.0051,-4.1719,-4.3068,-4.4179,-4.4867,-4.5221,-4.497,-4.502,-4.5246,-4.5246,-4.5171,-4.502,-4.4568,-4.4041,-4.3514,-4.3112,-4.2986,-4.2986,-4.2986,-4.2986,-4.3184,-4.4209,-4.4427,-4.4725,-4.6188,-4.6474,-4.6578,-4.6991,-4.7094,-4.7402,-4.8439,-4.8638,-4.9063,-5.0383,-5.0603,-5.0793,-5.1105,-5.1229,-5.1229,-5.1229,-5.1229,-5.1229,-5.1229,-5.1229,-5.1229,-5.1229,-5.1229,-5.1229,-5.1229,-5.1229,-5.1289,-5.1468,-5.2276,-5.2755,-5.2755,-5.3862,-5.4926,-5.5708,-5.6553,-5.79,-5.961,-5.9957,-6.0586,-6.1399,-6.211,-6.2381,-1.0843,-1.0812,-1.0826,-1.0399,-1.0906,-1.2035,-1.4178,-1.5084,-1.6245,-1.8868,-1.9105,-1.8998,-1.9279,-1.9092,-1.8998,-1.9279,-1.8851,0.0,0.0,-1.7462,-1.7049,-1.7928,-2.086,-2.355,-2.5558,-2.6408,-2.7103,-2.7939,-2.9144,-2.9823,-2.9823,-3.2556,-3.3906,-3.3476,-3.3887,-3.4101,-3.4101,-3.4101,-3.4316,-3.4726,-3.4726,-3.4726,-3.4746,-3.4707,-3.5952,-3.7884,-3.7422,-3.9346,-4.2899,-4.2399,-4.3187,-4.4694,-4.5246,-4.5121,-4.4644,-4.4644,-4.5321,-4.6024,-4.4392,-4.3463,-4.3011,-4.2986,-4.2986,-4.2986,-4.2986,-4.2986,-4.2986,-4.3073,-4.3073,-4.3406,-4.4725,-4.5048,-4.5449,-4.6785,-4.7094,-4.7094,-4.7197,-4.7197,-4.7605,-4.8964,-4.9259,-4.9679,-5.1011,-5.1229,-5.1229,-5.1229,-5.1229,-5.1229,-5.1229,-5.1229,-5.1229,-5.1229,-5.1229,-5.1229,-5.1229,-5.1229,-5.1498,-5.2127,-5.3414,-5.4162,-5.4162,-5.479,-5.5149,-5.525,-5.6445,-5.7086,-5.715,-5.8268,-5.8902,-5.8992,-6.1317,-6.2381,-1.1335,-1.1491,-1.1545,-1.1599,-1.1489,-1.2157,-1.5175,-1.5322,-1.5784,-1.8765,-1.9292,-1.9185,-1.9092,-1.9158,-1.9118,-1.8838,-1.8624,-1.8424,0.0,-1.7653,-1.7456,-1.813,-1.91,-2.0656,-2.3148,-2.2571,-2.2552,-2.4074,-2.5172,-2.5761,-2.5985,-2.9336,-3.1392,-3.1758,-3.3262,-3.3945,-3.3652,-3.3926,-3.4141,-3.4277,-3.4277,-3.4434,-3.4707,-3.4707,-3.5001,-3.5509,-3.6639,-3.8038,-3.9427,-4.1737,-4.3264,-4.4063,-4.5166,-4.5598,-4.5748,-4.5748,-4.5497,-4.507,-4.4116,-4.3438,-4.2986,-4.2986,-4.2986,-4.2986,-4.2986,-4.2986,-4.2986,-4.2986,-4.2986,-4.3073,-4.3602,-4.3713,-4.3797,-4.4209,-4.4427,-4.4643,-4.5555,-4.5661,-4.6188,-4.7503,-4.7808,-4.8239,-4.9679,-4.9873,-5.0191,-5.1105,-5.1229,-5.1229,-5.1229,-5.1229,-5.1229,-5.1229,-5.1229,-5.1229,-5.1229,-5.1618,-5.2157,-5.2815,-5.3713,-5.4221,-5.4221,-5.485,-5.5179,-5.5179,-5.5651,-5.6183,-5.6991,-5.7434,-5.7993,-5.8812,-5.961,-6.0417,-1.1952,-1.2067,-1.2081,-1.2115,-1.1983,-1.2521,-1.4815,-1.5668,-1.6284,-1.7819,-1.9381,-1.9863,-1.7836,-1.8698,-1.9296,-1.7914,-1.8053,-1.8156,0.0,-1.7381,-1.7344,-1.7677,-1.8596,-1.9822,-2.1328,-2.0557,-2.0246,-2.0959,-2.208,-2.2973,-2.3535,-2.7492,-3.0097,-3.0623,-3.2747,-3.3711,-3.3418,-3.3691,-3.3848,-3.3848,-3.3848,-3.3984,-3.4238,-3.4238,-3.4258,-3.4426,-3.5828,-3.6887,-3.7953,-4.0248,-4.2149,-4.3521,-4.4012,-4.4898,-4.5723,-4.5723,-4.5121,-4.4292,-4.3915,-4.3438,-4.2986,-4.2986,-4.2986,-4.2986,-4.2986,-4.2986,-4.2936,-4.2735,-4.2836,-4.2936,-4.2735,-4.2836,-4.2986,-4.2986,-4.2986,-4.3295,-4.4126,-4.4318,-4.4725,-4.6083,-4.637,-4.6785,-4.8239,-4.8439,-4.9063,-5.0917,-5.1229,-5.1229,-5.1229,-5.1229,-5.1229,-5.1229,-5.1229,-5.1319,-5.1558,-5.2187,-5.2845,-5.3503,-5.4192,-5.4551,-5.4551,-5.497,-5.5089,-5.485,-5.5059,-5.543,-5.601,-5.6225,-5.6735,-5.7559,-5.7993,-5.8632]},{"header":{"parameterUnit":"m.s-1","parameterCategory":1,"la1":30.6,"la2":29.2853,"lo1":-89.7004,"lo2":-87.6739,"dy":0.0162,"dx":0.0183,"nx":112,"ny":82,"refTime":"2023-04-10T12:00:00:Z","depth":0,"parameterNumber":3,"parameterNumberName":"V-component_of_WINDS"},"data":[0.0,0.0,0.0,0.0,0.0,0.0,0.0,0.0,0.0,0.0,0.0,0.0,0.0,0.0,0.0,0.0,0.0,0.0,0.0,0.0,0.0,0.0,0.0,0.0,0.0,0.0,0.0,0.0,0.0,0.0,0.0,0.0,0.0,0.0,0.0,0.0,0.0,0.0,0.0,0.0,0.0,0.0,0.0,0.0,0.0,0.0,0.0,0.0,0.0,0.0,0.0,0.0,0.0,0.0,0.0,0.0,0.0,0.0,0.0,0.0,0.0,0.0,0.0,0.0,0.0,0.0,0.0,0.0,0.0,0.0,0.0,0.0,0.0,0.0,0.0,0.0,0.0,0.0,0.0,0.0,0.0,0.0,0.0,0.0,0.0,0.0,0.0,0.0,0.0,0.0,2.5558,2.7486,2.8156,2.7534,2.5412,2.6659,2.5882,2.2184,0.0,0.0,0.0,0.0,0.0,0.0,0.0,0.0,0.0,0.0,0.0,0.0,0.0,0.0,0.0,0.0,0.0,0.0,0.0,0.0,0.0,0.0,0.0,0.0,0.0,0.0,0.0,0.0,0.0,0.0,0.0,0.0,0.0,0.0,0.0,0.0,0.0,0.0,0.0,0.0,0.0,0.0,0.0,0.0,0.0,0.0,0.0,0.0,0.0,0.0,0.0,0.0,0.0,0.0,0.0,0.0,0.0,0.0,0.0,0.0,0.0,0.0,0.0,0.0,0.0,0.0,0.0,0.0,0.0,0.0,0.0,0.0,0.0,0.0,0.0,0.0,0.0,0.0,0.0,0.0,0.0,0.0,0.0,0.0,0.0,0.0,0.0,0.0,0.0,0.0,0.0,0.0,0.0,0.0,0.0,0.0,0.0,0.0,0.0,0.0,0.0,0.0,0.0,0.0,2.3636,2.5206,2.6178,2.5761,2.357,2.3295,2.2577,2.0996,0.0,0.0,0.0,0.0,0.0,0.0,0.0,0.0,0.0,0.0,0.0,0.0,0.0,0.0,0.0,0.0,0.0,0.0,0.0,0.0,0.0,0.0,0.0,0.0,0.0,0.0,0.0,0.0,0.0,0.0,0.0,0.0,0.0,0.0,0.0,0.0,0.0,0.0,0.0,0.0,0.0,0.0,0.0,0.0,0.0,0.0,0.0,0.0,0.0,0.0,0.0,0.0,0.0,0.0,0.0,0.0,0.0,0.0,0.0,0.0,0.0,0.0,0.0,0.0,0.0,0.0,0.0,0.0,0.0,0.0,0.0,0.0,0.0,0.0,0.0,0.0,0.0,0.0,0.0,0.0,0.0,0.0,0.0,0.0,0.0,0.0,0.0,0.0,0.0,0.0,0.0,0.0,0.0,0.0,0.0,0.0,0.0,0.0,0.0,0.0,0.0,0.0,0.0,2.2498,2.3539,2.3601,2.3975,2.3843,2.2781,2.2205,2.1511,2.0461,2.1103,0.0,0.0,0.0,0.0,0.0,0.0,0.0,0.0,0.0,0.0,0.0,0.0,0.0,0.0,0.0,0.0,0.0,0.0,0.0,0.0,0.0,0.0,0.0,0.0,0.0,0.0,0.0,0.0,0.0,0.0,0.0,0.0,0.0,0.0,0.0,0.0,0.0,0.0,0.0,0.0,0.0,0.0,0.0,0.0,0.0,0.0,0.0,0.0,0.0,0.0,0.0,0.0,0.0,0.0,0.0,0.0,0.0,0.0,0.0,0.0,0.0,0.0,0.0,0.0,0.0,0.0,0.0,0.0,0.0,0.0,0.0,0.0,0.0,0.0,0.0,0.0,0.0,0.0,0.0,0.0,0.0,0.0,0.0,0.0,0.0,0.0,0.0,0.0,0.0,0.0,0.0,0.0,0.0,0.0,0.0,0.0,0.0,0.0,0.0,0.0,0.0,0.0,2.2262,2.3292,2.2311,2.2338,2.2365,2.2231,2.1804,2.1173,2.0136,1.9307,0.0,0.0,0.0,0.0,0.0,0.0,0.0,0.0,0.0,0.0,0.0,0.0,0.0,0.0,0.0,0.0,0.0,0.0,0.0,0.0,0.0,0.0,0.0,0.0,0.0,0.0,0.0,0.0,0.0,0.0,0.0,0.0,0.0,0.0,0.0,0.0,0.0,0.0,0.0,0.0,0.0,0.0,0.0,0.0,0.0,0.0,0.0,0.0,0.0,0.0,0.0,0.0,0.0,0.0,0.0,0.0,0.0,0.0,0.0,0.0,0.0,0.0,0.0,0.0,0.0,0.0,0.0,0.0,0.0,0.0,0.0,0.0,0.0,0.0,0.0,0.0,0.0,0.0,0.0,0.0,0.0,0.0,0.0,0.0,0.0,0.0,0.0,0.0,0.0,0.0,0.0,0.0,0.0,0.0,0.0,0.0,0.0,0.0,0.0,0.0,0.0,0.0,2.0362,2.141,2.1577,2.2098,2.2205,2.1657,2.1577,2.0935,1.9569,1.9092,0.0,0.0,0.0,0.0,0.0,0.0,0.0,0.0,0.0,0.0,0.0,0.0,0.0,0.0,0.0,0.0,0.0,0.0,0.0,0.0,0.0,0.0,0.0,0.0,0.0,0.0,0.0,0.0,0.0,0.0,0.0,0.0,0.0,0.0,0.0,0.0,0.0,0.0,0.0,0.0,0.0,0.0,0.0,0.0,0.0,0.0,0.0,0.0,0.0,0.0,0.0,0.0,0.0,0.0,0.0,0.0,0.0,0.0,0.0,0.0,0.0,0.0,0.0,0.0,0.0,0.0,0.0,0.0,0.0,0.0,0.0,0.0,0.0,0.0,0.0,0.0,0.0,0.0,0.0,0.0,0.0,0.0,0.0,0.0,0.0,0.0,0.0,0.0,0.0,0.0,0.0,0.0,0.0,0.0,0.0,0.0,0.0,0.0,0.0,0.0,0.0,0.0,2.0254,2.1031,2.0073,2.1084,2.1385,2.011,2.0721,2.0473,1.8738,0.0,0.0,0.0,0.0,0.0,0.0,0.0,0.0,0.0,0.0,0.0,0.0,0.0,0.0,0.0,0.0,0.0,0.0,0.0,0.0,0.0,0.0,0.0,0.0,0.0,0.0,0.0,0.0,0.0,0.0,0.0,0.0,0.0,0.0,0.0,0.0,0.0,0.0,0.0,0.0,0.0,0.0,0.0,0.0,0.0,0.0,0.0,0.0,0.0,0.0,0.0,0.0,0.0,0.0,0.0,0.0,0.0,0.0,0.0,0.0,0.0,0.0,0.0,0.0,0.0,0.0,0.0,0.0,0.0,0.0,0.0,0.0,0.0,0.0,0.0,0.0,0.0,0.0,0.0,0.0,0.0,0.0,0.0,0.0,0.0,0.0,0.0,0.0,0.0,0.0,0.0,0.0,0.0,0.0,0.0,0.0,0.0,0.0,0.0,0.0,0.0,0.0,1.7516,1.9254,1.9961,1.825,1.903,1.9301,1.8109,1.8875,1.8839,1.7421,0.0,0.0,0.0,0.0,0.0,0.0,0.0,0.0,0.0,0.0,0.0,0.0,0.0,0.0,0.0,0.0,0.0,0.0,0.0,0.0,0.0,0.0,0.0,0.0,0.0,0.0,0.0,0.0,0.0,0.0,0.0,0.0,0.0,0.0,0.0,0.0,0.0,0.0,0.0,0.0,0.0,0.0,0.0,0.0,0.0,0.0,0.0,0.0,0.0,0.0,0.0,0.0,0.0,0.0,0.0,0.0,0.0,0.0,0.0,0.0,0.0,0.0,0.0,0.0,0.0,0.0,0.0,0.0,0.0,0.0,0.0,0.0,0.0,0.0,0.0,0.0,0.0,0.0,0.0,0.0,0.0,0.0,0.0,0.0,0.0,0.0,0.0,0.0,0.0,0.0,0.0,0.0,0.0,0.0,0.0,0.0,0.0,0.0,0.0,0.0,0.0,0.0,1.5235,1.6977,1.7859,1.6043,1.5913,1.5913,1.5913,1.5913,1.5792,0.0,0.0,0.0,0.0,0.0,0.0,0.0,0.0,0.0,0.0,0.0,0.0,0.0,0.0,0.0,0.0,0.0,0.0,0.0,0.0,0.0,0.0,0.0,0.0,0.0,0.0,0.0,0.0,0.0,0.0,0.0,0.0,0.0,0.0,0.0,0.0,0.0,0.0,0.0,0.0,0.0,0.0,0.0,0.0,0.0,0.0,0.0,0.0,0.0,0.0,0.0,0.0,0.0,0.0,0.0,0.0,0.0,0.0,0.0,0.0,0.0,0.0,0.0,0.0,0.0,0.0,0.0,0.0,0.0,0.0,0.0,0.0,0.0,0.0,0.0,0.0,0.0,0.0,0.0,0.0,0.0,0.0,0.0,0.0,0.0,0.0,0.0,0.0,0.0,0.0,0.0,0.0,0.0,0.0,0.0,0.0,0.0,0.0,0.0,0.0,0.0,0.0,0.0,1.4498,1.5721,1.6043,1.4232,1.5135,1.5394,1.4232,1.5135,1.5352,1.3849,0.0,0.0,0.0,0.0,0.0,0.0,0.0,0.0,0.0,0.0,0.0,0.0,0.0,0.0,0.0,0.0,0.0,0.0,0.0,0.0,0.0,0.0,0.0,0.0,0.0,0.0,0.0,0.0,0.0,0.0,0.0,0.0,0.0,0.0,0.0,0.0,0.0,0.0,0.0,0.0,0.0,0.0,0.0,0.0,0.0,0.0,0.0,0.0,0.0,0.0,0.0,0.0,0.0,0.0,0.0,0.0,0.0,0.0,0.0,0.0,0.0,0.0,0.0,0.0,0.0,0.0,0.0,0.0,0.0,0.0,0.0,0.0,0.0,0.0,0.0,0.0,0.0,0.0,0.0,0.0,0.0,0.0,0.0,0.0,0.0,0.0,0.0,0.0,0.0,0.0,0.0,0.0,0.0,0.0,0.0,0.0,0.0,0.0,0.0,0.0,0.0,0.0,1.2849,1.4038,1.4232,1.2413,1.3193,1.3456,1.2413,1.3193,1.3404,1.2448,0.0,0.0,0.0,0.0,0.0,0.0,0.0,0.0,0.0,0.0,0.0,0.0,0.0,0.0,0.0,0.0,0.0,0.0,0.0,0.0,0.0,0.0,0.0,0.0,0.0,0.0,0.0,0.0,0.0,0.0,0.0,0.0,0.0,0.0,0.0,0.0,0.0,0.0,0.0,0.0,0.0,0.0,0.0,0.0,0.0,0.0,0.0,0.0,0.0,0.0,0.0,0.0,0.0,0.0,0.0,0.0,0.0,0.0,0.0,0.0,0.0,0.0,0.0,0.0,0.0,0.0,0.0,0.0,0.0,0.0,0.0,0.0,0.0,0.0,0.0,0.0,0.0,0.0,0.0,0.0,0.0,0.0,0.0,0.0,0.0,0.0,0.0,0.0,0.0,0.0,0.0,0.0,0.0,0.0,0.0,0.0,0.0,0.0,0.0,0.0,0.0,0.0,1.0763,1.2115,1.2413,1.085,1.0717,1.0717,1.0717,1.0717,1.085,1.1038,0.0,0.0,0.0,0.0,0.0,0.0,0.0,0.0,0.0,0.0,0.0,0.0,0.0,0.0,0.0,0.0,0.0,0.0,0.0,0.0,0.0,0.0,0.0,0.0,0.0,0.0,0.0,0.0,0.0,0.0,0.0,0.0,0.0,0.0,0.0,0.0,0.0,0.0,0.0,0.0,0.0,0.0,0.0,0.0,0.0,0.0,0.0,0.0,0.0,0.0,0.0,0.0,0.0,0.0,0.0,0.0,0.0,0.0,0.0,0.0,2.3286,2.1866,0.0,0.0,0.0,0.0,0.0,0.0,0.0,0.0,0.0,0.0,0.0,0.0,0.0,0.0,0.0,0.0,0.0,0.0,0.0,0.0,0.0,0.0,0.0,0.0,0.0,0.0,0.0,0.0,0.0,0.0,0.0,0.0,0.0,0.0,0.0,0.0,0.0,0.0,0.0,0.0,1.0058,1.0728,1.1108,1.0717,1.0717,1.0717,1.0717,1.0717,1.0541,1.0252,1.0101,0.0,0.0,0.0,0.0,0.0,0.0,0.0,0.0,0.0,0.0,0.0,0.0,0.0,0.0,0.0,0.0,0.0,0.0,0.0,0.0,0.0,0.0,0.0,0.0,0.0,0.0,0.0,0.0,0.0,0.0,0.0,0.0,0.0,0.0,0.0,0.0,0.0,0.0,0.0,0.0,0.0,0.0,0.0,0.0,0.0,0.0,0.0,0.0,0.0,0.0,0.0,0.0,0.0,0.0,0.0,0.0,0.0,0.0,0.0,2.1701,2.2141,0.0,0.0,0.0,0.0,0.0,0.0,0.0,0.0,0.0,0.0,0.0,0.0,0.0,0.0,0.0,0.0,0.0,0.0,0.0,0.0,0.0,0.0,0.0,0.0,0.0,0.0,0.0,0.0,0.0,0.0,0.0,0.0,0.0,0.0,0.0,0.0,0.0,0.0,0.0,0.0,0.9707,1.0304,1.0717,1.0717,1.0717,1.0717,1.0717,1.0717,1.0622,1.0385,1.0168,0.0,0.0,0.0,0.0,0.0,0.0,0.0,0.0,0.0,0.0,0.0,0.0,0.0,0.0,0.0,0.0,0.0,0.0,0.0,0.0,0.0,0.0,0.0,0.0,0.0,0.0,0.0,0.0,0.0,0.0,0.0,0.0,0.0,0.0,0.0,0.0,0.0,0.0,0.0,0.0,0.0,0.0,0.0,0.0,0.0,0.0,0.0,0.0,0.0,0.0,0.0,0.0,0.0,1.9714,1.8517,1.7093,1.6867,1.583,1.4566,2.0213,2.1836,2.0296,1.7161,0.0,0.0,0.0,0.0,0.0,0.0,0.0,0.0,0.0,0.0,0.0,0.0,0.0,0.0,0.0,0.0,0.0,0.0,0.0,0.0,0.0,0.0,1.0291,1.0921,1.0967,1.1012,1.0935,0.0,0.0,0.0,0.0,0.0,0.0,0.0,0.0,0.0,0.0,0.0,0.9473,1.0129,1.0717,1.0717,1.0717,1.0717,1.0717,1.0717,1.0717,1.0717,1.0371,1.0127,0.0,0.0,0.0,0.0,0.0,0.0,0.0,0.0,0.0,0.0,0.0,0.0,0.0,0.0,0.0,0.0,0.0,0.0,0.0,0.0,0.0,0.0,0.0,0.0,0.0,0.0,0.0,0.0,0.0,0.0,0.0,0.0,-0.4187,0.5311,0.0,0.0,0.0,0.0,0.0,0.0,0.0,0.0,0.0,0.0,0.0,0.0,0.0,2.075,1.7992,1.9565,1.9876,1.9171,1.8801,1.9531,2.0854,1.9096,1.821,1.7891,1.739,0.0,1.6806,1.6099,0.0,0.0,0.0,0.0,0.0,0.0,0.0,0.0,0.0,0.0,0.0,0.0,0.0,0.0,0.0,0.0,0.0,0.0,0.0,0.0,0.0,0.0,1.1669,1.0026,0.9418,0.8845,0.7097,0.8303,0.9869,1.0484,0.854,0.7049,0.0,0.0,0.0,0.0,0.0,0.0,0.8885,1.0002,1.0717,1.0717,1.0717,1.0717,1.0717,1.0717,1.0717,1.0717,1.0663,1.046,1.0066,1.0276,0.0,0.0,0.0,0.0,0.0,0.0,0.0,0.0,0.0,0.0,0.0,0.0,0.0,0.0,0.0,0.0,0.0,0.0,0.0,0.0,0.0,0.0,0.0,0.0,0.0,0.0,0.0,0.0,0.0,-0.8075,-0.4026,-0.9657,1.2556,2.3796,0.0,0.0,0.0,0.0,0.0,0.0,0.0,0.0,0.0,2.2646,2.2916,2.1356,1.7938,1.9971,2.0207,1.8738,1.8581,1.8421,1.8118,1.7208,1.6294,1.5081,1.4478,1.4111,1.408,1.4155,1.4805,1.5346,0.0,0.0,0.0,0.0,1.1592,1.2058,1.2058,1.2357,1.2736,1.2372,0.0,0.0,0.0,0.0,0.0,0.0,0.0,0.6737,0.7464,0.7842,0.8062,0.771,0.7519,0.7153,0.6384,0.6494,0.6889,0.7617,0.6587,0.571,0.6264,0.5444,0.0,0.0,0.0,0.653,0.653,0.725,0.7769,0.7769,0.7769,0.8169,0.9105,0.9238,0.9643,1.0585,1.0717,1.0629,1.0432,1.0555,1.0392,0.0,0.0,0.0,0.0,0.0,0.0,0.0,0.0,0.0,0.0,0.0,0.0,0.0,0.0,0.0,0.0,0.0,0.0,0.0,0.0,0.0,0.0,0.0,0.0,0.0,0.0,0.0,0.0,-0.941,-0.6797,-2.1276,0.7539,2.2897,0.0,0.0,0.0,0.0,0.0,0.0,2.5358,2.4286,2.2969,2.1261,2.1988,2.0974,1.7563,1.9233,1.9327,1.7815,1.736,1.6447,1.554,1.4935,1.3868,1.2501,1.2501,1.2501,1.2474,1.2742,1.3552,1.4558,1.2302,1.174,1.1938,1.1399,1.1484,1.1843,1.1803,1.1729,1.1562,1.1492,1.0816,0.9837,0.9602,0.0,0.0,0.0,0.0,0.4287,0.5146,0.5209,0.5107,0.5355,0.5517,0.534,0.4837,0.409,0.384,0.531,0.4783,0.424,0.4389,0.3807,0.0,0.36,0.4061,0.4527,0.4527,0.4962,0.5362,0.5362,0.5362,0.5897,0.7231,0.7365,0.8169,0.9908,1.0047,1.018,1.0717,1.0717,1.0616,1.0399,0.0,0.0,0.0,0.0,0.0,0.0,0.0,0.0,0.0,0.0,0.0,0.0,0.0,0.0,0.0,0.0,0.0,0.0,0.0,0.0,0.0,0.0,0.0,0.0,0.0,0.0,0.0,0.0,0.0,-1.7791,0.4618,0.0,0.0,0.0,0.0,2.9202,2.487,2.3806,2.6588,2.2086,2.0944,2.4063,2.0739,1.7786,1.5675,1.5684,1.5693,1.5693,1.3722,1.3722,1.5387,1.3568,1.2656,1.2501,1.2501,1.2501,1.2501,1.2474,1.2615,1.2567,1.1979,1.1891,1.2113,1.1538,1.1837,1.244,1.2305,1.1366,1.0124,0.975,0.7477,0.4621,0.3623,0.3166,0.0,0.0,0.3845,0.4583,0.4591,0.5425,0.5676,0.369,0.3202,0.2722,0.0757,0.0291,0.1418,0.5278,0.3685,0.2168,0.3808,0.0,0.1638,0.2367,0.3298,0.3902,0.3902,0.4835,0.5362,0.5362,0.5362,0.5496,0.5496,0.5496,0.6297,0.803,0.8163,0.8967,1.0585,1.0717,1.0711,1.0697,1.0263,0.0,0.0,0.0,0.0,0.0,0.0,0.0,0.0,0.0,0.0,0.0,0.0,0.0,0.0,0.0,0.0,0.0,0.0,0.0,0.0,0.0,0.0,0.0,0.0,0.0,0.0,0.0,0.0,-2.4115,-0.3052,0.0,0.253,1.8972,2.9183,2.6919,2.8386,2.9175,2.8991,2.4864,2.2521,2.2596,2.0069,1.7663,1.554,1.554,1.4782,1.3568,1.2804,1.2804,1.3568,1.2804,1.2501,1.2501,1.2501,1.2501,1.2347,1.1095,1.125,1.2488,1.2325,1.2359,1.2313,1.0767,1.0446,1.0538,0.9223,0.8309,0.7709,0.7591,0.6671,0.5625,0.5107,0.4038,0.2994,0.2994,0.2275,0.1692,0.1692,0.2001,0.1997,0.1221,0.1056,0.0896,0.0148,0.0,0.0433,0.1901,0.1274,0.0681,0.1323,0.0939,0.0533,0.0872,0.1151,0.1446,0.1446,0.173,0.1881,0.1881,0.1881,0.2417,0.3624,0.3622,0.4426,0.6164,0.6297,0.6564,0.7236,0.8233,0.8893,0.8967,0.9634,0.9883,0.0,0.0,0.0,0.0,0.0,0.0,0.0,0.0,0.0,0.0,0.0,0.0,0.0,0.0,0.0,0.0,0.0,0.0,0.0,0.0,0.0,0.0,0.0,0.0,0.0,-2.7073,-2.5771,-3.4158,-1.4355,-0.2373,-0.8547,0.8787,2.1867,2.5707,2.7959,2.8917,2.8392,2.3983,2.0762,1.9629,1.7663,1.5845,1.4475,1.4475,1.3868,1.2501,1.2501,1.2501,1.2501,1.2501,1.2132,1.1428,1.1522,1.1065,1.0257,0.8929,0.914,1.0426,1.0342,1.0414,1.039,0.908,0.8673,0.8459,0.6324,0.5465,0.5249,0.444,0.4108,0.4252,0.4252,0.3142,0.2037,0.2037,0.1098,0.0,0.0,0.0,0.0,0.0,0.0,0.0,0.0,0.0,0.0,0.0,0.0,0.0,0.0,0.0,0.0,0.0,0.0,0.0,0.0,0.0,0.0,0.0,0.0,0.0538,0.1747,0.1725,0.2512,0.4423,0.4499,0.4744,0.5325,0.6761,0.7606,0.7801,0.91,0.9625,0.9381,0.0,0.0,0.0,0.0,0.0,0.0,0.0,0.0,0.0,0.0,0.0,0.0,0.0,0.0,0.0,0.0,0.0,0.0,0.0,0.0,0.0,0.0,0.0,-3.6215,-3.4004,-3.6366,-4.6737,-2.8781,-1.5986,-1.7019,-0.1022,1.4068,2.5408,2.31,2.2177,2.4143,1.8642,1.5353,1.5353,1.3392,1.2326,1.2326,1.2494,1.2501,1.2501,1.2501,1.2501,1.2501,1.2501,1.1262,0.9366,0.9285,0.8234,0.6319,0.6155,0.6251,0.6136,0.6319,0.6349,0.6465,0.6394,0.6458,0.6246,0.3901,0.3056,0.2717,0.0648,0.0,0.0,0.0,0.0,0.0,0.0,0.0,0.0,0.0,0.0,0.0,0.0,0.0,0.0,0.0,0.0,0.0,0.0,0.0,0.0,0.0,0.0,0.0,0.0,0.0,0.0,0.0,0.0,0.0,0.0,0.0,0.0,0.0,0.0,0.0772,0.2545,0.2581,0.3445,0.5116,0.6298,0.7128,0.7362,0.8561,0.9239,0.9388,0.0,0.0,0.0,0.0,0.0,0.0,0.0,0.0,0.0,0.0,0.0,0.0,0.0,0.0,0.0,0.0,0.0,0.0,0.0,0.0,0.0,-3.5643,-3.5854,-3.5908,-3.6018,-3.8896,-4.6698,-3.613,-2.7691,-2.6249,-1.1521,0.2971,1.5254,1.7935,1.9348,1.9966,1.4851,1.161,1.1026,0.9799,0.9527,1.0208,1.1721,1.2501,1.2501,1.2501,1.2501,1.2501,1.0934,1.0008,0.9251,0.7736,0.6832,0.6224,0.4665,0.4042,0.421,0.5629,0.6277,0.6149,0.468,0.308,0.1786,0.1095,0.0946,0.0808,0.0161,0.0,0.0,0.0,0.0,0.0,0.0,0.0,0.0,0.0,0.0,0.0,0.0,0.0,0.0,0.0,0.0,0.0,0.0,0.0,0.0,0.0,0.0,0.0,0.0,0.0,0.0,0.0,0.0,0.0,0.0,0.0,0.0,0.0,0.0,0.0257,0.0671,0.0798,0.0928,0.1469,0.2974,0.4896,0.7362,0.7552,0.8313,0.0,0.0,0.0,0.0,0.0,0.0,0.0,0.0,0.0,0.0,0.0,0.0,0.0,0.0,0.0,0.0,0.0,0.0,0.0,0.0,0.0,0.0,-3.7133,-3.7718,-4.0095,-3.9744,-4.221,-5.0547,-4.5978,-4.0504,-3.6508,-2.4297,-1.0658,0.3641,0.8355,1.1333,1.3185,0.9628,0.7468,0.726,0.7256,0.7268,0.7442,0.9071,0.9842,0.9842,0.9842,0.9842,0.9842,0.8641,0.7681,0.67,0.5408,0.4486,0.352,0.2275,0.1804,0.1976,0.0,0.0,0.0,0.0,0.0979,0.0,0.0,0.0,0.0,0.0,0.0,0.0,0.0,-0.0312,-0.0609,-0.0609,-0.09,-0.1038,-0.0606,-0.0598,-0.0443,-0.0151,0.0,0.0,0.0,0.0,0.0,0.0,0.0,0.0,0.0,0.0,0.0,0.0,0.0,0.0,0.0,0.0,0.0,0.0,0.0,0.0,0.0,0.0,0.0,0.0,0.0,0.0261,0.0779,0.1785,0.0,0.0,0.0,0.6341,0.7512,0.7256,0.0,0.0,0.8765,0.9313,0.0,0.0,0.0,0.0,0.0,0.0,0.0,0.0,0.0,0.0,0.0,0.0,0.0,0.0,0.0,0.0,-4.0059,-4.1723,-4.6484,-4.4736,-4.6761,-5.6852,-5.6311,-5.2691,-4.6699,-3.7117,-2.4501,-0.8295,-0.3016,0.1224,0.5461,0.3674,0.0,0.0,0.0,0.5379,0.4504,0.5707,0.6254,0.6254,0.6254,0.6254,0.6257,0.601,0.4852,0.3053,0.2868,0.1768,0.0,0.0,0.0,0.0,0.0,0.0,0.0,0.0,0.0,0.0,0.0,0.0,0.0,0.0,-0.0165,-0.0325,-0.0324,-0.1084,-0.191,-0.191,-0.2416,-0.2907,-0.2029,-0.1871,-0.1572,-0.0896,-0.0593,-0.0583,-0.0583,-0.0703,-0.0689,-0.0721,-0.0693,-0.0673,-0.0565,-0.0271,0.0,0.0,0.0,0.0,0.0,0.0,0.0,0.0,0.0,0.0,0.0,0.0,0.0,0.0,0.0,0.0505,0.1614,0.1737,0.231,0.3603,0.3768,0.409,0.458,0.458,0.4807,0.5253,0.7734,0.9042,0.0,0.0,0.0,0.0,0.0,0.0,0.0,0.0,0.0,0.0,0.0,0.0,0.0,0.0,0.0,-4.1233,-4.271,-4.4649,-4.7808,-5.0842,-5.518,-6.1753,-6.0818,-5.7946,-5.3661,-4.2584,-3.002,-1.6377,-0.8675,-0.2841,0.1083,0.0,-0.0146,0.0894,0.1942,0.2687,0.3419,0.5382,0.6254,0.6254,0.6254,0.0,0.6257,0.4547,0.3478,0.3043,0.1295,0.0328,0.0,0.0,0.0,0.0,0.0,0.0,0.0,0.0,0.0,0.0,0.0,0.0,0.0,0.0,-0.1135,-0.2556,-0.253,-0.3903,0.0,-0.5399,-0.5517,-0.5477,-0.5167,-0.5109,-0.5054,-0.4758,-0.4703,-0.4651,-0.4651,-0.4613,-0.4723,-0.4721,-0.4631,-0.4552,-0.4549,-0.205,0.0,0.0,0.0,0.0,0.0,0.0,0.0,0.0,0.0,0.0,0.0,0.0,0.0,0.0,0.0,0.0132,0.039,0.039,0.1159,0.277,0.2777,0.3568,0.4926,0.4926,0.5106,0.5338,0.5721,0.5929,0.0,0.0,0.0,0.0,0.0,0.0,0.0,0.0,0.0,0.0,0.0,-4.1227,-4.2584,0.0,-4.1966,-4.4166,-4.5204,-4.7197,-5.1411,-5.629,-6.0666,-6.377,-6.3475,-6.1573,-5.7985,-4.7811,-3.667,-2.5411,-1.6721,-1.0179,-0.6036,-0.5537,-0.4461,-0.2375,-0.1357,-0.0303,0.0749,0.2315,0.3133,0.3133,0.3133,0.3133,0.3133,0.205,0.1588,0.1438,0.0489,0.0,0.0,0.0,0.0,-0.0168,-0.1178,-0.1009,0.0,0.0,-0.066,-0.1676,-0.1638,-0.2463,-0.3323,-0.3285,-0.3895,-0.4808,-0.4752,-0.5717,-0.6939,-0.6939,-0.7256,-0.7425,-0.6782,-0.6739,-0.6551,-0.5903,-0.5863,-0.5808,-0.5808,-0.5808,-0.5798,-0.576,-0.5692,-0.5614,-0.5677,-0.4149,-0.2895,-0.2719,-0.2697,-0.2417,-0.1478,-0.1344,-0.0941,-0.0135,0.0,0.0,0.0,0.0,0.0,0.0,0.0,0.0,0.0,0.0,0.0398,0.1184,0.1184,0.1716,0.2524,0.2524,0.2533,0.2685,0.2532,0.3585,0.0,0.0,0.0,0.0,0.0,0.0,0.0,-4.3204,-4.3155,-4.5312,-4.4755,-4.4522,-4.6168,-4.5076,-4.49,-4.8303,-4.8577,-5.0232,-5.5845,-6.0581,-6.3859,-6.4918,-6.5528,-6.4381,-6.0779,-5.168,-4.1966,-3.2441,-2.4104,-1.7016,-1.1837,-1.0509,-0.8431,-0.4945,-0.3692,-0.2788,-0.1829,-0.0622,0.0,0.0,0.0,0.0,0.0,0.0,0.0,0.0,0.0,-0.0165,-0.0656,-0.0668,-0.0841,-0.1513,-0.3191,-0.2855,-0.1346,-0.1346,-0.2352,-0.4025,-0.385,-0.5171,-0.6646,-0.6571,-0.6654,-0.7061,-0.6997,-0.7667,-0.8548,-0.8548,-0.9007,-0.9475,-0.8607,-0.8302,-0.814,-0.7202,-0.6889,-0.697,-0.697,-0.697,-0.697,-0.697,-0.6896,-0.6811,-0.6737,-0.6848,-0.6497,-0.552,-0.5376,-0.4842,-0.3356,-0.3222,-0.2551,-0.0672,-0.0538,-0.0404,0.0,0.0,0.0,0.0,0.0,0.0,0.0,0.0,0.0,0.0,0.0,0.0,0.0,0.0,0.0,0.0,0.0,0.1613,-4.6702,-4.3227,-4.1705,-4.4127,-4.5489,-4.6737,0.0,-5.0366,-5.1266,-5.1166,-5.1309,-5.1762,-5.2539,-5.1377,-5.1123,-5.4057,-5.3736,-5.4856,-5.9801,-6.2204,-6.4435,-6.6964,-6.7921,-6.6565,-6.1985,-5.2426,-4.2746,-3.3697,-2.6583,-1.9426,-1.2278,-1.1918,-1.0167,-0.6213,-0.4174,-0.3094,-0.2962,-0.094,0.0,0.0,0.0,0.0,0.0,0.0,0.0,0.0,0.0,-0.1163,-0.3012,-0.302,-0.4195,-0.6032,-0.6199,-0.6202,-0.6035,-0.6035,-0.6032,-0.6359,-0.6129,-0.623,-0.6489,-0.6418,-0.7607,-0.9095,-0.9085,-1.044,-1.1939,-1.1939,-1.2046,-1.198,-1.175,-1.1626,-1.1488,-1.1257,-1.0989,-1.0894,-1.0894,-1.0894,-1.0894,-1.0894,-1.0915,-1.0812,-1.0799,-1.0689,-0.94,-0.5923,-0.5552,-0.5434,-0.5104,-0.5095,-0.4426,-0.2551,-0.2417,-0.1747,-0.0135,0.0,0.0,0.0,0.0,0.0,0.0,0.0,0.0,0.0,0.0,0.0,0.0,0.0,0.0,0.0,0.0,0.0269,-4.8738,-4.7937,-4.7934,-4.9044,-5.0309,-5.1715,-5.2705,-5.2835,-5.291,-5.3611,-5.3726,-5.3785,-5.4152,-5.3624,-5.3907,-5.5705,-5.6505,-5.8203,-6.1734,-6.4218,-6.6354,-6.8362,-6.7191,-6.4817,-6.1253,-5.4221,-4.6484,-3.8022,-3.0644,-2.3755,-1.7457,-1.5159,-1.2271,-0.8193,-0.7131,-0.6223,-0.5006,-0.2819,-0.2507,-0.3601,-0.235,-0.2507,-0.3601,-0.3601,-0.3638,-0.3866,-0.3931,-0.4482,-0.5198,-0.5365,-0.5867,-0.6867,-0.8207,-0.8707,-0.854,-0.7205,-0.7539,-0.8698,-0.8658,-0.9404,-1.0438,-1.0164,-1.0685,-1.1354,-1.1274,-1.1876,-1.2501,-1.2501,-1.2501,-1.2467,-1.2325,-1.2176,-1.202,-1.187,-1.1721,-1.1619,-1.1619,-1.1619,-1.1619,-1.1619,-1.1565,-1.1497,-1.1409,-1.1409,-1.0901,-0.9092,-0.8818,-0.8417,-0.7278,-0.7088,-0.6353,-0.4431,-0.4292,-0.3488,-0.1747,-0.1613,-0.1076,0.0,0.0,0.0,0.0,0.0,0.0,0.0,0.0,0.0,0.0,0.0,0.0,0.0,0.0,0.0,-5.0142,-5.0672,-5.1364,-5.3114,-5.4377,-5.5391,-5.6362,-5.5789,-5.5253,-5.6113,-5.622,-5.6018,-5.6018,-5.5766,-5.6191,-5.8143,-5.9405,-6.111,-6.4105,-6.6282,-6.7777,-6.8215,-6.5718,-6.2544,-5.887,-5.4291,-4.8304,-4.0708,-3.3603,-2.723,-2.1703,-1.8117,-1.4573,-1.0872,-0.9894,-0.8566,-0.7189,-0.5006,-0.4693,-0.6254,-0.4693,-0.4849,-0.6257,-0.6275,-0.6353,-0.6479,-0.6717,-0.7128,-0.7706,-0.7539,-0.804,-0.8707,-1.0377,-1.1048,-1.0882,-0.9207,-0.9545,-1.0876,-1.1009,-1.1934,-1.3146,-1.2956,-1.282,-1.2705,-1.2549,-1.2501,-1.2501,-1.2501,-1.2501,-1.2481,-1.2372,-1.2237,-1.2088,-1.1932,-1.1782,-1.1667,-1.1626,-1.1619,-1.1619,-1.1619,-1.1619,-1.1586,-1.147,-1.1545,-1.1545,-1.1321,-1.1287,-1.0835,-0.9359,-0.8713,-0.7786,-0.6309,-0.5781,-0.4845,-0.3624,-0.3488,-0.2819,-0.1613,-0.1076,-0.0807,-0.0807,-0.0269,0.0,0.0,0.0,0.0,0.0,0.0,0.0,0.0,0.0,0.0,-5.0457,-4.8872,-4.7905,-5.4789,-5.6104,-5.6636,-6.0086,-6.0872,-6.0663,-6.0006,-5.9917,-5.9946,-5.9946,-5.86,-5.8922,-6.3132,-6.3021,-6.3829,-6.7851,-6.8587,-6.7895,-6.5853,-6.3984,-6.0584,-5.4782,-5.1134,-4.6447,-4.013,-3.4326,-2.8627,-2.3126,-1.9625,-1.6987,-1.496,-1.1176,-0.9259,-0.9371,-0.7189,-0.6254,-0.6254,-0.6254,-0.6254,-0.6257,-0.6483,-0.656,-0.6479,-0.6717,-0.7954,-1.0044,-0.9878,-1.1214,-1.3231,-1.3231,-1.3231,-1.3231,-1.3231,-1.3231,-1.3211,-1.3227,-1.3173,-1.3125,-1.2834,-1.2732,-1.2705,-1.2549,-1.2501,-1.2501,-1.2501,-1.2501,-1.2501,-1.2494,-1.2393,-1.2244,-1.2094,-1.1938,-1.1789,-1.1647,-1.1619,-1.1619,-1.1619,-1.1619,-1.1619,-1.1613,-1.1613,-1.1613,-1.1606,-1.1606,-1.1497,-1.1199,-0.9625,-0.8285,-0.7922,-0.6504,-0.5573,-0.5369,-0.5362,-0.5228,-0.5228,-0.3622,-0.2551,-0.2551,-0.0941,0.0,0.0,0.0,0.0,0.0,0.0,0.0,0.0,0.0,0.0,-4.9571,-5.1706,-5.4469,-5.7242,-5.9297,-6.0696,-6.0997,-6.0775,-6.0236,-5.9578,-5.8053,-5.6738,-5.6442,-5.5424,-5.5873,-5.9661,-6.0694,-6.2838,-6.7935,-6.7227,-6.6619,-6.7831,-6.4001,-6.0446,-5.8304,-5.3036,-4.714,-4.0958,-3.6665,-3.1671,-2.5426,-2.2782,-1.9547,-1.5261,-1.3748,-1.2623,-1.1405,-0.9376,-0.9061,-1.0469,-1.0469,-1.0508,-1.06,-1.0725,-1.085,-1.0969,-1.11,-1.1511,-1.2222,-1.2222,-1.2727,-1.3403,-1.3403,-1.3403,-1.3403,-1.3403,-1.3336,-1.3241,-1.3193,-1.3112,-1.2996,-1.2793,-1.2664,-1.2569,-1.2515,-1.2501,-1.2501,-1.2501,-1.2501,-1.2501,-1.2501,-1.2393,-1.225,-1.2101,-1.1945,-1.1789,-1.1647,-1.1619,-1.1619,-1.1619,-1.1619,-1.1619,-1.1619,-1.1619,-1.1619,-1.1619,-1.1619,-1.1545,-1.1341,-1.0747,-1.0392,-1.0203,-0.9461,-0.8601,-0.7472,-0.7134,-0.6698,-0.5496,-0.4827,-0.4426,-0.4426,-0.2819,-0.1747,-0.1747,-0.0672,0.0,0.0,0.0,0.0,0.0,0.0,0.0,-5.2809,-5.5764,-5.8624,-6.0454,-6.1827,-6.2591,-6.1958,-6.1283,-6.0535,-5.9638,-5.7751,-5.5834,-5.4357,-5.345,-5.4157,-5.7684,-5.9059,-6.1826,-6.8036,-6.6955,-6.6181,-6.7968,-6.3911,-6.0418,-5.9096,-5.4022,-4.842,-4.2462,-3.8294,-3.3466,-2.7185,-2.428,-2.0979,-1.7221,-1.5755,-1.4541,-1.356,-1.1553,-1.125,-1.2501,-1.2501,-1.2556,-1.2657,-1.2868,-1.3054,-1.3275,-1.3384,-1.3446,-1.3577,-1.3473,-1.3403,-1.3403,-1.3403,-1.3403,-1.3403,-1.3403,-1.3302,-1.3173,-1.3173,-1.3078,-1.2935,-1.2779,-1.2664,-1.2576,-1.2515,-1.2501,-1.2501,-1.2501,-1.2501,-1.2501,-1.2501,-1.2433,-1.2318,-1.2108,-1.1986,-1.1857,-1.166,-1.1619,-1.1619,-1.1619,-1.1619,-1.1619,-1.1619,-1.1619,-1.1619,-1.1619,-1.1619,-1.1565,-1.1409,-1.1436,-1.1396,-1.1185,-1.1131,-1.0665,-0.9371,-0.9109,-0.8499,-0.7425,-0.6719,-0.6297,-0.6297,-0.4559,-0.3622,-0.3622,-0.2551,-0.1613,-0.0941,-0.0941,-0.0672,0.0,-0.0672,-0.0672,-5.9556,-6.0444,-6.0226,-6.4133,-6.3751,-6.2498,-6.2984,-6.2595,-6.1553,-6.0246,-5.8744,-5.6696,-5.3469,-5.2533,-5.3512,-5.7282,-5.8204,-6.0938,-6.8091,-6.7599,-6.65,-6.6453,-6.3818,-6.0649,-5.7267,-5.4256,-5.0203,-4.4636,-3.9472,-3.4096,-2.8622,-2.4168,-2.1475,-2.0791,-1.7175,-1.5308,-1.5531,-1.3568,-1.2656,-1.2656,-1.2656,-1.2656,-1.2522,-1.2813,-1.3113,-1.3514,-1.35,-1.3549,-1.3826,-1.3647,-1.3562,-1.3562,-1.3728,-1.3728,-1.3728,-1.3721,-1.3617,-1.3322,-1.3471,-1.338,-1.3082,-1.2766,-1.2876,-1.2998,-1.2697,-1.2656,-1.2804,-1.2804,-1.2804,-1.2804,-1.2804,-1.2804,-1.272,-1.2278,-1.2203,-1.212,-1.1681,-1.1619,-1.1619,-1.1619,-1.1619,-1.1619,-1.1619,-1.1619,-1.1619,-1.1619,-1.1619,-1.1565,-1.1423,-1.1531,-1.1511,-1.1219,-1.1307,-1.1335,-1.1185,-1.1036,-1.0948,-1.0948,-0.9175,-0.8163,-0.8163,-0.6431,-0.5496,-0.5496,-0.5496,-0.4559,-0.2819,-0.2819,-0.2016,-0.0269,-0.2016,-0.1881,-5.8684,-6.224,-6.5869,-6.5915,-6.587,-6.549,-6.4135,-6.2122,-6.0029,-5.7741,-5.4116,-5.0322,-4.6933,-4.5814,-4.7276,-5.2908,-5.4828,-5.8211,-6.5633,-6.615,-6.5982,-6.6549,-6.5428,-6.3615,-6.0967,-5.8053,-5.3799,-4.7462,-4.2211,-3.7133,-3.221,-2.8432,-2.5292,-2.286,-2.0491,-1.797,-1.554,-1.4935,-1.4782,-1.4782,-1.4782,-1.3936,-1.2671,-1.2752,-1.2986,-1.3221,-1.3295,-1.337,-1.3669,-1.5116,-1.5835,-1.5999,-1.7629,-1.8281,-1.8263,-1.7943,-1.6808,-1.568,-1.6948,-1.6398,-1.4782,-1.3071,-1.4546,-1.6824,-1.525,-1.5845,-1.7056,-1.7056,-1.7056,-1.7056,-1.7056,-1.6793,-1.6319,-1.4753,-1.4163,-1.3574,-1.1942,-1.1619,-1.1619,-1.1619,-1.1619,-1.1619,-1.1619,-1.1619,-1.1619,-1.1619,-1.1619,-1.1606,-1.1565,-1.1592,-1.1592,-1.1511,-1.1436,-1.1375,-1.1335,-1.1097,-1.0948,-1.0948,-1.0398,-1.0047,-1.0047,-0.8302,-0.7365,-0.7365,-0.603,-0.5228,-0.4693,-0.4693,-0.4426,-0.4024,-0.4559,-0.4426,-6.4341,-6.738,-6.9846,-6.8781,-6.838,-6.7157,-6.3066,-6.0757,-5.8359,-5.402,-5.0831,-4.767,-4.4325,-4.3973,-4.5874,-5.1162,-5.3548,-5.7351,-6.4685,-6.5344,-6.5758,-6.7452,-6.5913,-6.4169,-6.2837,-5.9522,-5.5173,-4.9554,-4.4522,-3.916,-3.3436,-3.1021,-2.8243,-2.4651,-2.2847,-2.0286,-1.6894,-1.6904,-1.6904,-1.6904,-1.6996,-1.6436,-1.5245,-1.5409,-1.573,-1.6104,-1.604,-1.614,-1.6518,-1.7647,-1.8118,-1.8118,-1.942,-1.9907,-1.9897,-1.9755,-1.8775,-1.7771,-1.8661,-1.8832,-1.8096,-1.5906,-1.6751,-1.8421,-1.7208,-1.7663,-1.8572,-1.8572,-1.8572,-1.8572,-1.8572,-1.84,-1.7734,-1.6646,-1.6149,-1.5381,-1.3348,-1.2888,-1.261,-1.1756,-1.1619,-1.1619,-1.1619,-1.1619,-1.1619,-1.1619,-1.1619,-1.1619,-1.1619,-1.1619,-1.1619,-1.1619,-1.1545,-1.1491,-1.1491,-1.128,-1.1111,-1.105,-1.09,-1.0792,-1.0724,-0.9775,-0.9238,-0.9238,-0.8169,-0.7369,-0.6564,-0.6564,-0.6164,-0.5362,-0.6164,-0.6164,-7.2113,-7.3093,-7.2779,-7.1854,-7.0554,-6.799,-6.1974,-5.9537,-5.6841,-5.0919,-4.8763,-4.7066,-4.4212,-4.4812,-4.7112,-5.1206,-5.3739,-5.7442,-6.3955,-6.4878,-6.5758,-6.8117,-6.5771,-6.3766,-6.3414,-5.9478,-5.5216,-5.1092,-4.6504,-4.0896,-3.4164,-3.2634,-3.0248,-2.6177,-2.4357,-2.2174,-1.9478,-1.9176,-1.9025,-1.9025,-1.9222,-1.9059,-1.8582,-1.8977,-1.9375,-1.9779,-1.9564,-1.9855,-2.0353,-2.039,-2.0393,-2.0393,-2.0716,-2.0716,-2.0716,-2.0684,-2.0366,-2.0126,-2.0053,-2.0902,-2.158,-1.939,-1.9025,-1.9327,-1.9025,-1.9176,-1.9327,-1.9327,-1.9327,-1.9327,-1.9327,-1.9159,-1.878,-1.8394,-1.8022,-1.7368,-1.5177,-1.4716,-1.429,-1.261,-1.2187,-1.19,-1.19,-1.1756,-1.1619,-1.1619,-1.1619,-1.1619,-1.1619,-1.1619,-1.1619,-1.1619,-1.1619,-1.1619,-1.1619,-1.1477,-1.1328,-1.1172,-1.1029,-1.088,-1.0724,-1.0717,-1.0717,-1.0717,-1.0717,-0.9915,-0.8296,-0.8296,-0.7631,-0.6164,-0.7631,-0.7498,-7.2076,-7.3603,-7.4694,-7.2879,-7.1259,-6.9222,-6.5652,-6.0842,-5.6104,-5.2736,-4.8614,-4.541,-4.48,-4.5476,-4.7701,-5.2532,-5.4811,-5.7188,-6.0526,-6.4168,-6.6341,-6.5888,-6.5961,-6.5344,-6.3558,-5.9109,-5.5155,-5.2343,-4.8643,-4.3747,-3.7651,-3.4595,-3.0954,-2.6523,-2.4676,-2.372,-2.3561,-2.19,-2.1141,-2.1141,-2.1187,-2.0274,-1.8572,-1.8653,-1.8958,-1.9327,-1.9209,-1.96,-2.0175,-2.1778,-2.2499,-2.2659,-2.4602,-2.5251,-2.5225,-2.4995,-2.3766,-2.2245,-2.3541,-2.2965,-2.1349,-1.9338,-2.0841,-2.3264,-2.1601,-2.2211,-2.3574,-2.3574,-2.3574,-2.3574,-2.3574,-2.3369,-2.2639,-2.0885,-2.0186,-1.9368,-1.7157,-1.6685,-1.6685,-1.6272,-1.5,-1.3872,-1.3872,-1.2602,-1.1619,-1.1619,-1.1619,-1.1619,-1.1619,-1.1619,-1.1619,-1.1619,-1.1619,-1.1619,-1.1619,-1.1477,-1.1328,-1.1172,-1.1029,-1.088,-1.0724,-1.0717,-1.0717,-1.0717,-1.0717,-1.0585,-1.018,-1.018,-1.0047,-0.9782,-1.0047,-1.0047,-7.1634,-7.4262,-7.6999,-7.4798,-7.3365,-7.059,-6.328,-5.8641,-5.4238,-4.8186,-4.4957,-4.3131,-4.288,-4.442,-4.7369,-5.2305,-5.5327,-5.8289,-6.1848,-6.4927,-6.6872,-6.6946,-6.6819,-6.5803,-6.357,-5.9574,-5.5719,-5.2223,-4.8545,-4.4831,-4.0745,-3.5839,-3.193,-2.9357,-2.7555,-2.6496,-2.6064,-2.5157,-2.4114,-2.3116,-2.3416,-2.2867,-2.1952,-2.1952,-2.2236,-2.2721,-2.2591,-2.2365,-2.2543,-2.4207,-2.4422,-2.4124,-2.5662,-2.6386,-2.636,-2.6066,-2.5231,-2.4418,-2.4921,-2.437,-2.3154,-2.2097,-2.2967,-2.4488,-2.3426,-2.387,-2.4636,-2.4636,-2.4529,-2.4409,-2.4409,-2.4075,-2.3417,-2.2395,-2.1144,-2.0064,-1.896,-1.7949,-1.7248,-1.7248,-1.6404,-1.5839,-1.5839,-1.5141,-1.4441,-1.4441,-1.3737,-1.3024,-1.3024,-1.3024,-1.2745,-1.1763,-1.1619,-1.1619,-1.1619,-1.1552,-1.1443,-1.1294,-1.1219,-1.1077,-1.0846,-1.0839,-1.0799,-1.0724,-1.0717,-1.0717,-1.0717,-1.0717,-1.0717,-1.0717,-1.0717,-1.0717,-7.2484,-7.5662,-7.8754,-7.6318,-7.5033,-7.1571,-6.1087,-5.6952,-5.2991,-4.4858,-4.2507,-4.1939,-4.2285,-4.4103,-4.7191,-5.2301,-5.5085,-5.839,-6.3423,-6.5146,-6.6601,-6.8468,-6.76,-6.6046,-6.3981,-6.0311,-5.6474,-5.2596,-4.8571,-4.4894,-4.1941,-3.6686,-3.3142,-3.1962,-3.0479,-2.9167,-2.8053,-2.8068,-2.7346,-2.5772,-2.5741,-2.5595,-2.5664,-2.516,-2.5344,-2.5945,-2.5638,-2.5321,-2.5012,-2.6061,-2.5845,-2.5039,-2.6087,-2.6386,-2.636,-2.6132,-2.5972,-2.5798,-2.5331,-2.509,-2.4943,-2.4716,-2.4636,-2.4636,-2.4636,-2.4636,-2.4636,-2.4636,-2.4422,-2.4209,-2.4209,-2.3808,-2.3407,-2.334,-2.195,-2.0756,-2.0756,-1.9495,-1.8369,-1.8369,-1.8089,-1.7809,-1.7809,-1.7529,-1.7248,-1.7248,-1.5981,-1.4991,-1.4991,-1.4991,-1.4432,-1.2888,-1.2466,-1.2043,-1.1619,-1.1619,-1.1552,-1.1402,-1.1389,-1.1274,-1.1002,-1.0962,-1.0894,-1.0772,-1.0738,-1.0717,-1.0717,-1.0717,-1.0717,-1.0717,-1.0717,-1.0717,-7.6109,-7.8653,-7.9397,-7.6454,-7.4627,-7.1604,-6.4029,-5.8697,-5.4058,-4.9396,-4.5361,-4.3592,-4.6472,-4.6637,-4.8104,-5.3769,-5.3637,-5.5178,-6.1926,-6.3012,-6.4512,-6.8388,-6.7745,-6.657,-6.5396,-6.1016,-5.7437,-5.5409,-5.0199,-4.4518,-3.8889,-3.6617,-3.4452,-3.1962,-3.1711,-3.1114,-3.0026,-3.0026,-2.9884,-2.9741,-2.8099,-2.7408,-2.7541,-2.5511,-2.5144,-2.5945,-2.5638,-2.5623,-2.5884,-2.6202,-2.6153,-2.5912,-2.6229,-2.6386,-2.6386,-2.636,-2.6012,-2.5545,-2.5491,-2.5117,-2.4676,-2.4649,-2.4636,-2.4636,-2.4636,-2.4636,-2.4636,-2.4636,-2.4422,-2.4209,-2.4209,-2.3968,-2.3661,-2.3394,-2.2948,-2.2585,-2.2585,-2.2435,-2.2435,-2.2435,-2.1032,-1.9773,-1.9773,-1.8379,-1.7248,-1.7248,-1.7107,-1.6967,-1.6967,-1.6967,-1.6826,-1.6685,-1.5141,-1.3452,-1.1763,-1.1619,-1.1552,-1.1402,-1.1389,-1.1314,-1.1151,-1.1016,-1.0941,-1.0928,-1.0792,-1.0717,-1.0717,-1.0717,-1.0717,-1.0717,-1.0717,-1.0717,-6.9748,-7.4534,-7.8822,-7.5811,-7.4255,-7.1253,-6.2419,-5.7534,-5.3428,-4.8099,-4.5133,-4.4145,-4.6086,-4.6368,-4.7787,-5.2233,-5.2704,-5.4981,-6.1887,-6.3229,-6.4971,-6.9003,-6.8886,-6.7701,-6.5794,-6.2112,-5.7706,-5.2533,-4.8238,-4.4625,-4.1523,-3.9061,-3.6873,-3.5111,-3.4393,-3.3311,-3.2018,-3.2018,-3.1456,-3.031,-2.9615,-2.9377,-2.9549,-2.848,-2.8603,-2.9549,-2.9198,-2.8206,-2.6892,-2.7842,-2.6894,-2.5017,-2.5959,-2.6386,-2.6373,-2.6199,-2.5865,-2.5491,-2.5317,-2.4983,-2.4636,-2.4636,-2.4636,-2.4636,-2.4636,-2.4636,-2.4636,-2.4636,-2.4422,-2.4168,-2.3981,-2.3581,-2.3193,-2.3073,-2.2953,-2.2859,-2.2859,-2.2859,-2.2859,-2.2859,-2.2297,-2.1734,-2.1734,-2.117,-2.0617,-2.0617,-1.9634,-1.8938,-1.8938,-1.8938,-1.8508,-1.7398,-1.6545,-1.5849,-1.5,-1.3872,-1.3278,-1.3208,-1.2087,-1.1457,-1.1307,-1.1246,-1.1172,-1.1077,-1.1016,-1.0941,-1.086,-1.086,-1.0812,-1.0717,-1.0717,-1.0717,-6.5515,-7.1552,-7.7502,-7.4931,-7.279,-6.9152,-6.0905,-5.6195,-5.2131,-4.6962,-4.5111,-4.4744,-4.5663,-4.5941,-4.7298,-5.1168,-5.2208,-5.4703,-6.1006,-6.271,-6.4677,-6.8401,-6.8487,-6.773,-6.6493,-6.3039,-5.8393,-5.2278,-4.9104,-4.6763,-4.5233,-4.2297,-3.9746,-3.7401,-3.6607,-3.5393,-3.402,-3.402,-3.3309,-3.2018,-3.1439,-3.1192,-3.1101,-3.0726,-3.0838,-3.1187,-3.1531,-3.0508,-2.8734,-2.9853,-2.8872,-2.6617,-2.7098,-2.7305,-2.712,-2.6364,-2.5772,-2.5464,-2.5184,-2.489,-2.4636,-2.4636,-2.4636,-2.4636,-2.4636,-2.4636,-2.4636,-2.4636,-2.4422,-2.4102,-2.3621,-2.326,-2.2979,-2.2886,-2.2859,-2.2859,-2.2859,-2.2859,-2.2859,-2.2859,-2.2859,-2.2859,-2.2859,-2.2859,-2.2859,-2.2859,-2.1734,-2.0894,-2.0894,-2.0894,-2.034,-1.9077,-1.8938,-1.8369,-1.7248,-1.5981,-1.5274,-1.5274,-1.3452,-1.2415,-1.2299,-1.1691,-1.1341,-1.1233,-1.1145,-1.105,-1.0948,-1.09,-1.0826,-1.0717,-1.0717,-1.0717,-6.637,-7.1444,-7.5371,-7.3883,-6.9848,-6.5026,-6.063,-5.5156,-5.0175,-4.7202,-4.6022,-4.5626,-4.6094,-4.5774,-4.6844,-5.1277,-5.2066,-5.3812,-5.8642,-6.0651,-6.2787,-6.5973,-6.5872,-6.6159,-6.783,-6.3683,-5.9677,-5.6841,-5.4268,-5.1678,-4.8969,-4.643,-4.283,-3.8013,-3.7905,-3.7237,-3.6016,-3.6016,-3.6016,-3.5879,-3.402,-3.2618,-3.1648,-3.1226,-3.0656,-2.9965,-3.1334,-3.2064,-3.2017,-3.2358,-3.2238,-3.191,-3.0124,-2.9449,-2.9094,-2.6818,-2.5772,-2.5464,-2.5184,-2.489,-2.4636,-2.4636,-2.4636,-2.4636,-2.4636,-2.4636,-2.4636,-2.4636,-2.4422,-2.3995,-2.31,-2.31,-2.3247,-2.2939,-2.2859,-2.2859,-2.2859,-2.2859,-2.2859,-2.2859,-2.2859,-2.2859,-2.2859,-2.2859,-2.2859,-2.2859,-2.2859,-2.2859,-2.2859,-2.2859,-2.2859,-2.2859,-2.2859,-2.1321,-1.7529,-1.7107,-1.7107,-1.7107,-1.5416,-1.4432,-1.4432,-1.2448,-1.1389,-1.1389,-1.1104,-1.0948,-1.0948,-1.0799,-1.0724,-1.0717,-1.0717,-1.0717,-5.8323,-6.2507,-6.6154,-6.5048,-6.3612,-6.1257,-5.6865,-5.3376,-5.0426,-4.83,-4.7017,-4.6735,-4.8021,-4.7897,-4.9034,-5.3465,-5.3486,-5.5219,-6.1617,-6.2927,-6.4458,-6.7674,-6.808,-6.7316,-6.5374,-6.2375,-5.9451,-5.6895,-5.3498,-5.1423,-5.109,-4.8346,-4.5103,-4.142,-4.0501,-3.9346,-3.7822,-3.7842,-3.7193,-3.6016,-3.5451,-3.4431,-3.3386,-3.4377,-3.4399,-3.3705,-3.5327,-3.529,-3.4149,-3.4426,-3.3559,-3.2069,-3.1645,-3.159,-3.1389,-3.028,-2.8897,-2.7682,-2.8664,-2.7906,-2.6648,-2.6648,-2.6648,-2.6357,-2.5065,-2.4636,-2.4596,-2.4396,-2.3981,-2.3541,-2.326,-2.31,-2.2979,-2.2886,-2.2859,-2.2859,-2.2859,-2.2859,-2.2859,-2.2859,-2.2859,-2.2859,-2.2859,-2.2859,-2.2859,-2.2859,-2.2859,-2.2859,-2.2859,-2.2859,-2.2859,-2.2859,-2.2859,-2.2435,-2.117,-1.9912,-1.9217,-1.9217,-1.7388,-1.6263,-1.6263,-1.5643,-1.4771,-1.3507,-1.3396,-1.2534,-1.1097,-1.1043,-1.0921,-1.0717,-1.0717,-1.0717,-5.3206,-5.7374,-6.1016,-6.0613,-5.9354,-5.7517,-5.4972,-5.1981,-4.9441,-4.8527,-4.8658,-4.9001,-4.8957,-4.9824,-5.1154,-5.3146,-5.4612,-5.6815,-6.0581,-6.2527,-6.4181,-6.5856,-6.7354,-6.7151,-6.4445,-6.2923,-6.1008,-5.8385,-5.5574,-5.3672,-5.3114,-5.0892,-4.8266,-4.5147,-4.3145,-4.1309,-3.9627,-3.9627,-3.8993,-3.7955,-3.7489,-3.6596,-3.5369,-3.6543,-3.6582,-3.5723,-3.7422,-3.7572,0.0,-3.6619,-3.585,-3.4466,-3.3804,-3.37,-3.3481,-3.2077,-3.0856,-2.9727,-3.0388,-2.9649,-2.8629,-2.8629,-2.8629,-2.8341,-2.7055,-2.5772,-2.4556,-2.4155,-2.3848,-2.3581,-2.3233,-2.31,-2.3006,-2.2886,-2.2859,-2.2859,-2.2859,-2.2859,-2.2859,-2.2859,-2.2859,-2.2859,-2.2859,-2.2859,-2.2859,-2.2859,-2.2859,-2.2859,-2.2859,-2.2859,-2.2859,-2.2859,-2.2859,-2.2859,-2.2859,-2.1885,-2.1183,-2.1183,-1.9356,-1.8229,-1.8229,-1.7529,-1.6685,-1.5416,-1.5343,-1.4736,-1.3199,-1.2391,-1.1567,-1.0717,-1.0717,-1.0751,0.0,-5.5086,-5.8815,-5.9178,-5.6437,-5.3785,-5.4383,-5.0814,0.0,-4.8534,-5.0904,-5.2094,-4.9576,-5.1813,-5.3441,-5.1411,-5.5552,-5.8498,-5.6907,-6.0358,-6.2641,-6.1567,-6.463,-6.6138,-6.4527,-6.4714,-6.3761,-6.0804,-5.9522,-5.7713,-5.515,-5.3773,-5.1811,-4.893,-4.5864,-4.3279,-4.1437,-4.1437,-4.1242,-4.0979,-3.9905,-3.8582,-3.7276,-3.7766,-3.7308,-3.6191,-3.7773,-3.8555,-3.8574,-3.8574,-3.8574,-3.8428,-3.6423,-3.5646,-3.5371,-3.2826,-3.1659,-3.1543,-3.0985,-3.0593,-3.0451,-3.0451,-3.0451,-3.031,-3.031,-2.7734,-2.4596,-2.4201,-2.4071,-2.3915,-2.3086,-2.3073,-2.322,-2.2926,-2.2859,-2.2859,-2.2859,-2.2859,-2.2859,-2.2859,-2.2859,-2.2859,-2.2859,-2.2859,-2.2859,-2.2859,-2.2859,-2.2859,-2.2859,-2.2859,-2.2859,-2.2859,-2.2859,-2.2859,-2.2859,-2.2859,-2.2859,-2.2859,-2.1321,-2.034,-2.034,-1.8508,-1.7529,-1.7388,-1.7164,-1.6803,-1.6591,-1.459,-1.2708,-1.1129,-1.101,-1.096,-4.8166,0.0,-5.053,-5.1128,-5.0138,-4.9306,0.0,-4.8861,-4.8327,-5.2671,-5.3466,-5.3527,-5.3905,-5.6681,-5.7987,-5.5023,-5.7518,-5.9715,-5.9278,-6.2843,-6.4563,-6.207,-6.6446,-6.7645,-6.2663,-6.386,-6.3761,-6.0804,-5.9522,-5.8398,-5.7315,-5.4997,-5.3303,-5.2622,-5.0121,-4.6954,-4.3107,-4.3083,-4.1522,-3.8675,-4.0423,-3.9522,-3.6318,-3.8561,-3.8854,-3.7542,-3.7867,-3.8262,-3.8574,-3.8574,-3.8574,-3.8574,-3.8117,-3.7613,-3.7249,-3.6285,-3.4733,-3.3376,-3.4325,-3.3725,-3.2455,-3.2455,-3.1456,-3.031,-3.031,-2.8381,-2.6135,-2.5988,-2.4554,-2.3126,-2.2913,-2.2913,-2.2953,-2.2886,-2.2859,-2.2859,-2.2859,-2.2859,-2.2859,-2.2859,-2.2859,-2.2859,-2.2859,-2.2859,-2.2859,-2.2859,-2.2859,-2.2859,-2.2859,-2.2859,-2.2859,-2.2859,-2.2859,-2.2859,-2.2859,-2.2859,-2.2859,-2.2859,-2.2448,-2.2297,-2.2297,-2.1734,-2.0894,-1.9495,-1.7866,-1.6803,-1.6591,-1.6201,-1.5672,-1.4988,-1.3823,-1.3238,-4.7566,-4.7831,-4.8636,-5.0897,-4.9928,-4.9019,-5.1544,-5.0033,-4.9565,-5.4555,-5.4754,-5.4398,-5.593,-5.7289,-5.7703,-5.627,-5.7362,-5.9214,-6.147,-6.4255,-6.513,-6.2705,-6.5043,-6.5608,-6.2331,-6.3847,-6.4148,-6.2144,-6.0816,-5.9724,-5.8845,-5.7242,-5.5647,-5.4425,-5.3051,-5.0318,-4.591,-4.5478,-4.3651,-4.0598,-4.2233,-4.1568,-3.8734,-4.0342,-4.0351,-3.8737,-3.8347,-3.8225,-3.8223,-3.7845,-3.796,-3.8555,-3.8359,-3.8125,-3.7851,-3.7226,-3.6278,-3.5153,-3.5742,-3.5314,-3.4452,-3.4452,-3.3725,-3.2874,-3.2874,-3.1323,-2.9175,-2.8047,-2.6771,-2.5496,-2.4402,-2.406,-2.3924,-2.3133,-2.2859,-2.2859,-2.2859,-2.2859,-2.2859,-2.2859,-2.2859,-2.2859,-2.2859,-2.2859,-2.2859,-2.2859,-2.2859,-2.2859,-2.2859,-2.2859,-2.2859,-2.2859,-2.2859,-2.2859,-2.2859,-2.2859,-2.2859,-2.2859,-2.2859,-2.2859,-2.2859,-2.2859,-2.2435,-2.1459,-2.0078,-1.9038,-1.809,-1.7981,-1.7459,-1.6532,-1.5721,-1.5282,-4.7863,-4.8468,-4.9895,-5.3941,-5.2113,-5.0327,-5.4315,-5.2173,-5.0809,-5.5958,-5.6223,-5.5987,-5.752,-5.795,-5.7793,-5.6758,-5.7157,-5.9078,-6.3398,-6.5333,-6.555,-6.3536,-6.3681,-6.3641,-6.298,-6.4171,-6.4667,-6.393,-6.2488,-6.1219,-6.0156,-5.9533,-5.8054,-5.5445,-5.5204,-5.3387,-4.9462,-4.8257,-4.6314,-4.384,-4.4695,-4.4099,-4.2353,-4.2821,-4.2171,-4.0694,-3.9671,-3.8849,-3.822,-3.7481,-3.7728,-3.8535,-3.8086,-3.7891,-3.7734,-3.6953,-3.6621,-3.6523,-3.6152,-3.6016,-3.6016,-3.6016,-3.6016,-3.6016,-3.6016,-3.458,-3.2639,-3.0651,-2.968,-2.8663,-2.6491,-2.595,-2.5577,-2.3665,-2.3256,-2.3256,-2.2996,-2.2859,-2.2859,-2.2859,-2.2859,-2.2859,-2.2859,-2.2859,-2.2859,-2.2859,-2.2859,-2.2859,-2.2859,-2.2859,-2.2859,-2.2859,-2.2859,-2.2859,-2.2859,-2.2859,-2.2859,-2.2859,-2.2859,-2.2859,-2.2859,-2.2859,-2.2859,-2.2859,-2.2619,-2.1771,-2.0207,-2.0026,-1.9101,-1.7712,-1.7474,-1.7329,-4.8115,-4.924,-5.1162,-5.4354,-5.1769,-4.964,-5.4375,-5.1908,-5.1026,-5.9517,-6.0929,-6.0912,-6.1644,-6.6819,-6.7995,-5.8972,-6.0487,-6.3313,-6.4711,-6.7378,-6.7955,-6.4593,-6.7839,-6.8622,-6.4122,-6.4456,-6.4878,-6.4693,-6.2791,-6.1643,-6.1532,-6.0505,-5.9195,-5.7613,-5.6858,-5.559,-5.3888,-5.1215,-4.7807,-4.384,-4.6734,-4.6761,-4.4227,-4.5158,-4.516,-4.437,-4.3148,-4.1668,-4.0116,-4.05,-3.978,-3.8535,-3.8086,-3.7715,-3.7344,-3.6855,-3.6445,-3.6113,-3.6035,-3.6016,-3.6016,-3.6016,-3.6016,-3.6016,-3.6016,-3.5588,-3.495,-3.4605,-3.1962,-2.9071,-2.808,-2.7995,-2.774,-2.5577,-2.5113,-2.4723,-2.3256,-2.2859,-2.2859,-2.2859,-2.2859,-2.2859,-2.2859,-2.2859,-2.2859,-2.2859,-2.2859,-2.2859,-2.2859,-2.2859,-2.2859,-2.2859,-2.2859,-2.2859,-2.2859,-2.2859,-2.2859,-2.2859,-2.2859,-2.2859,-2.2859,-2.2859,-2.2859,-2.2859,-2.2819,-2.2536,-2.2002,-2.2211,-2.2036,-2.1533,-2.0251,-1.9542,-4.8239,-4.9286,-5.1744,-5.8079,-5.4985,-5.2786,-6.1835,-5.7074,-5.3807,-6.4527,-6.131,-5.7928,-6.2362,-6.426,-6.4261,-6.1637,-6.6595,-7.0114,-6.8077,-6.9219,-6.9489,-6.7354,-6.8631,-6.8518,-6.5605,-6.5878,-6.6211,-6.6145,-6.4721,-6.3297,-6.2011,-6.1724,-6.0788,-5.8757,-5.8238,-5.7225,-5.5464,-5.4288,-5.1068,-4.6021,-4.8412,-4.7982,-4.5171,-4.6538,-4.6439,-4.5229,-4.4097,-4.3059,-4.2087,-4.1794,-4.1015,-4.0024,-3.9353,-3.8427,-3.7226,-3.6562,-3.6191,-3.6016,-3.6016,-3.6016,-3.6016,-3.6016,-3.6016,-3.6016,-3.6016,-3.5879,-3.5625,-3.5156,-3.3463,-3.1565,-3.0285,-2.9882,-2.9419,-2.7403,-2.6972,-2.6706,-2.592,-2.5786,-2.5517,-2.4452,-2.4317,-2.406,-2.2996,-2.2859,-2.2859,-2.2859,-2.2859,-2.2859,-2.2859,-2.2859,-2.2859,-2.2859,-2.2859,-2.2859,-2.2859,-2.2859,-2.2859,-2.2859,-2.2859,-2.2859,-2.2859,-2.2859,-2.2859,-2.2859,-2.2859,-2.2792,-2.2659,-2.2792,-2.2792,-2.2659,-2.1958,-2.1596,-4.8002,-4.9181,-5.2068,-6.0159,-5.7089,-5.5435,-6.818,-6.159,-5.6266,-6.8436,-6.269,-5.7486,-6.4193,-6.2199,-6.0878,-6.4994,-7.1135,-7.4497,-7.192,-7.1678,-7.1417,-7.0646,-6.9515,-6.8483,-6.772,-6.7393,-6.7371,-6.7583,-6.642,-6.482,-6.2676,-6.2907,-6.1927,-5.9576,-5.9315,-5.8288,-5.6712,-5.7067,-5.4488,-4.9114,-5.0168,-4.9385,-4.7052,-4.7856,-4.7555,-4.6166,-4.5454,-4.4726,-4.3936,-4.3298,-4.2587,-4.1656,-4.0573,-3.8779,-3.6914,-3.6269,-3.6016,-3.6016,-3.6016,-3.6016,-3.6016,-3.6016,-3.6016,-3.6016,-3.6016,-3.5879,-3.5586,-3.5019,-3.4414,-3.365,-3.219,-3.1746,-3.1156,-2.923,-2.8821,-2.8689,-2.8312,-2.8163,-2.7768,-2.6439,-2.6172,-2.5651,-2.4331,-2.4196,-2.4196,-2.4196,-2.3802,-2.3665,-2.406,-2.3393,-2.2996,-2.3529,-2.3133,-2.2859,-2.2859,-2.2859,-2.2859,-2.2859,-2.2859,-2.2859,-2.2859,-2.2859,-2.2859,-2.2859,-2.2859,-2.2859,-2.2859,-2.2859,-2.2859,-2.2859,-2.2859,-2.2859,-4.7348,-4.929,-5.2422,-5.7287,-5.4992,-5.5033,-6.8269,-6.1874,-5.6767,-6.9475,-6.8458,-6.6415,-7.0073,-6.7553,-6.6052,-6.9406,-7.0968,-7.2731,-7.5485,-7.5244,-7.4562,-7.4002,-7.2745,-7.1612,-7.101,-6.875,-6.7619,-6.8398,-6.673,-6.5429,-6.477,-6.3638,-6.2291,-6.0918,-5.9683,-5.9069,-5.8901,-5.8961,-5.7003,-5.3082,-5.2245,-5.1804,-5.1425,-5.013,-4.9188,-4.8584,-4.896,-4.7961,-4.5823,-4.6262,-4.5152,-4.297,-4.0857,-3.8412,-3.6113,-3.6035,-3.6016,-3.6016,-3.6016,-3.6016,-3.6016,-3.6016,-3.6016,-3.6016,-3.6016,-3.5449,-3.4863,-3.5234,-3.4434,-3.3457,-3.333,-3.3603,-3.3244,-3.112,-3.0642,-3.0125,-2.8558,-2.8163,-2.8163,-2.8032,-2.8048,-2.79,-2.79,-2.7768,-2.7768,-2.7768,-2.6439,-2.592,-2.7635,-2.4993,-2.3529,-2.5113,-2.3924,-2.2859,-2.2859,-2.2859,-2.2859,-2.2859,-2.2859,-2.2859,-2.2859,-2.2859,-2.2859,-2.2859,-2.2859,-2.2859,-2.2859,-2.2859,-2.2859,-2.2859,-2.2859,-2.2859,-4.7503,-4.9264,-5.267,-6.0304,-5.7061,-5.5634,-6.9547,-6.5548,-6.233,-7.461,-6.9682,-6.33,-6.3644,-6.6783,-6.9571,-7.0287,-7.3148,-7.5501,-7.6198,-7.5633,-7.4905,-7.4379,-7.3484,-7.2495,-7.132,-6.9752,-6.8646,-6.8343,-6.709,-6.5932,-6.4959,-6.3638,-6.239,-6.0989,-5.9758,-5.9099,-5.9099,-5.9099,-5.8377,-5.695,-5.5534,-5.3882,-5.1989,-5.1393,-5.0434,-4.9289,-4.9515,-4.9053,-4.8207,-4.8403,-4.7064,-4.4781,-4.2105,-4.0342,-3.9256,-3.9256,-3.8618,-3.7575,-3.7575,-3.6924,-3.6016,-3.6016,-3.6016,-3.5976,-3.5703,-3.5586,-3.5391,-3.4746,-3.4394,-3.416,-3.3887,-3.375,-3.3486,-3.2657,-3.2365,-3.2237,-3.1579,-3.1451,-3.1047,-2.9995,-2.9865,-2.9474,-2.8427,-2.8163,-2.8163,-2.8163,-2.7635,-2.737,-2.8163,-2.6972,-2.6455,-2.7105,-2.5517,-2.406,-2.2996,-2.2859,-2.2859,-2.2859,-2.2859,-2.2859,-2.2859,-2.2859,-2.2859,-2.2859,-2.2859,-2.2859,-2.2859,-2.2859,-2.2859,-2.2859,-2.2859,-2.2859,-4.7683,-4.9298,-5.2531,-6.038,-5.7499,-5.6381,-7.0127,-6.7459,-6.518,-7.6313,-7.2619,-6.6609,-6.3968,-6.8219,-7.1684,-7.0444,-7.32,-7.5716,-7.6159,-7.5421,-7.471,-7.4336,-7.3639,-7.2706,-7.1635,-7.04,-6.9386,-6.8723,-6.7535,-6.644,-6.5559,-6.3952,-6.2585,-6.1696,-5.997,-5.9099,-5.9099,-5.9099,-5.9099,-5.9099,-5.8026,-5.6022,-5.3402,-5.2455,-5.1393,-5.0308,-4.9847,-4.959,-4.959,-4.959,-4.8084,-4.5575,-4.3226,-4.1859,-4.1181,-4.1181,-4.0408,-3.9387,-3.8729,-3.7822,-3.6789,-3.6152,-3.5937,-3.5762,-3.5488,-3.5391,-3.5215,-3.4316,-3.418,-3.4238,-3.3945,-3.3652,-3.3418,-3.3418,-3.3418,-3.3418,-3.3418,-3.3418,-3.3019,-3.1835,-3.1561,-3.1176,-3.0012,-2.9882,-2.9882,-2.9882,-2.9344,-2.9213,-2.9735,-2.8821,-2.8163,-2.8163,-2.7105,-2.592,-2.4723,-2.4588,-2.4331,-2.3802,-2.3652,-2.3529,-2.2859,-2.2859,-2.2859,-2.2859,-2.2859,-2.2859,-2.2859,-2.2859,-2.2859,-2.2859,-2.2859,-2.2859,-4.7799,-4.9495,-5.2003,-5.6149,-5.5505,-5.7116,-6.964,-6.6842,-6.4194,-7.3409,-7.8146,-7.9072,-7.3904,-7.2996,-7.2328,-7.0174,-7.0551,-7.2277,-7.5543,-7.5018,-7.4293,-7.4293,-7.3224,-7.2496,-7.2496,-7.08,-6.9708,-6.9708,-6.7901,-6.6812,-6.6812,-6.4414,-6.3004,-6.3004,-6.0463,-5.9099,-5.9099,-5.9099,-5.9099,-5.9099,-5.9099,-5.8276,-5.6593,-5.3522,-5.1962,-5.1838,-5.0308,-4.959,-4.959,-4.959,-4.7967,-4.5286,-4.4135,-4.2706,-4.1309,-4.1309,-4.1181,-4.0924,-3.9256,-3.8597,-3.8353,-3.6539,-3.5723,-3.5391,-3.5391,-3.4766,-3.4082,-3.4062,-3.375,-3.3437,-3.3418,-3.3418,-3.3418,-3.3418,-3.3418,-3.3418,-3.3418,-3.3418,-3.3418,-3.3418,-3.3418,-3.3418,-3.3418,-3.3418,-3.3418,-3.3418,-3.1963,-3.1433,-3.3165,-3.0401,-2.8295,-2.818,-2.8163,-2.8163,-2.8163,-2.8163,-2.737,-2.5651,-2.5517,-2.4723,-2.2996,-2.2859,-2.2859,-2.2859,-2.2859,-2.2859,-2.2859,-2.2859,-2.2859,-2.2859,-2.2859,-2.2859,-5.0542,-5.0983,-5.133,-5.6128,-5.6943,-5.7815,-6.2758,-6.5407,-6.8501,-7.434,-7.5832,-7.474,-7.02,-7.3579,-7.5671,-7.1414,-7.3381,-7.5447,-7.537,-7.4749,-7.4161,-7.3699,-7.2997,-7.2011,-7.0668,-7.0058,-6.913,-6.7742,-6.7112,-6.6812,-6.6812,-6.526,-6.3952,-6.3004,-6.1325,-6.0045,-5.9099,-5.9099,-5.9099,-5.9099,-5.9099,-5.8276,-5.6707,-5.5763,-5.3901,-5.1434,-5.1335,-5.0458,-4.8987,-4.8586,-4.7733,-4.6514,-4.5822,-4.5281,-4.4767,-4.4767,-4.4003,-4.2832,-4.2328,-4.1415,-4.0148,-3.8353,-3.7513,-3.684,-3.5376,-3.4726,-3.4394,-3.3789,-3.375,-3.3809,-3.3496,-3.3418,-3.3418,-3.3418,-3.3418,-3.3418,-3.3418,-3.3418,-3.3418,-3.3418,-3.3418,-3.3418,-3.3418,-3.3418,-3.3418,-3.3418,-3.3019,-3.2765,-3.3292,-3.2492,-3.1451,-3.0125,-2.9995,-2.9474,-2.8295,-2.8163,-2.79,-2.737,-2.737,-2.6054,-2.2996,-2.2859,-2.2859,-2.2859,-2.2859,-2.2859,-2.2859,-2.2859,-2.2859,-2.2859,-2.2859,-2.2859,-5.2833,-5.3504,-5.4479,-6.0955,-6.039,-5.9086,-6.2155,-6.6192,-7.0948,-7.69,-7.7675,-7.6355,-7.3253,-7.6044,-7.766,-7.4125,-7.5187,-7.6126,-7.5203,-7.4426,-7.3794,-7.3442,-7.2871,-7.1951,-7.04,-6.9919,-6.9056,-6.742,-6.7029,-6.6812,-6.6812,-6.5559,-6.4322,-6.3004,-6.1696,-6.0432,-5.9099,-5.9099,-5.9099,-5.9099,-5.9099,-5.8486,-5.7173,-5.6586,-5.5223,-5.3362,-5.2177,-5.0623,-4.8711,-4.7933,-4.7405,-4.7079,-4.6527,-4.6301,-4.6301,-4.6301,-4.5671,-4.462,-4.3979,-4.3083,-4.1902,-3.9908,-3.8508,-3.7398,-3.5828,-3.4834,-3.4082,-3.3574,-3.3613,-3.375,-3.3496,-3.3418,-3.3418,-3.3418,-3.3418,-3.3418,-3.3418,-3.3418,-3.3418,-3.3418,-3.3418,-3.3418,-3.3418,-3.3418,-3.3418,-3.3418,-3.3418,-3.3418,-3.3418,-3.3418,-3.3019,-3.1963,-3.1835,-3.1433,-3.0401,-3.0272,-2.9995,-2.9344,-2.9213,-2.8032,-2.5128,-2.4993,-2.4723,-2.3924,-2.3924,-2.3529,-2.2859,-2.2859,-2.2859,-2.2859,-2.2859,-2.2926,-5.4827,-5.6433,-5.9337,-6.7259,-6.414,-6.0644,-6.6602,-6.8964,-7.2205,-8.0238,-8.1585,-8.1154,-8.0354,-7.9507,-7.8584,-7.7553,-7.6169,-7.5167,-7.5054,-7.4079,-7.3391,-7.3341,-7.2816,-7.2071,-7.1095,-7.0196,-6.9241,-6.8146,-6.7291,-6.6812,-6.6812,-6.5734,-6.4505,-6.3196,-6.1896,-6.0536,-5.9285,-5.9207,-5.9069,-5.9009,-5.9009,-5.871,-5.8005,-5.6676,-5.6272,-5.6365,-5.2642,-5.013,-4.8787,-4.7531,-4.7104,-4.7004,-4.6502,-4.6301,-4.6301,-4.6301,-4.6301,-4.6059,-4.4497,-4.3955,-4.344,-4.1331,-3.9308,-3.755,-3.6917,-3.5228,-3.367,-3.367,-3.3544,-3.3418,-3.3418,-3.3418,-3.3418,-3.3418,-3.3418,-3.3418,-3.3418,-3.3418,-3.3418,-3.3418,-3.3418,-3.3418,-3.3418,-3.3418,-3.3418,-3.3418,-3.3418,-3.3418,-3.3418,-3.3418,-3.3418,-3.3418,-3.3418,-3.3418,-3.3418,-3.3418,-3.2746,-3.1176,-3.1029,-3.0384,-2.8689,-2.8427,-2.737,-2.5786,-2.5786,-2.4993,-2.3393,-2.3256,-2.3133,-2.3133,-2.2996,-2.3033,-5.7381,-5.7309,-5.6386,-5.9669,-5.9821,-6.2116,-7.3426,-7.4583,-7.4732,-7.9892,-7.869,-7.7575,-8.0577,-8.0285,-7.9285,-7.84,-7.705,-7.5742,-7.4623,-7.3841,-7.3187,-7.2761,-7.261,-7.1854,-7.0196,-6.9849,-6.8982,-6.7243,-6.6862,-6.6812,-6.6812,-6.6525,-6.5855,-6.4505,-6.3259,-6.1896,-6.0609,-5.9576,-5.886,-5.8351,-5.8351,-5.8261,-5.8141,-5.8297,-5.7504,-5.5676,-5.1557,-4.9508,-4.9031,-4.7668,-4.6878,-4.6476,-4.6351,-4.6301,-4.6301,-4.6301,-4.6301,-4.6301,-4.5914,-4.5519,-4.4762,-4.2994,-4.1555,-4.0306,-3.8886,-3.6924,-3.5335,-3.5335,-3.4383,-3.3418,-3.3418,-3.3418,-3.3418,-3.3418,-3.3418,-3.3418,-3.3418,-3.3418,-3.3418,-3.3418,-3.3418,-3.3418,-3.3418,-3.3418,-3.3418,-3.3418,-3.3418,-3.3418,-3.3418,-3.3418,-3.3418,-3.3418,-3.3418,-3.3418,-3.3418,-3.3418,-3.3292,-3.2892,-3.2892,-3.2638,-3.2237,-2.9605,-2.8032,-2.7635,-2.7635,-2.737,-2.7105,-2.5651,-2.4979,-2.4844,-2.3529,-2.3033,-5.6407,-5.8265,-5.9615,-6.3091,-6.5912,-6.9021,-7.3583,-7.5437,-7.6763,-7.8792,-7.8672,-7.8805,-8.0854,-8.0131,-7.9015,-7.8554,-7.6761,-7.5122,-7.4412,-7.3541,-7.2871,-7.2553,-7.2496,-7.1732,-6.9919,-6.9708,-6.8908,-6.6946,-6.6812,-6.6812,-6.6812,-6.6812,-6.6235,-6.4959,-6.3638,-6.239,-6.0989,-5.9758,-5.877,-5.8112,-5.8112,-5.7962,-5.7663,-5.8321,-5.7163,-5.4615,-5.2463,-5.0688,-4.9206,-4.8195,-4.7248,-4.6301,-4.6301,-4.6301,-4.6301,-4.6301,-4.6301,-4.6301,-4.6301,-4.6125,-4.5654,-4.4224,-4.2831,-4.1543,-4.0197,-3.8425,-3.676,-3.6051,-3.5211,-3.4383,-3.3544,-3.3418,-3.3418,-3.3418,-3.3418,-3.3418,-3.3418,-3.3418,-3.3418,-3.3418,-3.3418,-3.3418,-3.3418,-3.3418,-3.3418,-3.3418,-3.3418,-3.3418,-3.3418,-3.3418,-3.3418,-3.3418,-3.3418,-3.3418,-3.3418,-3.3418,-3.3418,-3.3418,-3.3418,-3.3418,-3.3418,-3.1707,-3.0272,-2.9474,-2.9474,-2.9083,-2.8163,-2.7238,-2.6839,-2.6706,-2.5154,-2.4592,-5.4058,-5.8763,-6.4146,-6.9214,-7.2847,-7.4515,-7.2084,-7.4486,-7.7304,-7.7553,-7.94,-8.0862,-8.0669,-7.9361,-7.8254,-7.8154,-7.597,-7.4249,-7.4161,-7.3172,-7.2496,-7.2496,-7.2496,-7.1732,-6.9919,-6.9708,-6.8908,-6.6946,-6.6812,-6.6812,-6.6812,-6.6812,-6.632,-6.526,-6.3764,-6.2487,-6.1395,-5.9743,-5.859,-5.7932,-5.7842,-5.7423,-5.6795,-5.7483,-5.6492,-5.4235,-5.3877,-5.2349,-4.9836,-4.8948,-4.7743,-4.6636,-4.6421,-4.6301,-4.6301,-4.6301,-4.6301,-4.6301,-4.6301,-4.6175,-4.5874,-4.5045,-4.3777,-4.2375,-4.1485,-4.0013,-3.8455,-3.7023,-3.6396,-3.5928,-3.4632,-3.4027,-3.3776,-3.3776,-3.3544,-3.3418,-3.3418,-3.3418,-3.3418,-3.3418,-3.3418,-3.3418,-3.3418,-3.3418,-3.3418,-3.3418,-3.3418,-3.3418,-3.3418,-3.3418,-3.3457,-3.3535,-3.3535,-3.3535,-3.3535,-3.3535,-3.3496,-3.3437,-3.3496,-3.3535,-3.3535,-3.3594,-3.2976,-3.1506,-3.1377,-3.0513,-2.9083,-2.8821,-2.8723,-2.8675,-2.7233,-2.6481,-5.2466,-5.7902,-6.406,-6.8554,-6.83,-6.8586,-7.4637,-7.4581,-7.4081,-7.6976,-7.843,-7.9084,-7.8861,-7.8092,-7.7278,-7.6759,-7.5317,-7.4117,-7.3602,-7.2943,-7.2496,-7.2496,-7.2496,-7.1732,-6.9919,-6.9708,-6.8908,-6.6946,-6.6812,-6.6812,-6.6812,-6.6812,-6.6728,-6.6525,-6.423,-6.2908,-6.2682,-5.9704,-5.7902,-5.7214,-5.6675,-5.6077,-5.5478,-5.6137,-5.6213,-5.5797,-5.3867,-5.2865,-5.2301,-4.9562,-4.8416,-4.8094,-4.6755,-4.6301,-4.6301,-4.6301,-4.6301,-4.6301,-4.6301,-4.5673,-4.4895,-4.5271,-4.4577,-4.3522,-4.3373,-4.2238,-4.0811,-4.013,-3.8935,-3.7865,-3.7626,-3.6539,-3.5437,-3.5437,-3.4363,-3.3418,-3.3418,-3.3418,-3.3418,-3.3418,-3.3418,-3.3418,-3.3418,-3.3418,-3.3418,-3.3418,-3.3418,-3.3418,-3.3418,-3.3418,-3.3574,-3.3945,-3.3984,-3.3984,-3.3984,-3.3984,-3.3828,-3.3437,-3.3769,-3.3984,-3.3984,-3.4336,-3.4401,-3.412,-3.3405,-3.2892,-3.2765,-3.1176,-3.0692,-3.0918,-2.9211,-2.7826,-5.4401,-5.7851,-6.1616,-7.0819,-6.9163,-6.7342,-7.4976,-7.4164,-7.2723,-7.6015,-7.6976,-7.7476,-7.8323,-7.7823,-7.7124,-7.6499,-7.5238,-7.4072,-7.3492,-7.2889,-7.2496,-7.2496,-7.2496,-7.1732,-6.9919,-6.9708,-6.8908,-6.6946,-6.6812,-6.6812,-6.6812,-6.6812,-6.6812,-6.6812,-6.4322,-6.3004,-6.3004,-5.9716,-5.7603,-5.6585,-5.5927,-5.5478,-5.5209,-5.5478,-5.5628,-5.5598,-5.4657,-5.3756,-5.2857,-5.1537,-5.0518,-4.9621,-4.8094,-4.7534,-4.7416,-4.6636,-4.6301,-4.6276,-4.5949,-4.5522,-4.5095,-4.502,-4.4468,-4.379,-4.379,-4.3109,-4.2079,-4.0894,-4.0129,-3.9288,-3.8461,-3.7746,-3.7122,-3.7122,-3.666,-3.5827,-3.4984,-3.4027,-3.3418,-3.3418,-3.3418,-3.3418,-3.3418,-3.3418,-3.3418,-3.3418,-3.3418,-3.3418,-3.3418,-3.3418,-3.3496,-3.3691,-3.3711,-3.3809,-3.4043,-3.4082,-3.4101,-3.4141,-3.4316,-3.4434,-3.4434,-3.4609,-3.4707,-3.4707,-3.4336,-3.4141,-3.4141,-3.3325,-3.3011,-3.3218,-3.1675,-3.0583,-5.457,-5.6558,-5.8538,-6.9503,-6.7859,-6.5382,-7.2075,-7.1673,-7.0771,-7.4014,-7.5399,-7.6331,-7.7431,-7.7131,-7.6509,-7.5778,-7.4757,-7.3841,-7.3275,-7.2761,-7.2496,-7.2496,-7.2496,-7.1732,-6.9919,-6.9708,-6.8908,-6.6946,-6.6812,-6.6812,-6.6812,-6.6812,-6.6812,-6.6812,-6.4159,-6.2716,-6.2716,-5.9389,-5.7064,-5.5927,-5.5418,-5.5179,-5.5179,-5.5179,-5.5179,-5.5179,-5.5179,-5.4641,-5.3518,-5.3174,-5.2295,-5.1044,-4.9194,-4.8532,-4.83,-4.6874,-4.6225,-4.605,-4.5623,-4.5397,-4.5196,-4.4769,-4.4342,-4.3991,-4.384,-4.3514,-4.2912,-4.1582,-4.1191,-4.0937,-3.9756,-3.917,-3.8817,-3.8817,-3.8461,-3.7746,-3.6173,-3.4487,-3.3418,-3.3418,-3.3418,-3.3418,-3.3418,-3.3418,-3.3418,-3.3418,-3.3418,-3.3418,-3.3418,-3.3418,-3.3457,-3.3574,-3.3594,-3.3711,-3.4043,-3.4082,-3.4199,-3.4531,-3.4648,-3.4746,-3.4863,-3.498,-3.5039,-3.5039,-3.5039,-3.4922,-3.4707,-3.4707,-3.4766,-3.4883,-3.3685,-3.3057,-5.0303,-5.2855,-5.5259,-6.0876,-6.0599,-6.0112,-6.4502,-6.5856,-6.7128,-7.0475,-7.3745,-7.5856,-7.5386,-7.5241,-7.4866,-7.3774,-7.3492,-7.3275,-7.263,-7.2496,-7.2496,-7.2496,-7.2496,-7.1732,-6.9919,-6.9708,-6.8908,-6.6946,-6.6812,-6.6812,-6.6812,-6.6812,-6.6812,-6.6812,-6.3669,-6.2107,-6.2107,-5.8224,-5.5927,-5.5239,-5.5209,-5.5179,-5.5179,-5.5179,-5.5179,-5.5179,-5.5179,-5.5179,-5.4976,-5.3623,-5.2963,-5.2644,-4.9648,-4.8532,-4.83,-4.6874,-4.5974,-4.5522,-4.5497,-4.5121,-4.4669,-4.4644,-4.4593,-4.4493,-4.3966,-4.379,-4.3639,-4.3,-4.2849,-4.2849,-4.2737,-4.1672,-4.0476,-4.0476,-3.9288,-3.7746,-3.6173,-3.4487,-3.3418,-3.3418,-3.3418,-3.3418,-3.3418,-3.3418,-3.3418,-3.3418,-3.3418,-3.3418,-3.3418,-3.3418,-3.3574,-3.4004,-3.4043,-3.4043,-3.4082,-3.4082,-3.4082,-3.4101,-3.4473,-3.4902,-3.5351,-3.5742,-3.5957,-3.5957,-3.5957,-3.5547,-3.4707,-3.4707,-3.4922,-3.5351,-3.5237,-3.4467,-5.0033,-5.049,-5.147,-5.8769,-5.7091,-5.5441,-6.2458,-6.4586,-6.5551,-6.7321,-7.1812,-7.4587,-7.1825,-7.3383,-7.4711,-7.3602,-7.3391,-7.3172,-7.2573,-7.2496,-7.2496,-7.2496,-7.2496,-7.1732,-6.9919,-6.9708,-6.8908,-6.6946,-6.5053,-6.4816,-6.6711,-6.5019,-6.485,-6.6745,-6.4939,-6.2643,-6.0164,-5.7547,-5.5837,-5.5179,-5.5179,-5.5179,-5.5179,-5.5179,-5.5179,-5.5179,-5.5179,-5.5179,-5.5179,-5.4641,-5.4406,-5.42,-5.2187,-5.074,-4.968,-4.7906,-4.6652,-4.5924,-4.5196,-4.4794,-4.4618,-4.4618,-4.4141,-4.3589,-4.374,-4.3564,-4.3237,-4.3037,-4.2986,-4.2986,-4.2986,-4.2625,-4.215,-4.215,-4.0961,-3.9639,-3.903,-3.676,-3.4612,-3.3544,-3.3418,-3.3418,-3.3418,-3.3418,-3.3418,-3.3418,-3.3418,-3.3418,-3.3418,-3.3418,-3.3476,-3.3633,-3.3652,-3.3769,-3.4043,-3.4082,-3.418,-3.4453,-3.4609,-3.4902,-3.5371,-3.5527,-3.5742,-3.6016,-3.6016,-3.5859,-3.5547,-3.5547,-3.5625,-3.5801,-3.5801,-3.5452,-4.8716,-4.858,-4.911,-5.5078,-5.364,-5.2337,-5.8291,-6.2021,-6.4397,-6.5282,-7.0157,-7.3572,-7.1316,-7.2645,-7.3916,-7.3201,-7.3066,-7.2943,-7.2553,-7.2496,-7.2496,-7.2496,-7.2496,-7.1732,-6.9919,-6.9708,-6.8908,-6.6946,-6.4986,-6.4613,-6.6339,-6.4816,-6.4349,-6.5462,-6.4035,-6.162,-5.8452,-5.6698,-5.5628,-5.5179,-5.5179,-5.5179,-5.5179,-5.5179,-5.5179,-5.5179,-5.5179,-5.5179,-5.5179,-5.5179,-5.5179,-5.5078,-5.3623,-5.2259,-5.0847,-4.8798,-4.7288,-4.6305,-4.4986,-4.4618,-4.4568,-4.4192,-4.3689,-4.3288,-4.3463,-4.3263,-4.2986,-4.2986,-4.2986,-4.2986,-4.2986,-4.2986,-4.2986,-4.2986,-4.215,-4.1305,-4.0707,-3.8439,-3.6295,-3.5232,-3.4984,-3.486,-3.4258,-3.4258,-3.4007,-3.3544,-3.3418,-3.3418,-3.3418,-3.3418,-3.3476,-3.3633,-3.3516,-3.3594,-3.4043,-3.3945,-3.4043,-3.4453,-3.4492,-3.4687,-3.5137,-3.5312,-3.5527,-3.5801,-3.5937,-3.6016,-3.6016,-3.6016,-3.6016,-3.6016,-3.6016,-3.6016,0.0,0.0,0.0,-4.928,-5.0064,-5.0856,-5.1702,-5.7703,-6.3358,-6.4218,-6.8671,-7.2773,-7.3888,-7.3044,-7.2244,-7.2463,-7.2496,-7.2496,-7.2496,-7.2496,-7.2496,-7.2496,-7.2496,-7.1732,-6.9919,-6.9672,-6.8798,-6.6912,-6.6677,-6.6339,-6.5696,-6.6339,-6.553,-6.2967,-6.0947,-5.9058,-5.7117,-5.5819,-5.5179,-5.5179,-5.5179,-5.5179,-5.5179,-5.5179,-5.5179,-5.5179,-5.5179,-5.5179,-5.5179,-5.5179,-5.5179,-5.5078,-5.3623,-5.2588,-5.1785,-4.9405,-4.7766,-4.6567,-4.517,-4.4618,-4.4418,-4.3338,-4.3363,-4.3689,-4.3137,-4.2986,-4.2986,-4.2986,-4.2986,-4.2986,-4.2986,-4.2986,-4.2986,-4.2986,-4.2986,-4.2625,-4.0961,-3.9405,-3.8342,-3.8223,-3.8223,-3.7746,-3.6173,-3.5928,-3.5335,-3.3776,-3.3544,-3.3544,-3.3544,-3.3544,-3.3701,-3.4152,-3.3672,-3.3594,-3.4043,-3.3672,-3.3594,-3.4023,-3.4062,-3.4238,-3.4668,-3.5117,-3.5371,-3.5391,-3.5801,-3.6016,-3.6016,-3.6016,-3.6016,-3.6016,-3.6016,-3.6016,-4.6925,0.0,0.0,0.0,0.0,0.0,-5.0856,-5.5049,-5.888,-5.9366,-6.4191,-6.852,-6.9012,-7.0434,-7.1766,-7.2443,-7.2496,-7.2496,-7.2496,-7.2496,-7.2496,-7.2496,-7.1915,-7.1031,-6.9849,-6.853,-6.735,-6.6083,-6.3497,-6.2821,-6.4783,-6.5087,-6.4855,-6.4135,-6.2207,-6.055,-5.909,-5.743,-5.6085,-5.5179,-5.5179,-5.5179,-5.5179,-5.5179,-5.5179,-5.5179,-5.5179,-5.5179,-5.5179,-5.5179,-5.5179,-5.5179,-5.4743,-5.3847,-5.2569,-5.1484,-4.9529,-4.737,-4.6499,-4.5232,-4.3991,-4.3664,-4.3413,-4.3162,-4.3037,-4.2986,-4.2986,-4.2986,-4.2986,-4.2986,-4.2986,-4.2986,-4.2986,-4.2986,-4.2986,-4.2849,-4.2375,-4.2012,-4.0961,-3.8698,-3.8223,-3.8104,-3.7626,-3.7506,-3.7385,-3.6902,-3.6902,-3.6902,-3.6902,-3.5806,-3.5273,-3.5766,-3.4412,-3.3594,-3.4043,-3.3672,-3.3476,-3.3594,-3.3594,-3.3789,-3.4219,-3.4375,-3.4746,-3.5391,-3.5508,-3.5723,-3.6016,-3.6016,-3.6016,-3.6016,-3.6016,-3.6016,-4.8191,-4.8668,-4.9273,-4.9182,0.0,0.0,-5.0587,-5.478,-5.8664,-5.9035,-6.3719,-6.756,-6.6806,-6.7553,-6.8568,-6.9376,-6.9522,-7.022,-7.2239,-7.2496,-7.2386,-7.2055,-7.1162,-7.0123,-6.8822,-6.7435,-6.6282,-6.5304,-6.3193,-6.2753,-6.4512,-6.4005,-6.3835,-6.414,-6.2232,-6.0922,-6.0226,-5.855,-5.7181,-5.5918,-5.5918,-5.575,-5.5179,-5.5179,-5.5179,-5.5179,-5.5179,-5.5179,-5.5179,-5.5179,-5.5179,-5.5179,-5.5179,-5.4463,-5.3392,-5.2468,-5.0763,-4.8845,-4.7074,-4.5682,-4.4505,-4.3739,-4.3237,-4.2986,-4.2986,-4.2986,-4.2986,-4.2986,-4.2986,-4.2986,-4.2986,-4.2986,-4.2986,-4.2986,-4.2986,-4.2986,-4.2986,-4.2986,-4.2488,-4.0592,-4.0245,-3.9989,-3.9288,-3.917,-3.8935,-3.8342,-3.8223,-3.8223,-3.8223,-3.7385,-3.704,-3.773,-3.5728,-3.4624,-3.5396,-3.4132,-3.3418,-3.3418,-3.3418,-3.3535,-3.3789,-3.3984,-3.4316,-3.4824,-3.5195,-3.5605,-3.6016,-3.6016,-3.6016,-3.6016,-3.6016,-3.6016,-4.9534,-5.0141,-5.0818,-5.0702,-5.0779,0.0,-5.0663,-5.5275,-5.9766,-6.0357,-6.4289,-6.7071,-6.5471,-6.4277,-6.3796,-6.453,-6.4787,-6.6512,-7.1174,-7.2055,-7.1872,-7.0881,-7.012,-6.9089,-6.7439,-6.6348,-6.537,-6.4559,-6.441,-6.4377,-6.4377,-6.3091,-6.2685,-6.3362,-6.165,-6.0787,-6.0586,-5.9522,-5.836,-5.715,-5.715,-5.6541,-5.5381,-5.5381,-5.528,-5.5179,-5.5179,-5.5149,-5.5089,-5.5149,-5.5179,-5.5179,-5.5179,-5.479,-5.3993,-5.269,-5.1741,-5.0566,-4.7405,-4.6272,-4.584,-4.3891,-4.3184,-4.3184,-4.3073,-4.2986,-4.2986,-4.2986,-4.2986,-4.2986,-4.2986,-4.2986,-4.2986,-4.2986,-4.2986,-4.2986,-4.2986,-4.2986,-4.2986,-4.2986,-4.2986,-4.2513,-4.1076,-4.0822,-4.0361,-3.8935,-3.8698,-3.8698,-3.8698,-3.858,-3.8822,-3.9769,-3.7544,-3.641,-3.7424,-3.5098,-3.365,-3.365,-3.3544,-3.3418,-3.3418,-3.3789,-3.4043,-3.4141,-3.5019,-3.5644,-3.6016,-3.6016,-3.6016,-3.6016,-3.6016,-3.6016,-4.9622,-5.0529,-5.151,-5.0856,-5.1202,0.0,-5.0444,-5.1238,-5.2779,-5.4825,-5.6108,-5.737,-5.9235,-5.989,-6.0236,-6.0382,-6.1484,-6.3576,-6.7173,-6.9339,-6.9779,-6.7687,-6.7652,-6.7682,-6.7336,-6.5268,-6.3939,-6.3734,-6.3159,-6.2821,-6.2821,-6.255,-6.2448,-6.2618,-6.229,-6.1595,-6.0586,-6.0332,-5.961,-5.8451,-5.8451,-5.7807,-5.6638,-5.6638,-5.6085,-5.5179,-5.5179,-5.488,-5.4431,-5.497,-5.5179,-5.5179,-5.5179,-5.479,-5.4221,-5.3893,-5.2586,-5.0947,-4.9734,-4.8658,-4.7292,-4.5233,-4.4643,-4.4427,-4.3295,-4.2986,-4.2986,-4.2986,-4.2986,-4.2986,-4.2986,-4.2986,-4.2986,-4.2986,-4.2986,-4.2986,-4.2986,-4.2986,-4.2986,-4.2986,-4.2986,-4.2849,-4.2625,-4.2488,-4.2375,-4.215,-4.2012,-4.2012,-4.2012,-4.0937,-4.034,-4.0833,-3.9039,-3.7967,-3.8564,-3.6614,-3.5335,-3.5335,-3.4133,-3.3418,-3.3418,-3.3496,-3.3867,-3.457,-3.5449,-3.5937,-3.6016,-3.6016,-3.6016,-3.6016,-3.6016,-3.6016,-5.076,-5.1279,-5.1933,-5.1933,-5.22,0.0,0.0,-5.1993,-5.3243,-5.3681,-5.5137,-5.6063,-5.519,-5.5684,-5.6088,-5.5684,-5.6638,-5.8143,-6.0162,-6.4971,-6.8164,-6.776,-6.7132,-6.6592,-6.6203,-6.422,-6.2956,-6.2956,-6.2618,-6.2381,-6.2381,-6.2381,-6.2381,-6.2381,-6.2381,-6.211,-6.148,-6.148,-6.087,-5.9697,-5.9697,-5.9081,-5.79,-5.6902,-5.6395,-5.6085,-5.512,-5.47,-5.47,-5.47,-5.47,-5.47,-5.47,-5.47,-5.461,-5.3952,-5.305,-5.1912,-5.0672,-4.9509,-4.8331,-4.6583,-4.6083,-4.5978,-4.5262,-4.5048,-4.4941,-4.4209,-4.4016,-4.3797,-4.3184,-4.2986,-4.2986,-4.2986,-4.2986,-4.2986,-4.2986,-4.2986,-4.2986,-4.2986,-4.2986,-4.2986,-4.2986,-4.2986,-4.2986,-4.2986,-4.2986,-4.2986,-4.2986,-4.2263,-4.1981,-4.2403,-4.0668,-3.9613,-4.0121,-3.8252,-3.7002,-3.7002,-3.6173,-3.5827,-3.5827,-3.5827,-3.5769,-3.5949,-3.6638,-3.6569,-3.6016,-3.6016,-3.6016,-3.6016,-3.6016,-3.6016,-5.1664,-5.1895,-5.2279,-5.2818,-5.314,-5.297,0.0,0.0,0.0,-5.3535,-5.5245,-5.5912,-5.2247,-5.2087,-5.2307,-5.1646,-5.2197,-5.3151,-5.4252,-5.9905,-6.4494,-6.5925,-6.5058,-6.4131,-6.3393,-6.2154,-6.1612,-6.2144,-6.2042,-6.1941,-6.1941,-6.211,-6.211,-6.1941,-6.211,-6.2178,-6.2178,-6.2178,-6.1782,-6.0953,-6.0953,-6.0332,-5.9049,-5.7575,-5.6902,-5.696,-5.5287,-5.46,-5.476,-5.4371,-5.4132,-5.4012,-5.4162,-5.4461,-5.467,-5.3593,-5.3264,-5.3136,-5.1081,-5.0191,-4.9675,-4.7993,-4.7299,-4.7094,-4.7094,-4.7094,-4.6888,-4.5767,-4.5342,-4.5048,-4.3713,-4.3381,-4.3295,-4.3073,-4.2986,-4.2986,-4.2986,-4.2986,-4.2986,-4.2986,-4.2986,-4.2986,-4.2986,-4.2986,-4.2986,-4.2986,-4.2986,-4.2986,-4.2986,-4.2986,-4.3162,-4.3589,-4.2054,-4.1244,-4.1677,-3.9872,-3.8698,-3.8698,-3.8342,-3.8268,-3.8358,-3.8537,-3.842,-3.77,-3.7929,-3.7583,-3.6539,-3.6152,-3.6016,-3.6016,-3.6016,-3.6016,-5.0818,-5.1933,-5.2895,-5.2241,-5.3182,-5.3897,-5.2267,0.0,-5.2221,-5.1339,0.0,-5.048,-4.9961,0.0,0.0,-4.9884,-5.0545,-5.1867,-5.4106,-5.4583,-5.506,-5.5941,-5.7043,-5.7657,-5.733,-5.7741,-5.8962,-6.1231,-6.0757,-6.0351,-6.0351,-6.1028,-6.1095,-6.0385,-6.1061,-6.1434,-6.1434,-6.1434,-6.166,-6.2223,-6.2223,-6.1561,-6.0417,-6.0148,-5.8984,-5.696,-5.6184,-5.487,-5.3443,-5.3982,-5.3832,-5.3354,-5.3982,-5.3892,-5.3384,-5.3234,-5.3563,-5.3832,-5.1757,-5.1846,-5.2337,-4.9832,-4.8139,-4.7094,-4.7094,-4.7094,-4.7094,-4.6888,-4.6888,-4.6578,-4.5155,-4.4725,-4.4427,-4.3295,-4.2986,-4.2986,-4.2986,-4.2986,-4.2986,-4.2986,-4.2986,-4.2986,-4.2986,-4.2986,-4.2986,-4.2986,-4.2986,-4.2986,-4.2986,-4.2986,-4.3011,-4.3062,-4.2899,-4.2762,-4.2812,-4.1329,-4.0361,-4.0361,-3.8935,-3.8425,-3.8851,-3.9725,-4.024,-4.01,-3.9044,-3.8423,-3.8353,-3.6789,-3.6016,-3.6016,-3.6016,-3.6016,-5.4434,-5.5626,-5.6319,-5.6896,-5.7582,-5.7621,-5.6019,-5.4037,-5.2244,-5.1038,0.0,0.0,0.0,0.0,0.0,0.0,-4.9884,-5.0435,-5.1463,-5.0508,-5.1165,-5.5147,-5.5713,-5.6075,-5.685,-5.5761,-5.5891,-5.7881,-5.7746,-5.7543,-5.7543,-5.9505,-6.0452,-6.0114,-6.0892,-6.1095,-6.0622,-6.1061,-6.1467,-6.1772,-6.1772,-6.1706,-6.1561,-6.0059,-5.903,-5.8318,-5.6304,-5.5099,-5.4779,-5.4368,-5.4042,-5.3773,-5.3653,-5.3683,-5.3773,-5.3773,-5.3713,-5.3503,-5.2636,-5.2456,-5.236,-5.0899,-4.9969,-4.9455,-4.9455,-4.9455,-4.9357,-4.8539,-4.8339,-4.8038,-4.6578,-4.6161,-4.6083,-4.5555,-4.5342,-4.5155,-4.4318,-4.4126,-4.3907,-4.3184,-4.2986,-4.2986,-4.2986,-4.2986,-4.2986,-4.2986,-4.2986,-4.2986,-4.2986,-4.2986,-4.2986,-4.2986,-4.2986,-4.2986,-4.2986,-4.2375,-4.2012,-4.2012,-4.1595,-4.1513,-4.1729,-4.288,-4.2946,-4.194,-4.1673,-4.0515,-3.8597,-3.7822,-3.6924,-3.6016,-3.6016,-3.6016,-5.8165,-5.9165,-5.9473,-5.9973,-6.0186,-5.9726,-5.7725,-5.5211,-5.2966,-5.1698,-5.1279,0.0,0.0,0.0,-5.1022,-5.0655,0.0,-4.9921,-4.9921,-4.8122,-4.8522,-5.3259,-5.3603,-5.3823,-5.4952,-5.3639,-5.3169,-5.4262,-5.4873,-5.5212,-5.5212,-5.8157,-5.9708,-5.9505,-6.025,-6.0385,-5.981,-6.0385,-6.0791,-6.096,-6.096,-6.1264,-6.1738,-5.9777,-5.9164,-5.9383,-5.6933,-5.5869,-5.5875,-5.48,-5.4187,-5.3892,-5.3593,-5.3653,-5.3922,-5.3922,-5.3832,-5.3653,-5.3114,-5.2486,-5.1858,-5.1379,-5.1229,-5.1229,-5.1229,-5.1229,-5.1011,-4.9969,-4.9776,-4.9455,-4.8038,-4.7707,-4.7605,-4.7197,-4.7094,-4.6785,-4.5767,-4.5555,-4.5155,-4.3797,-4.3602,-4.3381,-4.3073,-4.2986,-4.2986,-4.2986,-4.2986,-4.2986,-4.2986,-4.2986,-4.2986,-4.2986,-4.2986,-4.2986,-4.2986,-4.2986,-4.3037,-4.3187,-4.3865,-4.4267,-4.4267,-4.5196,-4.5077,-4.3917,-4.3788,-4.2454,-4.0018,-3.9497,-3.8597,-3.7441,-3.6403,-3.6016,-6.0719,-6.132,-6.1396,-5.8973,-5.8842,-5.8501,-5.5321,-5.4392,-5.3975,-5.3281,-5.2491,-5.2197,-5.2968,-5.2454,-5.2197,-5.2968,-5.1793,0.0,0.0,-4.7976,-4.6213,-4.701,-4.8263,-4.9097,-4.9097,-5.046,-5.1242,-5.0925,-5.2848,-5.408,-5.408,-5.725,-5.8727,-5.7983,-5.8693,-5.9066,-5.9066,-5.9066,-5.9438,-6.0148,-6.0148,-6.0148,-6.0182,-6.0114,-5.9834,-5.9466,-5.8741,-5.7517,-5.5906,-5.5256,-5.4293,-5.3264,-5.3922,-5.3773,-5.3204,-5.3204,-5.4012,-5.485,-5.2905,-5.1798,-5.1259,-5.1229,-5.1229,-5.1229,-5.1229,-5.1229,-5.1229,-5.1105,-5.1105,-5.0822,-4.9455,-4.9161,-4.8738,-4.7402,-4.7094,-4.7094,-4.6991,-4.6991,-4.6578,-4.5262,-4.4941,-4.4535,-4.3184,-4.2986,-4.2986,-4.2986,-4.2986,-4.2986,-4.2986,-4.2986,-4.2986,-4.2986,-4.2986,-4.2986,-4.2986,-4.2986,-4.3212,-4.374,-4.4819,-4.5447,-4.5447,-4.5974,-4.6276,-4.6155,-4.4497,-4.3606,-4.3458,-4.1947,-4.1052,-4.0924,-3.7575,-3.6016,-6.4282,-6.5166,-6.5474,-6.5782,-6.4334,-6.254,-6.1435,-5.7687,-5.4153,-5.3359,-5.3004,-5.2711,-5.2454,-5.2637,-5.2527,-5.1756,-5.1169,-5.0618,0.0,-4.7531,-4.5475,-4.4874,-4.5828,-4.6945,-4.799,-4.6794,-4.6239,-4.6743,-4.7845,-4.8196,-4.7364,-5.2652,-5.5485,-5.5006,-5.7611,-5.8795,-5.8287,-5.8761,-5.9133,-5.937,-5.937,-5.9641,-6.0114,-6.0114,-5.9717,-5.9098,-5.8634,-5.8017,-5.7367,-5.6148,-5.5625,-5.5643,-5.4548,-5.4341,-5.4521,-5.4521,-5.4221,-5.3713,-5.2576,-5.1768,-5.1229,-5.1229,-5.1229,-5.1229,-5.1229,-5.1229,-5.1229,-5.1229,-5.1229,-5.1105,-5.0603,-5.0508,-5.0383,-4.9969,-4.9776,-4.9582,-4.8638,-4.8539,-4.8038,-4.6682,-4.637,-4.5978,-4.4535,-4.4318,-4.4016,-4.3073,-4.2986,-4.2986,-4.2986,-4.2986,-4.2986,-4.2986,-4.2986,-4.2986,-4.2986,-4.3313,-4.3765,-4.4317,-4.507,-4.5497,-4.5497,-4.6024,-4.6301,-4.6301,-4.5671,-4.489,-4.3731,-4.3083,-4.2328,-4.1181,-4.0018,-3.8861,-6.7782,-6.8436,-6.8513,-6.8706,-6.7102,-6.5175,-6.4171,-6.0585,-5.7261,-5.6515,-5.6288,-5.5705,-5.4088,-5.392,-5.3377,-5.1298,-5.0628,-4.9884,0.0,-4.6798,-4.5184,-4.3751,-4.4895,-4.586,-4.5999,-4.4849,-4.3917,-4.3452,-4.4773,-4.5331,-4.4733,-5.0635,-5.4017,-5.4125,-5.7006,-5.8389,-5.7881,-5.8355,-5.8626,-5.8626,-5.8626,-5.8863,-5.9302,-5.9302,-5.9336,-5.9329,-5.9042,-5.9032,-5.9004,-5.7748,-5.6961,-5.6462,-5.5084,-5.4466,-5.4491,-5.4491,-5.3773,-5.2785,-5.2336,-5.1768,-5.1229,-5.1229,-5.1229,-5.1229,-5.1229,-5.1229,-5.1169,-5.093,-5.105,-5.1169,-5.093,-5.105,-5.1229,-5.1229,-5.1229,-5.0917,-5.0095,-4.9873,-4.9455,-4.8139,-4.7808,-4.7402,-4.5978,-4.5767,-4.5155,-4.3295,-4.2986,-4.2986,-4.2986,-4.2986,-4.2986,-4.2986,-4.2986,-4.3062,-4.3263,-4.379,-4.4342,-4.4895,-4.5472,-4.5773,-4.5773,-4.6125,-4.6225,-4.6024,-4.62,-4.5693,-4.4354,-4.4523,-4.4127,-4.2981,-4.2328,-4.1437]}]]